GEFSCGP_500_meanwind_000.txt.gz
Wind_Speed
4 5 6 9 12 14 15 16 15 16 19 22 26 31 35 41 46 51 54 57 60 64 67 70 72 73 73 72 72 73 75 77 77 77 78 78 79 78 76 75 75 76 76 75
5 7 8 9 11 14 16 17 18 20 24 28 32 36 41 47 52 57 60 63 66 70 74 76 78 80 84 84 84 84 84 84 81 80 81 82 83 84 84 82 80 80 82 82
8 10 12 14 15 16 17 19 22 24 28 30 36 42 48 54 59 63 66 68 70 73 79 83 86 88 90 91 90 87 84 84 84 81 79 80 82 83 85 87 87 86 85 85
10 12 13 14 16 19 19 22 24 27 30 35 41 50 54 59 63 66 69 72 76 81 84 86 89 89 88 87 83 79 76 73 71 69 68 69 71 74 78 81 83 87 87 87
12 13 14 15 17 20 22 24 27 30 34 40 47 55 59 63 66 69 73 76 80 83 85 87 86 83 79 74 69 65 63 59 59 60 62 62 60 58 59 61 65 70 73 75
15 16 18 18 19 21 25 29 32 34 38 42 50 58 62 65 69 73 76 78 79 81 83 81 77 71 63 62 61 58 54 54 55 54 54 51 43 39 36 35 37 43 47 48
17 18 19 20 21 23 27 31 34 37 39 45 54 60 64 68 71 75 77 78 79 80 77 71 65 56 56 54 51 50 50 50 49 47 45 42 39 35 30 26 26 28 31 32
19 19 20 22 24 28 31 34 36 39 43 50 57 62 66 70 73 75 76 76 75 71 65 62 57 56 52 48 51 51 50 48 47 45 44 42 39 35 28 23 21 23 24 25
20 22 23 25 28 32 34 36 39 44 50 56 61 64 69 72 75 75 75 73 67 61 59 59 57 53 46 45 50 53 51 49 48 46 44 42 40 35 30 25 23 23 24 22
24 24 25 27 28 31 35 39 45 50 56 61 64 67 72 74 74 74 73 69 60 56 57 58 56 49 44 46 51 54 54 51 49 46 44 42 39 35 31 27 24 24 23 24
25 25 26 27 28 33 37 42 47 53 59 64 68 69 72 74 74 74 72 64 55 53 55 57 57 54 50 51 54 56 56 53 51 48 46 43 40 37 34 30 27 26 27 28
25 26 27 27 30 34 39 44 50 57 61 63 67 70 73 74 73 75 70 60 54 53 56 58 60 59 56 56 57 57 56 54 52 52 51 48 45 42 39 37 34 33 32 33
26 28 28 29 33 37 44 49 54 58 61 64 68 70 74 74 73 73 67 58 52 52 56 58 61 61 59 58 58 58 56 54 53 53 53 53 51 48 45 43 41 40 40 40
26 28 28 31 35 40 47 53 57 60 64 67 69 71 74 74 75 72 64 55 51 52 57 60 62 62 60 59 59 58 58 57 56 54 52 51 51 51 50 48 46 45 44 44
27 29 30 33 37 43 48 54 59 62 66 69 70 73 76 76 76 71 61 53 51 54 58 62 64 64 61 58 57 56 54 52 52 52 52 51 49 48 48 48 48 48 47 46
28 31 32 35 38 43 49 56 61 66 69 70 71 74 77 77 76 67 57 52 51 57 62 65 66 63 60 56 51 49 48 49 50 52 52 52 51 49 45 43 44 46 47 46
30 32 35 38 40 45 53 59 64 68 69 70 72 74 78 79 72 62 53 51 56 62 66 67 65 61 55 51 51 51 50 51 53 56 56 56 54 51 48 45 41 40 43 43
31 33 36 39 44 50 56 60 65 68 68 70 72 76 79 77 64 56 52 54 59 64 67 65 61 55 52 50 49 50 51 53 56 59 60 57 54 52 49 44 41 37 36 38
30 33 37 43 47 52 59 63 67 69 69 70 73 77 78 72 60 53 53 57 62 65 65 61 57 53 50 49 51 52 54 55 56 58 60 57 55 54 50 44 38 34 31 30
31 34 39 45 50 56 61 65 67 69 69 71 74 77 76 67 57 54 57 61 64 64 60 55 51 49 48 50 52 54 54 55 56 59 61 60 56 55 50 44 38 32 28 26
35 39 42 46 51 56 63 67 69 69 69 71 74 76 72 61 55 57 61 63 64 60 55 51 49 48 49 51 55 56 57 57 59 62 61 59 56 52 49 45 41 35 30 26
37 41 43 47 52 58 64 68 68 67 68 70 73 74 67 58 55 58 62 63 61 56 51 48 47 48 50 53 56 58 59 60 63 65 62 58 55 51 47 44 42 39 33 28
38 41 42 47 52 59 64 67 67 66 67 69 72 73 63 56 56 60 62 62 59 53 48 46 46 49 52 55 57 59 61 62 65 64 62 59 55 51 48 45 42 39 35 31
39 41 43 48 54 61 66 68 66 64 65 69 73 69 60 55 57 61 62 61 55 49 45 44 47 50 53 55 57 61 62 63 64 61 61 60 57 53 50 48 45 40 35 31
39 42 45 49 55 62 66 67 66 64 65 69 71 65 59 56 58 61 61 59 51 45 43 45 49 53 54 55 58 61 62 64 62 60 60 61 60 57 52 48 45 41 36 32
39 42 46 49 55 62 65 66 64 63 65 69 70 63 58 57 60 61 60 56 47 42 44 48 51 54 55 56 59 60 62 63 60 60 60 61 62 60 55 50 44 41 38 33

GEFSCGP_500_meanwind_006.txt.gz
Wind_Speed
5 7 8 9 10 12 14 15 16 18 21 25 29 33 37 40 45 50 55 61 66 72 75 78 81 82 83 85 86 83 76 70 66 66 65 59 50 44 43 46 49 51 56 66
7 9 11 12 14 14 15 16 17 20 24 29 34 36 39 43 49 53 59 64 70 75 78 79 81 83 85 85 83 74 64 60 61 61 56 49 43 42 42 42 43 45 47 51
7 9 11 13 14 15 17 19 22 25 29 33 39 41 43 47 52 57 63 68 73 77 79 80 82 84 84 81 72 61 55 55 57 57 53 49 46 47 48 46 44 45 46 47
9 11 13 15 16 18 20 23 26 29 32 35 40 45 45 49 55 62 67 71 75 77 79 81 83 81 78 72 63 55 53 54 57 56 53 52 51 52 53 50 46 45 45 46
10 12 14 16 17 20 22 25 28 31 34 37 41 46 50 55 60 65 70 73 76 78 81 82 79 75 71 64 56 53 54 57 58 59 57 55 55 55 56 54 50 46 44 44
12 13 15 17 19 21 24 28 31 33 36 39 44 49 55 59 65 70 73 76 78 80 81 78 74 69 64 58 54 55 58 61 62 62 60 57 55 56 56 55 52 48 44 41
16 16 17 18 19 22 25 29 33 38 41 43 47 51 58 64 69 72 75 77 79 81 78 73 68 63 58 56 56 59 62 64 63 62 60 57 54 53 53 53 51 49 45 40
18 17 17 18 19 21 23 27 32 37 42 45 49 54 60 66 71 75 76 78 81 80 74 69 64 60 58 59 61 63 64 64 61 58 55 52 50 48 48 49 49 48 46 41
17 17 17 18 20 23 26 31 35 38 44 50 53 58 64 69 74 75 76 78 81 77 71 65 62 61 63 65 65 64 61 58 55 52 49 48 47 46 45 45 46 46 45 42
17 17 18 19 21 24 29 33 37 40 46 53 58 63 67 72 74 75 76 79 79 74 67 64 63 65 66 67 64 60 55 52 50 49 49 48 48 47 46 46 46 46 45 42
17 18 20 22 23 27 31 35 38 43 48 54 61 66 70 74 75 75 78 79 75 69 65 65 66 68 67 63 58 53 50 49 48 48 48 48 48 48 48 48 48 47 46 44
17 19 22 23 25 28 32 36 41 46 51 55 63 69 74 75 74 76 77 76 71 66 65 66 68 67 62 57 53 50 49 49 50 50 50 50 50 51 52 52 50 48 45 43
19 22 25 25 27 30 34 39 44 48 52 58 65 70 74 74 74 76 76 73 69 66 66 68 67 63 57 53 51 50 50 51 52 54 54 53 53 53 53 52 49 46 43 40
21 24 26 29 31 33 37 41 45 49 55 61 66 71 74 74 75 76 76 73 69 67 68 68 64 58 54 52 52 52 52 53 55 56 55 54 53 52 52 51 47 43 40 37
23 25 26 28 29 32 37 41 46 51 56 62 68 73 74 74 75 77 75 72 69 68 68 65 59 55 52 52 53 53 54 55 56 56 54 53 53 53 52 51 48 43 38 34
26 26 27 28 30 32 37 42 48 53 58 64 70 74 75 73 75 76 73 71 68 68 67 61 55 53 52 53 54 54 56 57 56 55 53 52 53 54 54 52 49 44 39 34
27 29 30 32 34 36 40 46 50 54 60 66 71 74 73 72 74 74 72 69 68 68 64 57 53 52 52 54 55 56 58 58 57 55 52 52 54 57 57 55 52 47 41 35
28 30 33 35 37 39 43 47 51 56 62 67 72 74 72 72 73 72 69 68 67 66 60 53 52 52 54 55 56 57 60 60 58 55 52 54 57 59 59 58 56 52 44 36
28 31 34 37 39 40 43 49 54 58 62 68 72 72 71 72 73 70 68 67 67 63 56 53 53 54 55 55 56 59 61 61 59 54 53 55 57 59 59 60 60 56 46 37
28 31 34 37 40 43 45 50 55 60 65 69 72 71 70 71 72 69 68 67 66 60 54 53 54 55 55 55 57 59 61 61 58 54 54 56 58 59 60 62 63 59 47 35
30 33 35 38 40 42 46 51 56 61 66 69 71 69 68 70 70 68 67 66 64 57 53 53 55 55 55 55 57 59 61 61 58 55 56 57 59 60 62 64 65 59 45 31
33 36 38 40 43 45 48 51 55 60 65 69 69 67 67 69 69 66 65 65 61 54 52 54 55 55 55 55 56 59 60 60 58 56 57 59 61 62 63 66 66 59 44 29
33 36 39 40 42 44 47 51 55 60 64 68 68 66 67 68 67 65 64 63 58 52 52 54 54 55 55 55 56 58 59 58 57 56 57 60 62 63 65 68 68 61 45 29
34 37 39 40 41 44 47 51 55 58 62 67 66 65 66 67 66 63 63 61 55 51 51 53 54 54 53 54 57 58 58 57 56 55 57 60 62 63 66 69 70 65 49 33
38 39 39 39 41 43 47 52 55 57 62 65 65 64 65 66 64 62 61 59 53 49 50 52 53 53 52 54 56 57 56 56 55 56 58 60 62 63 64 68 71 69 56 40
39 38 39 39 41 44 47 52 55 57 62 65 64 63 64 64 62 61 59 56 50 47 48 50 52 52 51 53 55 56 56 56 56 56 57 60 61 62 63 66 69 71 64 48

GEFSCGP_500_meanwind_012.txt.gz
Wind_Speed
9 10 11 13 14 14 16 17 18 21 24 26 29 31 34 38 41 45 50 55 61 65 69 73 76 79 83 86 87 88 86 80 76 73 71 69 67 66 65 64 63 62 61 60
9 10 12 13 14 15 17 19 20 19 23 27 30 31 34 39 43 48 54 59 63 68 73 76 79 82 85 86 86 85 81 78 75 73 71 68 65 63 61 61 60 59 60 60
10 11 12 14 16 17 18 20 22 23 25 29 33 32 36 42 47 53 58 63 68 73 76 78 81 83 85 84 84 82 80 76 72 68 63 58 54 51 49 48 47 46 47 50
11 12 13 15 16 17 17 19 21 24 28 29 32 38 40 47 52 57 62 67 72 75 77 80 82 83 84 83 83 80 75 69 64 60 58 55 53 51 49 47 46 44 43 43
12 13 14 14 16 17 19 21 23 26 28 30 34 42 48 53 56 61 66 71 75 77 78 80 82 83 83 82 81 74 67 62 60 59 58 57 55 54 52 51 49 47 45 44
14 14 14 15 17 19 20 22 24 29 34 38 43 46 49 54 59 66 71 74 75 76 79 81 82 82 82 81 75 67 63 61 60 59 59 58 57 56 54 53 50 48 46 45
14 15 15 17 18 20 22 26 31 35 38 40 43 46 52 58 63 68 72 73 75 78 80 81 81 81 81 76 68 64 62 61 60 60 59 59 58 56 54 51 48 46 44 43
15 14 16 18 20 22 24 27 30 34 36 39 44 51 55 59 63 67 71 75 77 79 80 80 80 81 77 70 65 64 63 62 61 61 60 59 58 55 52 49 47 46 45 45
16 16 18 20 22 23 25 28 30 34 38 43 47 51 56 60 64 68 73 76 77 78 79 79 80 78 72 66 64 64 63 62 61 61 61 59 56 53 50 48 47 46 46 46
15 16 18 20 22 24 26 29 33 36 41 46 50 54 58 61 65 71 74 75 77 79 79 78 78 74 68 65 64 63 63 62 62 62 60 58 54 52 50 48 48 48 48 48
16 16 18 21 22 25 27 30 33 37 41 47 53 55 59 63 67 72 74 75 77 78 77 77 76 70 65 63 63 63 63 62 62 60 58 56 53 52 51 51 51 51 51 50
18 18 18 19 22 25 28 32 35 38 41 45 50 57 60 64 69 73 75 75 76 76 76 77 73 67 63 63 63 63 63 63 62 59 56 54 54 54 54 55 55 54 53 52
19 20 21 21 22 25 28 31 35 39 42 46 51 57 61 65 70 72 73 74 75 76 76 75 70 64 62 63 63 63 63 63 60 57 55 55 56 57 58 58 58 57 56 54
20 21 22 25 27 29 33 34 36 39 43 47 51 57 61 64 69 71 72 74 75 76 75 72 67 62 61 63 63 63 63 62 58 56 55 56 58 59 60 60 60 59 59 58
22 22 23 25 27 28 31 34 36 39 43 48 53 57 60 64 69 72 74 74 75 74 73 70 64 60 60 62 63 63 63 60 57 55 56 58 60 61 62 62 63 63 63 61
27 25 25 25 25 27 30 34 37 40 44 50 55 59 62 65 69 72 74 74 74 74 72 68 62 59 60 62 63 63 62 59 56 55 57 60 62 63 63 64 65 66 65 59
32 32 30 29 28 28 33 38 41 42 46 51 56 60 62 66 70 72 74 73 74 73 71 66 60 58 60 62 63 63 61 58 56 56 58 61 63 64 65 66 68 70 66 55
38 38 36 34 33 32 37 40 43 45 47 52 56 60 63 66 70 72 73 73 73 72 69 64 59 57 59 62 63 62 61 58 56 56 59 62 64 65 66 68 71 72 65 50
40 42 42 41 40 38 38 42 45 48 49 53 57 61 63 66 70 72 73 72 72 71 69 63 58 56 58 61 62 61 60 58 56 56 59 62 65 67 68 70 72 72 62 47
39 42 44 45 45 45 44 44 46 48 51 54 58 62 63 66 69 71 72 71 71 71 68 63 58 55 58 60 61 61 60 59 57 57 59 63 66 68 69 71 74 73 63 48
40 43 46 48 49 48 49 48 48 49 52 55 58 61 63 65 69 71 71 71 71 70 68 63 57 55 57 59 60 60 60 59 58 58 60 63 66 68 69 71 74 74 65 51
41 45 49 53 54 54 54 52 49 49 51 54 57 61 62 65 68 70 70 70 70 69 67 62 57 54 56 58 59 59 59 59 58 58 60 62 65 67 69 70 72 73 69 57
41 45 49 52 54 56 57 53 49 48 50 53 57 60 61 64 68 70 69 69 69 69 66 62 56 54 55 57 58 58 58 58 58 58 59 60 63 66 68 69 70 72 72 64
42 45 48 52 55 58 57 54 50 48 50 53 57 60 61 64 67 69 68 68 68 68 65 61 56 53 53 55 57 57 56 57 58 58 58 58 61 64 67 69 69 71 72 70
44 46 48 51 56 59 59 55 51 49 50 53 57 59 61 64 67 68 68 67 67 67 65 61 56 52 52 53 55 55 55 55 56 56 56 56 58 62 65 68 70 70 71 71
43 46 49 51 56 59 60 58 53 50 50 53 56 59 61 64 67 67 67 66 66 65 64 60 56 52 50 51 53 54 54 54 54 54 55 55 56 59 62 65 68 69 69 69

GEFSCGP_500_meanwind_018.txt.gz
Wind_Speed
11 12 12 12 12 12 11 12 13 14 15 17 20 23 27 31 35 38 42 46 50 55 59 64 69 75 78 80 82 84 86 87 85 79 74 71 70 70 70 67 64 61 58 56
9 10 11 11 12 13 12 12 13 14 16 19 21 23 28 31 35 40 45 50 54 58 62 67 73 77 79 81 82 84 86 85 80 75 73 71 71 70 67 62 58 56 53 51
10 10 11 11 12 13 13 13 13 14 18 21 22 22 28 33 39 44 49 52 56 60 65 70 75 77 79 81 83 85 85 81 76 73 72 71 69 66 60 54 51 50 49 48
10 11 11 12 12 12 12 13 14 16 19 23 25 27 31 37 43 47 51 54 57 62 67 72 75 77 79 81 83 84 82 77 73 73 72 71 67 60 54 50 48 50 51 50
11 11 12 12 13 13 13 14 16 18 21 23 27 31 35 40 45 49 53 55 59 64 69 72 75 77 79 82 84 83 78 74 72 73 72 69 63 56 51 49 50 52 53 54
11 12 12 13 13 14 16 17 18 20 22 25 29 33 37 42 47 51 54 57 60 65 69 72 75 77 80 82 82 80 75 72 72 72 70 66 59 53 50 51 52 53 54 55
11 13 13 14 15 16 18 20 22 24 25 28 31 35 39 43 48 53 56 58 62 65 69 72 75 77 80 82 81 77 73 71 72 71 68 64 57 53 52 54 56 57 57 57
13 14 14 15 16 19 21 23 25 28 29 29 32 36 40 45 50 54 57 59 62 66 70 73 75 78 80 81 79 74 71 71 72 70 66 62 56 54 56 59 61 62 62 61
14 14 15 16 18 21 23 25 27 30 32 34 35 39 43 47 51 54 57 59 63 68 71 74 76 78 80 80 77 72 70 70 71 69 65 61 57 56 59 63 65 66 66 65
16 15 16 18 20 23 26 28 31 33 37 41 41 42 45 48 51 55 58 61 65 69 72 74 76 78 79 78 74 70 70 71 70 68 65 61 58 59 63 66 68 69 70 70
17 17 18 20 23 26 28 30 33 35 37 42 45 44 46 48 51 56 58 62 66 69 72 74 76 78 78 76 72 69 69 70 69 67 64 61 59 62 65 68 71 72 74 73
17 18 19 21 24 26 28 31 33 36 39 41 44 45 46 48 51 55 59 62 66 70 72 73 75 77 76 74 71 69 69 69 68 66 64 61 61 64 67 70 73 75 76 70
20 20 21 22 24 26 28 31 34 37 39 40 42 43 45 47 51 55 58 62 66 69 71 73 74 75 75 73 70 68 68 68 67 65 64 62 62 65 68 72 75 77 74 63
21 23 25 27 29 30 32 34 36 37 38 39 39 41 44 47 51 55 58 62 66 69 71 71 73 74 74 72 69 68 68 67 66 65 64 62 63 66 70 73 76 77 71 57
21 24 27 29 32 34 36 37 38 38 38 38 38 39 43 47 51 54 59 63 66 69 70 70 71 73 73 71 68 67 67 66 65 65 64 63 64 67 70 74 77 76 69 53
19 22 26 29 32 35 39 41 41 41 41 40 40 40 43 46 51 54 59 63 66 68 68 69 71 73 72 70 67 66 66 66 65 64 64 64 65 67 70 74 77 76 68 52
17 21 25 29 33 37 42 46 46 44 44 44 43 43 45 47 51 55 59 62 65 67 68 68 70 72 71 69 66 65 65 64 64 63 64 64 65 67 70 73 76 75 69 55
17 21 26 30 35 40 43 47 49 47 47 47 46 46 47 49 52 55 58 62 65 67 67 67 69 71 70 68 66 64 64 63 62 62 63 64 64 66 69 72 74 74 71 61
17 22 27 32 36 39 44 48 51 51 50 52 51 50 50 51 52 55 57 62 65 67 67 67 68 69 69 67 65 63 62 62 61 61 62 63 64 64 67 70 72 73 72 66
17 22 27 31 36 41 44 48 51 53 54 56 55 54 52 52 52 54 57 61 65 67 66 66 67 68 68 66 63 61 61 60 60 60 61 62 62 63 65 68 71 72 72 69
18 21 25 30 34 38 43 47 51 52 55 58 58 56 54 52 53 54 57 61 65 67 66 65 66 67 67 65 62 60 60 59 59 59 60 60 60 62 64 66 69 71 71 70
21 24 28 32 37 40 44 47 50 52 55 57 59 58 56 55 54 55 57 60 64 66 66 65 65 66 66 64 62 59 58 58 58 58 58 58 59 60 61 63 65 67 69 68
23 25 28 31 34 38 42 46 49 52 55 57 60 61 59 56 55 55 57 60 64 66 65 64 64 64 64 63 61 58 57 56 56 56 56 56 57 58 59 61 62 64 65 66
26 27 29 31 34 38 43 46 49 52 55 58 61 62 61 58 56 55 56 60 63 65 65 63 62 63 63 62 60 57 55 54 54 53 53 53 54 56 57 59 60 61 62 64
29 30 31 32 36 38 42 46 49 53 55 58 61 63 62 59 56 55 56 59 62 64 64 62 61 61 61 61 59 56 53 53 52 52 51 51 51 53 56 58 59 59 60 61
31 33 34 36 39 42 44 47 50 53 56 58 61 63 63 60 57 55 55 58 61 63 63 61 60 60 60 59 58 55 52 51 50 50 49 49 49 50 53 55 57 58 58 58

GEFSCGP_500_meanwind_024.txt.gz
Wind_Speed
9 9 11 12 14 15 16 17 17 17 17 18 19 22 24 25 29 32 35 40 44 48 51 54 56 59 63 67 71 74 77 81 83 86 88 88 85 81 80 79 77 73 69 63
10 10 12 13 14 14 15 16 16 17 18 19 21 23 26 28 31 35 38 43 47 50 53 55 57 61 65 69 72 75 78 81 84 87 89 87 82 79 78 76 74 70 65 62
10 11 12 12 13 13 14 15 18 19 20 22 23 23 28 31 34 38 42 45 48 51 53 55 58 63 67 70 73 76 79 83 86 88 88 83 80 78 77 74 70 66 62 61
9 10 11 12 12 13 15 17 20 22 23 24 27 26 30 33 37 40 43 46 48 51 53 56 60 64 68 71 74 76 80 84 87 88 85 82 79 77 76 73 68 64 62 62
8 9 11 12 13 15 17 20 22 24 25 26 29 30 32 36 39 41 44 46 48 51 54 56 61 65 69 72 74 77 81 85 86 86 83 80 79 78 75 71 66 62 62 65
6 8 10 12 15 18 20 22 23 24 26 28 30 32 35 37 38 40 43 46 49 52 54 57 62 66 69 72 75 78 82 84 85 84 81 79 78 76 74 69 65 64 65 69
5 8 10 14 17 20 23 25 26 27 28 29 31 32 34 35 37 40 44 47 50 52 54 58 62 67 70 73 75 78 81 83 84 82 79 78 77 75 73 70 67 67 70 74
6 8 11 14 17 20 23 26 29 31 31 30 30 31 32 35 38 42 45 47 50 52 55 59 63 67 70 73 75 78 81 83 82 80 77 76 75 74 72 70 70 72 76 78
7 9 11 14 17 21 24 27 29 32 33 32 32 33 34 38 40 43 46 48 50 52 55 59 63 68 71 73 75 78 81 82 80 78 76 74 73 72 71 70 71 74 78 79
7 9 11 14 18 22 25 29 31 34 37 38 36 37 39 40 42 44 46 48 51 52 55 59 64 68 71 73 75 78 80 80 79 76 74 72 72 71 71 70 72 75 78 77
7 9 11 14 18 22 26 29 31 33 36 39 40 40 42 42 44 45 47 49 51 53 55 59 64 68 71 73 75 78 79 79 77 74 72 71 70 70 70 71 72 75 77 75
6 8 11 14 18 23 26 29 32 34 36 38 41 43 45 46 46 47 48 50 52 53 56 60 64 68 70 72 74 77 78 77 75 72 70 69 69 69 69 70 72 75 76 74
4 7 9 13 18 22 25 29 32 34 37 40 43 44 48 49 50 50 50 51 53 54 56 60 64 68 70 72 74 76 77 76 73 70 68 68 68 68 69 69 71 73 75 73
1 4 8 11 15 20 24 28 32 35 38 40 43 46 50 52 53 53 53 53 54 54 57 60 64 68 70 71 73 75 76 74 71 69 67 66 66 67 68 69 70 72 74 73
3 4 7 11 15 19 23 27 31 34 38 41 45 48 52 55 56 56 56 55 55 55 57 60 64 68 69 71 72 74 74 72 70 67 65 64 64 66 67 68 69 71 73 73
7 7 9 12 15 18 21 25 29 33 37 41 46 49 53 57 58 59 58 58 56 56 58 61 64 67 69 70 71 73 73 71 69 66 64 62 62 64 66 67 68 69 71 72
11 10 11 13 15 17 20 24 27 32 37 41 46 49 54 57 60 61 61 60 58 58 59 61 64 67 68 69 70 71 71 70 68 65 63 61 61 62 65 66 67 67 69 71
15 14 14 15 17 20 23 25 28 32 36 41 45 49 53 57 61 64 64 63 61 60 60 61 64 67 68 68 69 70 70 69 67 64 62 60 59 61 63 64 65 66 67 68
19 18 18 19 20 21 24 28 31 34 36 41 45 49 53 57 61 64 66 65 63 61 60 62 64 66 67 67 68 69 69 68 66 63 60 59 58 59 60 62 64 64 65 66
23 22 22 23 25 26 28 30 32 37 40 44 47 51 54 58 61 64 67 67 65 62 61 62 64 66 66 66 67 67 68 68 66 62 59 57 57 58 59 60 62 63 63 64
27 26 25 25 27 29 30 33 35 37 41 44 47 51 54 57 60 64 67 68 67 64 62 62 63 65 66 65 65 66 67 66 65 62 59 56 56 56 57 58 59 61 62 63
32 30 28 28 29 32 32 34 37 38 41 43 47 50 53 57 60 64 67 68 68 66 63 62 63 64 65 64 64 65 66 66 64 61 58 56 55 54 55 56 57 58 60 60
35 34 33 30 30 35 35 36 38 40 42 44 47 50 54 57 60 64 67 69 69 67 64 62 62 63 64 63 63 63 64 65 63 61 58 56 54 53 53 54 54 55 57 58
38 37 36 34 31 36 37 38 41 43 44 46 47 50 54 57 60 63 66 68 69 68 65 62 62 62 63 62 61 62 63 63 62 59 57 55 53 53 52 52 52 53 54 55
41 39 38 37 36 38 37 40 43 45 47 48 48 50 53 57 60 62 65 67 68 68 66 63 61 61 62 61 60 61 61 62 61 59 56 54 53 52 51 51 52 52 53 55
43 40 41 40 41 43 40 41 45 47 49 49 50 51 53 56 59 62 64 66 67 68 66 63 60 60 60 60 59 59 59 60 60 58 56 54 52 50 50 50 51 52 52 53

GEFSCGP_500_meanwind_030.txt.gz
Wind_Speed
10 9 9 9 10 11 12 14 15 17 19 19 21 23 25 26 27 28 30 32 33 35 38 40 42 45 48 52 56 60 63 66 69 72 76 81 85 89 91 90 85 81 78 77
8 7 7 8 9 11 13 15 16 18 20 20 21 23 25 25 25 27 28 30 32 35 38 41 43 46 50 54 57 61 64 67 70 73 77 82 86 89 89 85 81 78 77 77
6 5 6 7 9 11 13 15 17 18 19 20 20 21 22 22 24 26 28 31 34 37 40 42 45 48 51 55 58 62 65 67 70 74 78 83 87 88 86 81 77 76 76 76
5 4 4 6 8 11 13 15 16 18 19 20 20 20 22 23 25 27 30 32 36 39 41 44 46 49 53 56 59 63 65 68 71 75 79 84 86 86 83 78 75 75 76 75
5 3 3 4 7 10 12 14 16 17 18 19 21 21 23 25 27 29 32 35 37 40 42 45 47 50 53 56 60 63 66 69 72 75 80 84 85 83 80 76 74 75 75 74
5 3 1 3 6 8 11 13 14 16 18 20 22 23 26 28 30 32 34 37 39 41 43 45 48 51 53 57 60 64 66 69 72 76 80 83 84 81 77 74 73 74 73 72
6 4 1 2 5 7 9 12 14 17 19 21 23 25 28 30 33 36 38 40 42 43 45 47 49 51 54 57 61 64 67 69 72 76 80 83 82 79 75 72 72 73 72 70
8 6 3 1 3 6 8 11 15 18 19 21 23 26 29 32 35 38 41 43 46 47 48 49 51 53 55 58 61 64 67 69 72 76 80 82 80 76 73 71 71 72 71 70
9 7 4 2 3 5 8 11 14 16 18 21 24 27 30 34 37 40 43 46 49 52 53 53 54 55 57 59 62 65 67 69 72 76 79 81 79 75 71 70 71 71 70 69
11 9 6 4 3 4 7 10 13 16 20 22 25 28 32 35 38 41 45 48 51 55 56 57 57 57 58 60 63 65 67 69 72 76 78 79 77 74 70 69 69 69 69 68
12 11 9 7 5 5 7 10 14 17 21 24 27 30 32 35 38 42 46 49 53 56 59 60 61 60 60 61 63 65 67 69 72 75 78 78 76 72 69 68 68 68 68 68
14 13 11 9 8 7 9 11 14 17 19 23 26 30 34 36 40 43 46 50 54 57 61 63 64 64 63 63 64 66 67 68 71 75 77 77 75 72 68 67 66 66 66 67
16 15 14 12 11 10 11 12 15 17 20 23 26 29 34 37 40 44 47 51 54 58 62 64 66 67 65 64 65 66 67 68 71 74 76 77 74 71 68 66 65 65 65 66
19 18 17 15 14 13 13 14 17 19 21 24 27 30 33 37 40 44 48 51 55 59 62 65 67 69 68 66 66 67 67 68 70 73 76 76 74 70 67 65 64 64 64 65
21 21 20 19 17 16 16 17 19 21 24 26 28 32 35 38 41 45 48 52 55 59 63 66 68 70 70 68 67 67 67 68 70 73 75 76 74 70 67 64 63 63 63 64
24 23 23 22 21 20 19 20 21 23 26 28 30 32 36 38 42 45 48 52 56 59 63 67 69 71 72 70 68 68 68 68 69 72 74 75 73 70 66 63 62 62 62 63
26 26 26 25 25 25 22 22 23 24 27 30 32 34 38 40 42 46 48 52 56 59 63 67 70 72 73 72 69 68 68 68 69 71 73 74 73 70 66 63 61 61 61 61
29 30 30 29 28 28 25 26 27 27 29 31 33 36 39 42 43 47 49 52 56 59 63 66 69 72 74 73 71 69 68 67 68 70 72 73 72 69 66 62 60 60 60 60
32 33 34 33 33 31 28 29 30 31 30 33 35 37 40 43 45 46 49 52 55 58 62 65 69 71 73 74 72 70 68 67 67 68 70 72 72 69 65 62 60 58 59 59
35 36 37 37 37 35 31 32 34 36 35 35 37 39 41 45 48 49 51 52 55 58 62 65 68 71 73 74 73 70 68 67 66 67 69 71 71 69 65 62 59 58 57 58
37 39 40 40 41 39 35 36 38 39 39 40 41 42 44 46 49 51 52 53 55 57 61 64 67 69 72 74 73 70 68 66 66 66 68 69 70 68 65 62 59 57 56 56
40 42 42 43 43 40 38 39 40 42 42 42 44 45 46 47 49 51 52 53 54 56 60 63 65 68 70 72 73 71 68 66 65 65 66 68 69 68 65 61 58 56 54 54
42 43 45 46 43 40 39 41 43 45 45 45 46 47 47 48 49 51 52 53 53 55 58 62 64 66 69 70 73 71 68 66 64 64 64 66 68 68 66 61 58 55 53 52
45 45 47 46 42 39 40 42 44 47 48 48 49 49 49 50 50 51 52 52 52 53 57 60 63 65 67 69 71 71 69 66 64 62 63 64 66 68 66 62 58 54 51 50
49 48 47 47 41 38 39 42 45 47 49 50 51 51 51 52 51 52 52 52 52 52 55 59 61 63 65 67 69 70 69 65 63 61 61 62 64 66 66 64 59 55 52 49
54 50 48 46 40 40 40 39 41 45 49 51 52 51 52 52 52 51 52 51 51 51 54 57 60 61 63 65 67 69 68 65 62 60 60 60 62 64 64 63 60 55 52 50

GEFSCGP_500_meanwind_036.txt.gz
Wind_Speed
9 7 6 5 6 7 9 9 9 10 10 11 12 13 14 16 18 19 21 23 25 27 30 32 35 38 41 44 46 48 49 51 53 55 58 62 65 68 72 77 83 89 94 94
9 7 6 6 6 7 8 8 8 8 9 11 12 13 14 16 18 20 22 24 26 29 31 34 38 41 43 46 48 50 51 52 54 56 59 63 66 69 73 79 84 91 93 92
9 8 6 6 6 7 7 7 7 7 8 9 11 12 13 16 18 20 23 25 28 31 34 37 40 43 46 49 52 54 54 55 56 58 61 64 67 70 75 80 86 91 92 88
10 9 8 8 8 8 8 7 7 7 7 8 9 10 12 15 18 20 23 26 29 33 36 40 42 45 48 51 54 57 58 59 59 60 63 66 69 72 76 81 87 90 89 84
10 10 10 9 9 9 8 7 7 7 7 8 9 10 12 14 17 20 23 26 29 33 37 41 44 47 50 53 56 59 62 63 63 63 65 67 70 73 77 82 87 89 86 81
12 12 12 11 10 10 10 9 8 8 8 8 10 12 13 16 18 20 23 26 29 33 37 41 46 49 52 55 58 61 64 66 67 67 67 69 71 74 77 82 87 88 84 78
14 14 14 13 12 12 11 11 10 9 9 9 10 12 14 16 18 21 24 27 30 34 38 42 47 51 54 57 60 63 66 69 70 70 70 71 73 75 78 83 86 86 82 76
16 15 15 15 15 14 13 13 12 12 11 11 11 12 14 16 19 22 25 29 33 36 39 43 48 52 55 58 61 64 67 70 73 73 72 73 74 76 79 83 86 85 81 75
19 17 17 17 17 16 16 15 15 15 14 14 14 15 15 17 20 23 27 30 34 37 41 44 49 53 56 60 62 65 68 71 74 75 75 74 75 76 79 83 85 84 79 74
21 20 18 19 20 19 19 18 18 17 17 18 17 19 20 21 24 26 29 32 35 39 43 46 50 53 57 61 64 66 69 72 75 77 77 76 76 77 79 82 84 83 78 73
22 23 20 21 21 22 22 21 21 21 21 22 22 21 23 24 27 29 33 36 39 42 45 48 51 54 57 61 64 67 69 72 75 78 78 77 76 77 79 82 84 82 78 72
24 24 23 22 24 25 25 24 24 24 24 24 26 24 26 27 28 30 33 37 40 43 47 49 52 55 58 61 64 67 69 72 75 78 79 78 77 77 79 81 83 82 77 72
25 26 26 25 26 27 27 26 27 28 28 27 28 26 29 30 31 33 35 37 41 44 48 51 53 55 58 60 64 67 69 72 74 78 80 79 78 77 78 80 82 81 76 71
28 28 27 28 29 28 29 30 31 32 31 31 30 28 29 34 35 37 40 41 44 47 50 53 55 56 58 60 63 66 68 71 74 77 80 80 78 77 78 80 81 80 75 70
30 29 29 29 31 33 33 33 34 35 34 35 33 33 31 35 37 39 42 44 46 49 51 54 56 57 58 60 62 65 68 70 73 76 79 80 79 77 77 79 80 79 75 69
33 32 31 31 33 37 36 33 35 36 36 36 37 36 34 39 39 41 44 46 48 50 52 54 56 58 59 60 61 64 67 69 72 74 77 80 79 77 77 78 79 78 74 69
34 35 35 34 35 39 37 33 35 38 37 38 40 39 40 42 43 43 46 48 49 51 52 55 57 59 59 59 61 63 66 68 71 73 76 79 79 77 76 77 78 78 75 69
36 36 38 39 38 41 35 34 36 39 40 40 42 42 44 46 46 46 48 50 51 52 53 56 58 59 59 59 60 62 65 68 70 72 74 77 79 77 76 75 76 77 75 69
38 38 40 41 42 43 36 34 37 41 42 42 44 45 47 49 49 48 50 51 53 53 55 56 58 59 59 59 59 61 63 67 69 71 73 75 77 77 75 74 75 76 74 70
40 41 42 44 46 47 40 37 39 41 42 42 46 47 49 50 51 51 52 53 54 55 55 57 58 59 59 58 58 59 62 65 68 70 71 73 76 76 75 73 73 74 74 70
44 44 45 45 48 49 42 40 41 41 41 44 46 48 50 52 54 54 54 55 56 56 56 57 58 58 57 57 57 58 61 64 67 69 70 71 73 75 74 72 72 72 73 70
49 49 48 47 50 48 42 42 40 40 41 43 47 49 52 53 54 55 56 56 57 57 56 56 56 56 56 56 56 57 60 63 66 68 68 69 71 73 73 71 70 71 71 69
55 53 52 53 52 48 46 44 41 41 43 45 48 51 53 55 55 56 56 57 57 57 56 55 55 54 55 56 56 57 59 62 65 66 67 67 69 71 71 70 68 68 69 68
60 58 59 58 55 52 50 47 45 45 48 49 51 52 54 56 56 56 57 58 58 58 58 57 55 55 55 55 56 57 59 61 64 65 66 66 66 68 69 68 66 66 67 67
62 64 64 63 59 57 54 53 53 54 53 53 54 55 56 58 58 58 58 59 59 60 60 59 58 57 56 56 57 57 59 61 63 64 64 64 64 66 67 66 65 64 65 67
62 64 66 66 63 65 62 58 58 59 59 58 59 59 59 60 61 61 61 61 62 62 62 63 62 61 59 58 58 59 59 61 62 63 63 63 62 63 65 65 63 62 63 65

GEFSCGP_500_meanwind_042.txt.gz
Wind_Speed
13 13 12 12 12 11 11 10 11 11 10 9 8 8 7 6 6 6 7 8 9 10 12 14 16 19 22 26 30 33 35 38 41 43 45 47 49 52 55 58 60 62 63 65
14 13 14 14 14 14 14 13 13 12 11 11 10 9 9 9 9 9 9 10 10 11 13 15 17 21 24 28 31 34 37 40 43 46 48 50 52 54 57 60 63 65 66 68
14 15 15 15 16 16 17 16 14 14 14 14 13 12 12 12 12 12 12 12 12 12 14 17 20 23 26 29 32 35 38 41 45 48 51 53 55 57 59 62 66 68 69 70
15 16 16 17 17 18 18 18 17 16 17 16 16 16 15 15 15 15 16 15 15 15 17 19 22 26 29 31 34 37 40 43 46 49 53 55 57 59 61 64 67 70 71 72
16 16 17 18 19 19 20 20 20 19 20 20 19 19 17 18 18 18 19 19 18 19 20 23 26 29 32 34 37 40 42 45 48 50 54 57 59 61 63 65 68 71 73 74
17 17 18 19 20 21 22 23 23 23 23 22 22 23 20 20 21 21 22 22 23 23 25 27 29 32 35 38 40 42 44 47 49 52 54 57 60 63 64 67 69 72 74 75
18 19 19 20 21 22 23 25 26 27 26 25 25 26 21 23 24 24 25 25 26 27 28 30 32 35 37 40 42 44 46 48 51 53 55 58 61 63 66 68 70 73 75 76
20 20 21 21 23 24 25 26 28 31 30 29 29 29 23 25 26 26 27 28 30 31 31 32 34 37 40 42 45 46 48 50 52 54 56 58 61 64 66 69 71 73 76 77
23 22 22 23 24 26 27 28 31 34 35 34 33 31 27 27 28 29 30 31 32 33 34 35 37 39 42 44 47 49 50 52 53 55 57 58 61 63 66 69 72 74 76 77
26 25 23 24 26 27 29 30 32 35 38 39 37 34 29 27 30 32 33 34 35 36 37 38 40 42 44 47 49 51 52 54 55 56 57 59 61 63 66 69 72 74 76 78
29 28 26 26 27 28 30 31 33 36 39 42 42 36 31 31 33 35 36 37 39 39 40 42 43 44 47 49 51 53 54 56 56 57 58 59 61 62 66 69 72 74 76 77
31 31 29 28 28 29 31 31 34 37 40 43 46 39 31 34 36 38 39 41 43 42 43 44 45 47 49 51 53 55 56 57 58 57 58 59 61 62 65 68 71 74 76 77
32 33 32 30 30 31 33 33 34 38 41 43 46 42 34 35 38 41 44 46 47 46 45 47 48 49 51 52 54 56 58 58 58 58 58 59 61 62 64 68 71 73 75 76
36 35 34 34 33 35 35 35 35 39 41 43 44 43 37 36 39 44 48 50 50 48 48 49 50 51 53 54 55 57 58 59 59 59 59 59 61 62 64 67 70 73 74 75
39 38 37 36 35 38 40 38 37 39 40 44 44 44 39 38 41 46 49 51 51 50 50 51 52 53 54 55 56 58 59 59 59 59 59 59 60 63 64 67 70 72 74 75
41 42 41 40 38 41 44 40 38 39 41 43 44 44 39 41 44 46 48 50 51 51 52 53 54 54 55 56 57 58 58 59 59 59 59 60 61 63 65 67 69 72 73 74
42 44 45 45 43 45 45 39 39 40 41 42 44 44 43 43 44 46 47 49 50 51 52 54 54 55 55 56 58 58 58 58 59 59 59 60 62 63 66 67 69 71 72 73
45 45 47 50 49 51 46 43 42 42 43 42 43 44 44 45 45 46 47 49 50 51 52 53 54 55 56 57 58 58 58 58 59 60 60 61 63 64 66 67 69 70 71 71
47 47 49 52 54 55 49 44 45 47 46 43 45 46 46 46 47 47 48 49 50 52 53 55 56 57 58 58 59 59 59 59 60 61 62 62 64 66 67 68 69 69 70 69
49 49 52 54 57 58 51 49 49 50 49 46 48 48 48 49 49 49 50 52 53 54 56 58 58 59 59 59 60 60 61 62 63 64 64 64 65 67 67 68 68 68 68 68
52 53 54 55 58 58 52 52 53 53 51 51 52 52 53 53 54 54 55 57 58 59 59 60 60 60 61 61 62 62 63 64 65 66 66 66 66 67 68 68 67 67 67 66
55 56 56 57 59 57 53 55 54 55 56 57 57 57 58 58 58 59 59 60 61 62 63 63 62 62 62 63 63 64 64 66 67 67 67 67 67 67 67 67 66 65 65 64
54 55 57 58 57 55 56 57 57 59 61 62 62 62 62 62 62 62 62 62 63 64 64 64 64 63 63 64 64 64 64 66 67 67 67 67 67 66 65 64 63 63 62 62
51 52 56 57 54 53 55 56 58 60 63 64 64 63 63 63 62 62 62 62 62 62 62 63 63 63 62 63 63 63 63 64 64 64 65 65 64 63 63 61 61 60 59 59
48 49 52 52 51 53 53 54 57 59 61 62 62 62 62 62 62 62 61 61 60 59 60 61 61 61 60 60 60 61 61 61 61 61 61 61 61 60 60 59 58 57 56 55
41 43 46 47 46 50 50 51 52 54 55 57 57 57 57 58 58 57 56 56 56 57 57 57 57 57 57 58 58 57 57 57 58 58 58 57 56 56 55 54 53 53 53 52

GEFSCGP_500_meanwind_048.txt.gz
Wind_Speed
22 22 22 22 22 22 22 22 22 23 23 22 21 19 20 21 19 19 19 19 19 19 20 20 21 22 24 25 27 28 29 31 32 33 35 37 39 41 43 46 48 50 51 52
24 24 23 22 23 23 23 23 23 24 25 25 23 21 22 24 22 22 22 21 21 22 23 23 24 25 26 28 30 31 32 34 35 37 38 39 41 43 46 48 50 52 54 55
24 24 24 23 23 24 24 25 25 26 26 27 27 23 24 26 25 24 24 24 24 24 25 26 26 28 29 31 33 34 35 36 38 40 41 43 44 46 49 51 53 55 56 57
24 24 24 23 23 25 24 26 27 28 28 28 30 28 20 27 26 25 25 26 26 26 27 28 29 30 32 34 36 37 38 40 41 43 44 46 47 49 51 54 56 57 58 59
22 23 23 22 24 26 26 27 29 29 30 30 29 33 23 26 27 27 27 28 28 29 29 30 31 33 35 37 39 40 41 42 44 45 47 49 50 52 54 56 58 59 60 60
21 22 23 23 25 27 28 30 31 31 32 31 30 33 28 25 28 28 29 30 30 31 31 32 34 36 38 40 42 43 44 45 47 48 50 52 53 55 56 58 60 61 62 62
21 23 24 25 26 28 30 32 35 35 34 32 32 32 28 26 28 29 30 31 32 32 33 35 37 40 41 43 45 46 47 48 50 51 52 54 56 57 59 61 62 62 63 63
23 24 25 27 28 30 31 33 35 39 38 36 35 34 29 28 28 30 31 33 34 35 37 39 41 44 45 46 48 49 50 51 53 54 55 56 58 59 61 62 63 63 64 64
28 26 27 28 30 31 32 33 35 39 42 41 38 35 31 28 27 28 30 33 36 39 42 44 46 48 49 50 51 52 53 54 55 57 58 59 60 61 62 63 64 64 64 64
31 30 28 29 31 32 34 35 36 39 43 45 41 37 33 30 29 29 31 34 37 41 45 48 50 52 54 54 54 54 56 57 58 59 60 60 61 62 64 64 65 65 65 65
34 34 31 31 32 33 34 35 37 40 42 46 47 41 35 35 34 34 35 38 42 45 48 51 54 56 58 58 57 57 58 59 60 60 61 62 62 63 65 65 66 66 65 66
36 37 35 34 34 34 36 37 39 41 43 45 49 47 37 37 38 40 41 42 44 47 49 52 53 55 56 57 58 58 59 59 60 61 62 62 63 65 66 66 66 66 66 67
38 39 39 38 36 38 39 39 40 42 45 46 49 49 42 43 44 45 46 46 47 48 49 51 52 54 55 56 57 57 58 59 60 61 62 62 64 66 66 66 66 67 67 68
42 42 42 42 40 41 43 42 42 43 45 48 49 50 46 46 49 50 49 50 49 50 51 52 53 54 54 55 55 56 57 59 60 61 62 63 64 66 66 66 67 68 69 69
45 47 46 46 45 45 47 46 44 45 46 50 51 51 50 52 54 54 54 54 54 54 54 54 54 54 55 55 56 56 57 58 59 60 62 63 65 66 67 67 68 69 70 69
48 50 51 50 48 50 52 48 46 47 48 50 53 53 51 54 56 56 57 57 57 56 56 55 56 55 55 56 57 57 57 58 59 61 62 65 66 67 67 68 68 69 68 68
49 51 53 54 52 55 54 48 48 50 50 52 54 54 55 57 57 57 58 58 58 57 57 57 57 57 57 57 58 59 59 61 62 63 64 66 67 67 67 67 68 68 67 66
51 52 55 57 57 59 54 51 51 53 53 52 54 56 57 58 57 57 58 58 58 58 58 58 58 59 59 60 61 62 62 63 63 64 66 67 67 66 66 66 66 65 64 63
48 51 54 57 58 59 54 52 54 56 55 53 55 57 58 58 57 56 57 57 58 58 59 60 61 61 61 62 63 63 63 64 65 65 65 65 65 65 64 63 62 61 60 59
44 46 50 53 56 58 55 53 54 55 56 55 57 57 57 56 56 55 55 56 57 58 59 61 61 61 61 62 63 63 63 63 63 63 63 62 62 61 60 59 58 58 57 56
44 46 47 50 53 54 53 53 54 55 56 56 56 56 55 56 57 57 56 57 57 58 58 58 59 59 59 59 59 58 58 58 58 58 57 57 57 56 56 56 56 56 55 53
44 45 46 49 51 51 51 53 53 54 54 54 54 55 56 57 57 57 57 56 56 55 55 56 55 54 54 55 54 53 53 54 54 54 54 54 54 54 55 55 55 54 53 52
43 44 46 48 49 49 50 51 52 53 53 53 53 53 54 54 55 54 54 53 53 52 52 52 51 50 49 50 51 52 51 52 52 52 53 54 54 54 54 53 53 51 50 49
42 42 44 47 46 47 48 49 49 50 51 51 51 51 51 51 51 50 49 49 49 49 48 48 48 48 48 49 50 51 51 51 52 52 53 54 53 53 53 53 52 51 50 49
41 42 45 47 46 47 46 47 48 49 50 50 50 51 50 50 49 48 47 46 46 47 47 48 48 47 47 49 50 51 51 52 53 53 53 53 54 54 55 55 54 53 52 51
40 44 47 48 48 50 49 48 49 49 49 49 49 49 48 48 48 48 47 47 48 48 48 48 47 48 49 49 50 51 53 54 54 54 55 56 56 56 56 55 54 53 52 50

GEFSCGP_500_meanwind_054.txt.gz
Wind_Speed
28 28 29 29 28 28 27 26 25 25 26 24 21 19 19 25 28 27 26 26 26 26 28 28 27 28 28 29 30 31 32 33 34 34 36 37 38 40 41 43 44 45 46 47
26 27 28 29 29 28 27 27 26 26 26 25 21 18 21 24 26 28 28 28 28 29 30 30 30 30 31 32 33 34 35 36 37 38 40 40 42 43 45 46 48 49 49 50
21 22 24 25 25 26 26 27 26 26 25 24 23 16 19 23 26 28 29 30 30 30 32 33 33 33 33 34 35 37 38 39 40 42 43 44 45 46 47 49 51 52 53 54
17 18 20 21 23 24 24 26 26 26 26 25 25 21 19 23 25 28 29 30 31 32 33 34 35 35 36 37 39 40 41 43 44 46 47 48 49 49 51 53 54 55 57 57
16 16 17 19 21 23 24 26 27 27 27 26 26 25 22 24 25 27 29 30 31 32 34 35 36 37 39 40 42 43 45 46 48 49 50 51 52 53 55 56 57 58 60 60
17 18 18 19 21 24 25 27 28 28 28 27 27 26 24 26 26 27 29 31 31 32 33 35 37 38 40 42 44 46 48 49 51 52 54 55 56 57 59 59 60 61 62 62
18 20 21 22 24 25 27 29 31 32 30 29 28 28 25 28 30 31 31 31 32 32 33 34 36 38 41 43 46 48 50 51 53 55 56 57 59 60 61 62 63 64 64 64
20 21 22 24 25 27 28 30 32 35 35 33 31 29 27 30 32 33 34 35 35 35 35 36 37 39 41 43 46 48 50 52 54 55 57 59 60 62 63 64 65 66 66 66
24 24 24 26 27 29 30 31 34 37 39 38 36 33 28 30 33 36 39 40 39 38 38 38 39 40 41 43 45 47 50 52 54 55 57 59 61 62 63 64 65 66 66 66
28 28 26 27 29 30 32 34 36 38 41 44 43 38 33 34 37 39 41 42 41 40 41 41 41 42 42 44 46 47 49 51 53 55 57 58 60 61 63 64 64 65 65 66
31 31 30 30 30 32 33 34 37 39 41 45 48 46 39 39 40 43 45 45 44 43 43 43 43 43 44 45 46 47 49 50 52 54 55 57 59 61 62 63 63 64 65 65
33 35 35 34 34 35 37 38 39 41 44 46 50 50 41 41 45 49 50 49 48 47 47 46 45 45 45 46 46 48 49 50 51 52 53 55 57 58 59 60 62 63 64 64
36 38 39 38 37 38 40 40 41 43 46 48 50 50 46 46 49 52 53 52 51 50 49 49 48 48 48 48 48 48 48 49 49 50 52 53 54 56 57 59 60 62 63 65
38 38 39 40 39 41 43 42 42 43 45 48 49 49 46 48 51 52 52 52 52 52 51 50 50 50 49 48 48 48 48 49 49 49 50 51 53 55 57 59 60 61 63 64
38 39 38 39 39 41 42 41 41 43 44 47 46 47 47 50 51 51 51 51 51 52 52 52 51 50 49 48 48 48 48 48 48 49 50 52 54 56 57 59 60 60 61 61
36 38 38 37 37 39 39 37 38 40 42 44 45 45 45 48 49 50 50 50 51 51 51 51 50 48 48 48 48 48 48 49 50 51 52 53 54 55 56 56 57 57 57 57
32 34 36 35 35 36 35 34 36 37 38 40 41 43 44 45 46 47 48 49 50 50 49 49 48 47 47 47 48 48 49 50 51 52 52 53 53 53 54 54 55 55 55 56
31 32 35 35 36 36 34 34 35 37 37 38 39 41 43 44 45 46 47 48 48 47 47 47 46 46 47 48 49 49 50 51 51 51 51 51 51 52 53 53 53 53 54 55
30 32 35 36 38 38 34 36 38 38 38 38 39 40 42 43 44 44 45 46 46 47 47 47 47 47 48 48 49 48 49 50 50 50 50 50 51 51 51 52 52 53 54 54
30 32 34 36 38 39 38 39 40 41 41 41 41 42 43 44 45 44 45 46 46 47 48 49 48 49 49 49 49 48 49 49 49 49 49 49 50 51 51 52 53 53 54 55
33 34 36 38 40 40 41 43 43 44 45 45 45 46 46 47 48 48 48 48 48 48 49 49 49 49 50 50 49 49 49 49 49 49 49 50 51 51 52 52 52 54 55 56
36 38 39 41 43 43 45 46 47 48 48 48 49 50 50 50 51 51 51 51 51 51 51 51 50 50 50 50 49 49 49 49 49 49 50 50 51 51 52 53 54 55 56 57
40 41 43 45 45 46 48 50 51 52 52 52 53 53 54 54 54 54 54 54 54 53 53 53 52 50 50 50 51 50 50 50 50 50 50 50 52 53 54 55 56 56 57 57
44 44 46 49 48 49 52 53 54 55 55 56 56 57 58 58 58 57 57 57 56 56 55 54 53 51 51 52 52 53 52 51 51 50 51 52 53 54 55 56 56 56 57 57
47 48 51 53 54 55 56 56 57 58 59 59 59 60 60 60 60 60 59 59 58 57 56 55 54 53 52 52 52 53 52 51 51 51 52 53 53 54 55 55 56 57 57 58
48 51 57 58 58 60 60 61 62 62 62 62 62 63 63 63 62 62 61 60 59 58 57 56 55 54 53 53 53 53 53 52 52 52 52 53 54 54 55 56 56 57 57 57

GEFSCGP_500_meanwind_060.txt.gz
Wind_Speed
21 22 23 24 25 25 25 25 25 25 25 24 23 23 25 25 25 25 26 26 27 27 28 29 29 30 31 33 34 34 35 37 38 39 40 42 43 44 45 45 46 47 48 50
18 19 20 20 20 21 21 21 21 22 22 21 19 22 25 25 25 25 25 26 27 27 27 28 29 29 30 31 33 35 36 37 39 41 42 44 45 46 46 47 48 50 52 53
16 16 16 17 17 18 19 20 19 19 19 19 18 19 25 25 25 25 26 26 26 27 27 28 28 29 29 31 32 34 36 37 39 41 43 44 45 46 46 48 50 53 54 55
14 15 15 16 17 18 18 20 20 20 20 19 20 18 23 27 26 26 27 27 27 27 28 28 29 29 30 31 33 34 36 38 39 41 43 44 46 46 47 50 52 54 56 57
14 14 15 17 18 19 19 20 21 22 23 21 21 21 21 28 28 27 28 29 29 28 29 29 30 31 31 32 33 35 36 38 40 42 44 46 47 48 51 52 54 55 57 59
15 15 16 17 19 20 21 22 23 24 25 24 23 22 22 26 28 30 32 32 32 31 31 32 32 33 34 35 36 37 38 40 42 43 45 47 49 51 53 54 56 57 59 60
16 16 17 19 20 21 23 25 27 28 28 28 27 26 25 28 30 33 34 36 35 35 34 34 35 36 37 37 38 39 41 42 44 45 47 49 50 53 54 56 57 59 60 61
19 18 18 21 22 24 25 26 28 30 30 30 29 29 28 31 33 34 36 38 39 37 36 36 37 38 39 40 41 42 43 45 46 47 49 50 52 54 55 57 58 60 61 62
21 22 21 23 24 26 27 27 29 31 33 34 33 32 31 31 32 35 38 41 41 39 37 38 39 40 42 43 44 45 46 47 48 49 51 52 54 55 56 57 59 60 62 63
23 24 23 23 25 27 29 30 31 33 35 38 36 36 34 33 35 37 39 41 41 39 39 39 40 41 42 43 44 45 46 47 49 50 51 53 55 56 57 58 59 60 62 63
26 27 27 26 26 28 29 30 32 33 35 37 39 35 33 34 35 37 39 40 39 37 38 39 39 40 41 42 43 44 45 47 49 51 52 54 55 56 57 57 58 60 61 62
28 29 29 29 30 31 31 31 31 32 33 35 38 36 33 35 37 38 39 38 38 37 38 39 40 40 41 42 43 44 45 47 48 50 51 52 53 55 56 56 57 58 59 60
30 31 31 30 31 32 31 30 30 32 33 33 35 34 32 35 38 39 39 39 39 39 39 40 41 42 43 44 45 46 47 47 48 49 49 50 52 53 54 55 56 57 58 59
31 31 31 31 30 32 32 31 31 32 32 32 31 32 31 34 37 38 39 39 40 40 41 42 42 43 45 45 46 47 48 48 49 49 50 51 52 53 54 55 55 56 57 58
32 31 30 30 29 30 29 28 29 32 33 34 33 34 35 36 37 37 39 40 41 41 43 44 45 46 47 48 48 49 49 50 50 51 52 52 54 55 56 56 56 57 57 58
31 31 30 29 29 29 27 27 29 31 32 34 35 35 36 38 38 38 40 42 43 44 46 47 48 49 50 50 51 51 52 52 53 54 54 54 55 56 56 57 58 58 58 59
29 30 31 29 29 29 28 28 30 31 32 34 36 37 38 39 40 41 43 45 47 48 49 51 52 52 53 54 54 54 55 55 56 56 57 57 57 57 57 58 58 59 59 59
30 30 31 31 30 30 29 30 32 34 34 36 37 39 40 42 43 45 47 49 51 52 54 55 56 56 57 57 57 57 58 58 58 59 59 59 59 58 58 57 57 57 58 58
30 31 32 33 34 32 31 33 35 37 37 38 40 42 44 45 47 48 51 53 55 57 58 59 60 60 60 60 60 60 60 60 60 60 60 60 59 58 57 57 57 57 57 57
29 31 33 35 37 36 36 38 39 41 43 43 45 47 48 50 52 53 55 58 59 60 62 63 63 63 63 63 62 62 62 61 61 61 60 60 59 58 57 57 57 57 57 57
30 32 33 36 39 39 40 42 44 46 48 49 50 52 54 56 58 60 61 63 64 65 66 66 66 66 65 65 64 63 63 62 61 60 60 59 59 58 57 57 57 57 56 55
33 34 36 39 41 42 45 47 48 50 52 53 55 56 58 60 62 64 65 67 68 68 69 69 69 68 67 66 65 64 63 62 61 60 59 58 58 58 57 57 56 56 55 55
35 36 39 43 44 46 49 51 53 55 56 58 59 61 63 64 66 67 69 70 70 71 71 70 70 68 67 66 65 64 62 61 60 59 58 58 57 57 57 56 55 54 54 54
38 39 43 47 47 49 52 54 56 58 60 61 63 65 66 68 69 70 72 72 73 72 72 71 70 68 66 65 64 63 62 60 59 58 57 57 56 55 54 54 54 53 53 52
40 45 49 52 52 54 55 57 59 61 64 65 67 68 70 72 72 73 74 74 73 72 71 70 69 67 65 63 62 62 61 60 58 57 56 55 54 53 52 52 51 51 51 51
43 50 54 55 56 58 59 61 63 65 66 68 69 71 72 74 74 74 74 73 72 70 69 68 66 65 63 62 61 60 59 58 57 55 54 53 52 51 50 49 49 49 49 49

GEFSCGP_500_meanwind_066.txt.gz
Wind_Speed
17 17 17 17 16 16 16 16 17 17 17 16 16 16 17 18 18 18 18 19 19 19 19 20 20 21 23 24 25 27 28 30 31 33 34 35 36 38 39 41 43 44 46 48
15 16 16 15 15 14 14 14 15 15 15 14 15 16 15 16 17 18 18 19 20 20 21 21 21 22 23 25 26 27 29 30 32 34 35 36 37 38 39 41 43 45 48 50
15 15 15 14 14 14 14 13 13 13 14 15 15 16 16 16 16 18 19 20 20 20 21 22 23 24 25 27 28 29 30 31 33 34 36 37 39 40 41 43 45 47 49 51
14 14 14 14 14 13 14 14 13 12 13 15 17 18 18 17 17 18 19 20 21 22 23 24 25 26 28 29 30 31 32 33 35 36 37 38 40 41 43 45 46 48 50 51
14 14 14 14 14 13 14 15 15 14 15 15 17 19 20 19 19 20 21 22 23 24 25 26 27 29 30 31 32 33 34 34 35 36 38 39 41 42 44 46 48 49 51 53
15 14 14 14 14 15 15 17 17 17 17 17 18 19 21 22 23 23 24 25 25 26 26 26 28 30 32 33 34 34 35 36 37 38 39 41 42 44 45 47 49 50 52 54
16 15 15 15 16 16 17 19 20 20 19 19 19 20 22 24 24 25 26 27 26 26 25 26 28 30 31 32 33 33 34 35 36 37 38 39 41 42 44 46 48 50 52 55
16 15 16 16 17 18 19 20 22 23 22 21 21 22 23 25 26 26 27 27 26 25 25 26 27 29 30 31 31 32 33 34 35 36 37 39 40 42 43 45 47 49 51 53
17 17 17 18 19 20 21 22 23 25 25 24 23 23 25 26 26 26 26 26 25 25 25 26 27 28 30 31 32 32 33 34 36 37 39 41 42 44 45 47 49 51 52 54
19 19 19 20 21 22 24 24 26 27 28 27 25 23 25 26 26 25 25 25 25 25 26 27 28 29 30 31 32 33 35 36 38 39 41 43 44 46 47 49 50 51 53 54
22 21 20 21 22 24 25 27 28 28 28 29 27 23 25 25 25 25 24 25 26 27 28 29 30 30 31 33 34 36 38 40 41 43 44 46 48 50 51 52 53 54 55 56
24 23 22 23 25 26 27 28 28 28 28 28 27 22 23 24 25 25 26 27 29 30 30 31 32 33 35 37 38 40 42 44 46 47 49 51 52 54 55 56 57 58 59 59
25 25 25 25 27 28 29 28 29 29 29 27 26 22 24 25 27 28 28 29 31 32 33 34 35 37 39 41 43 45 47 49 51 53 54 56 57 58 59 60 61 62 63 63
28 28 28 28 29 30 29 28 29 30 29 28 25 23 23 27 28 29 30 31 33 35 36 38 40 42 44 46 48 50 52 54 56 58 59 61 62 63 63 64 65 65 66 67
30 30 30 30 31 31 29 28 29 31 30 31 26 26 26 28 29 31 33 34 36 38 41 43 45 47 49 51 53 55 57 59 61 63 64 66 67 67 68 68 68 69 69 69
32 33 32 31 31 31 29 28 30 30 30 30 29 28 29 30 32 34 36 38 40 42 45 47 49 52 54 56 59 61 62 64 66 68 69 70 71 71 71 71 71 71 70 70
33 34 34 32 30 32 30 30 30 30 30 31 31 31 32 32 34 37 39 41 44 47 49 51 54 56 59 62 64 66 68 69 71 72 73 74 75 74 74 73 73 72 71 70
34 34 35 34 32 31 31 30 30 30 31 32 32 33 34 36 38 40 43 46 48 51 53 56 59 61 64 66 69 71 72 74 75 76 77 77 77 76 75 74 73 72 71 69
33 34 35 35 33 30 29 30 31 32 32 33 34 35 37 39 42 44 47 50 52 55 58 61 64 66 69 71 73 74 76 77 78 79 79 78 78 77 75 73 72 70 69 68
33 34 35 35 34 31 31 33 33 34 35 35 36 38 41 43 46 48 50 53 56 59 62 65 68 70 72 74 76 77 78 79 80 80 79 79 77 76 74 72 70 69 67 65
33 34 35 35 36 34 34 36 36 36 38 38 39 42 45 48 51 53 55 58 61 64 67 69 72 73 75 77 78 79 80 80 81 80 78 76 75 73 71 69 67 65 63 61
32 34 34 35 37 37 37 38 38 39 40 42 45 47 50 52 54 56 59 62 65 68 70 72 74 75 77 78 80 80 80 80 79 78 75 72 70 68 66 64 62 60 59 57
33 34 35 36 37 39 40 40 41 42 45 47 49 51 53 56 58 61 63 66 69 71 73 74 76 77 78 79 80 80 79 78 76 73 70 67 65 63 61 60 58 56 54 53
33 34 36 38 38 41 42 43 44 46 49 51 53 55 57 60 62 65 67 69 71 73 75 76 77 78 77 77 77 77 76 74 71 68 65 62 60 58 56 55 54 52 51 50
33 37 39 40 40 42 44 46 48 50 51 53 55 58 61 64 66 68 70 72 73 75 76 77 78 78 77 76 74 73 71 68 65 62 60 57 56 54 53 51 50 48 47 48
35 39 41 41 42 44 46 48 50 52 54 56 59 62 64 67 68 70 72 73 74 75 76 77 76 76 74 72 70 67 65 63 61 58 55 53 52 50 48 46 45 45 45 44

GEFSCGP_500_meanwind_072.txt.gz
Wind_Speed
22 22 23 24 23 24 23 22 22 21 20 19 19 18 19 19 18 18 19 20 21 21 22 23 24 25 26 26 27 28 28 29 29 30 31 32 33 34 35 37 39 40 42 43
22 23 23 23 23 22 21 20 20 20 19 17 17 17 17 17 18 18 19 20 21 22 23 24 25 26 27 28 29 29 30 31 31 32 32 33 34 35 36 38 39 41 42 43
23 23 23 22 22 21 20 19 19 19 19 18 17 16 17 17 18 20 21 22 23 24 24 25 26 28 29 30 32 32 33 33 33 33 34 34 35 36 37 38 39 40 41 43
23 23 23 22 22 21 20 19 19 18 19 18 18 17 17 18 20 21 23 24 25 25 26 27 29 30 31 33 33 34 34 34 34 34 34 34 35 36 37 38 40 41 43 44
23 23 23 22 22 20 20 19 19 18 19 18 19 20 19 20 21 22 24 25 26 27 28 29 30 31 32 32 32 32 31 31 32 32 32 33 34 35 36 38 39 40 41 43
24 24 23 22 22 21 20 20 20 19 19 19 20 21 21 21 22 23 25 26 27 28 29 30 30 31 31 31 30 30 30 30 31 32 32 33 34 35 36 37 38 40 41 43
25 24 23 23 23 22 21 21 22 21 20 20 21 22 23 23 24 25 26 28 29 29 30 30 30 31 30 30 30 30 31 31 31 32 33 33 35 36 37 38 40 42 44 46
25 24 24 23 23 23 22 23 23 24 22 21 22 23 24 25 26 27 28 29 29 29 29 30 30 30 30 30 30 30 31 31 32 32 33 35 36 38 40 42 44 45 47 49
25 25 24 24 24 24 24 24 25 26 25 24 24 24 25 26 28 28 29 29 29 29 29 29 30 30 31 31 31 32 32 33 33 35 36 38 40 42 44 46 48 50 52 54
26 25 25 25 25 25 26 26 26 27 29 28 26 25 27 27 28 29 29 30 30 30 30 30 31 32 32 32 33 34 35 36 38 39 41 43 45 47 49 52 54 56 58 60
27 27 25 26 26 26 27 27 28 30 30 31 30 27 27 29 30 30 31 31 31 32 32 32 33 34 34 35 36 37 39 40 42 44 46 48 51 53 55 58 60 62 64 66
28 28 27 27 28 28 29 30 30 31 32 33 33 30 29 30 31 32 33 33 33 33 34 35 35 36 37 38 39 41 42 44 47 49 51 53 56 58 61 63 65 68 70 72
30 30 29 29 30 30 31 31 32 33 34 34 33 31 31 32 34 35 35 35 35 35 36 37 38 39 40 41 43 45 47 49 51 54 56 59 61 64 66 68 71 73 75 77
32 32 32 31 32 33 33 33 33 35 36 36 33 31 31 34 36 37 36 36 36 37 38 40 40 42 43 45 47 49 51 54 56 59 61 64 67 69 71 74 76 78 80 81
35 35 34 34 34 35 35 34 34 36 37 38 35 33 32 35 37 37 37 38 38 39 41 42 43 45 47 49 51 53 56 58 61 64 66 69 71 73 76 78 80 81 82 84
36 36 35 35 36 37 37 34 35 37 38 38 37 35 35 36 36 37 38 39 40 42 43 45 46 48 50 53 55 57 60 63 65 68 70 73 75 78 79 81 82 83 85 85
37 37 38 38 37 39 38 35 36 38 38 38 38 37 36 36 36 37 39 40 42 44 45 47 49 51 54 56 59 61 64 67 70 72 75 77 79 81 82 84 85 85 86 86
38 38 40 41 40 41 39 38 38 39 38 38 38 37 36 36 37 39 41 42 44 46 48 50 52 54 57 60 62 65 68 71 74 76 78 80 82 83 85 85 86 86 86 85
39 39 41 43 43 43 39 39 39 40 39 38 37 37 37 38 40 41 43 44 46 49 51 53 55 58 60 63 66 69 72 75 77 79 81 82 84 85 86 86 86 85 84 81
39 40 43 44 45 45 42 40 40 41 40 37 37 38 39 40 41 43 45 46 49 51 54 56 58 61 64 67 70 73 75 78 80 81 82 84 85 86 86 85 84 82 79 75
40 41 42 43 45 45 42 41 39 39 39 38 38 39 40 41 43 45 47 49 52 54 57 59 62 65 68 71 74 76 78 80 81 83 84 85 85 85 84 82 79 76 72 67
41 43 43 44 45 44 42 41 40 40 40 39 40 40 42 43 45 47 50 52 55 57 60 63 65 68 71 74 76 78 80 81 83 84 84 84 83 81 79 76 72 68 65 60
43 43 43 43 43 44 43 43 41 41 40 40 41 43 44 46 48 50 53 55 58 60 63 66 68 71 73 76 78 80 81 83 83 83 82 81 79 75 72 69 65 61 58 55
43 42 42 42 42 42 42 42 41 41 41 42 44 45 47 49 51 53 56 58 60 63 66 69 71 73 74 76 78 81 82 83 83 82 79 77 73 69 65 62 59 56 54 51
41 40 40 41 41 41 41 41 41 41 42 44 45 47 49 51 54 56 58 61 64 66 69 71 73 74 76 78 79 81 82 82 81 78 75 71 67 64 60 56 54 52 50 49
40 40 41 41 41 41 41 41 42 43 44 46 48 50 52 54 57 59 61 64 66 69 71 72 74 76 77 79 80 80 81 79 77 73 69 65 62 58 55 52 49 47 47 45

GEFSCGP_500_meanwind_078.txt.gz
Wind_Speed
26 25 24 24 23 22 22 21 22 22 21 20 21 21 21 19 19 19 19 19 19 19 19 19 19 20 20 21 22 23 25 26 27 28 29 30 31 32 33 33 34 35 35 36
26 25 25 24 22 22 22 21 21 21 20 20 20 20 20 20 19 19 19 19 19 19 20 20 21 22 23 24 25 26 27 28 29 30 31 32 32 32 33 33 33 34 34 34
27 25 25 24 23 23 22 21 21 20 20 19 19 20 20 20 20 19 19 19 19 20 21 22 23 24 25 26 27 28 29 30 30 31 31 31 30 30 31 31 32 32 33 34
28 26 25 25 24 23 22 21 21 21 20 19 20 20 20 20 20 20 20 20 21 21 22 23 25 26 27 28 29 30 30 31 31 30 30 30 30 30 31 31 32 33 34 35
27 26 25 24 24 23 22 22 21 21 21 20 20 20 19 20 20 21 21 22 22 23 24 25 26 27 28 29 30 30 31 31 30 30 30 30 30 31 32 33 33 34 35 37
26 26 25 24 24 23 22 23 23 22 21 21 20 20 20 20 21 22 22 23 23 24 25 26 27 28 29 30 30 30 30 30 30 30 30 31 31 32 33 34 35 36 37 39
27 26 25 25 24 23 23 23 23 23 22 21 20 21 20 20 22 23 23 24 25 26 27 28 28 29 30 30 30 30 31 31 31 31 31 32 33 34 34 35 37 38 40 42
28 27 26 25 24 24 23 23 23 23 23 21 21 21 20 21 22 23 24 25 26 27 28 29 30 30 30 30 31 31 32 32 32 32 33 34 35 36 38 39 41 43 44 47
28 27 26 25 25 25 24 23 23 24 24 23 22 21 21 22 23 25 26 27 27 29 30 31 31 31 31 32 32 33 33 33 34 35 36 37 38 40 41 43 45 47 49 51
28 27 25 25 25 25 24 23 24 24 25 24 23 22 22 23 25 26 27 28 29 30 32 32 33 33 33 34 34 35 35 36 36 37 39 40 41 43 45 47 49 51 54 56
27 26 25 25 25 25 25 24 25 26 26 26 26 23 23 25 26 28 29 30 31 32 33 34 35 35 36 36 36 37 37 38 39 40 42 43 45 46 49 51 53 56 58 61
26 27 26 26 26 26 26 25 26 27 28 28 28 26 25 27 29 30 31 32 33 34 35 36 37 37 38 38 38 38 39 40 41 43 45 46 48 50 52 55 58 60 63 66
28 28 27 27 27 26 26 26 27 28 29 29 29 28 28 30 32 33 34 35 36 37 38 38 39 39 39 39 39 40 41 42 44 46 47 49 52 54 56 59 62 65 67 70
30 29 28 28 28 28 28 28 29 30 30 31 30 30 30 33 34 35 36 37 38 39 39 39 40 40 40 40 41 42 43 45 47 49 51 53 55 58 60 63 66 69 72 75
32 31 30 30 30 30 30 30 30 31 31 34 33 32 32 36 37 37 38 39 40 40 40 40 40 41 41 42 43 44 46 48 50 52 54 56 59 62 65 67 70 73 76 78
33 33 32 32 32 33 33 31 32 33 34 36 37 35 35 37 38 39 40 40 40 40 41 41 42 42 43 44 45 47 49 50 53 55 57 60 63 66 68 71 74 76 79 81
34 34 34 34 34 36 36 31 33 35 35 37 38 38 38 38 39 40 41 41 42 42 42 42 42 43 44 46 47 49 51 53 55 58 60 63 66 69 72 74 77 79 81 82
35 35 36 37 36 39 37 34 35 37 37 38 39 40 40 41 41 41 41 42 42 42 42 43 44 45 46 48 49 51 53 56 58 61 64 67 70 72 75 77 79 81 82 83
36 36 37 39 40 41 38 37 37 39 38 38 40 41 42 42 42 41 40 41 41 41 42 44 45 46 48 50 51 53 56 59 61 64 66 69 72 75 77 79 81 82 83 83
37 37 39 40 42 43 39 37 38 39 39 38 39 40 40 40 40 40 40 40 41 42 43 44 46 48 50 52 54 56 59 61 64 66 69 72 75 77 79 80 82 82 83 82
37 39 40 41 43 44 41 39 39 39 40 38 38 39 39 39 39 40 40 41 41 42 44 45 47 49 52 54 56 59 61 64 66 69 71 74 76 78 80 81 82 82 82 80
38 40 40 41 43 44 42 42 41 41 40 39 38 38 38 39 39 40 41 42 43 44 46 47 49 51 54 56 59 61 64 66 69 71 73 75 77 79 80 81 81 81 79 76
39 40 41 42 43 44 44 44 43 42 41 40 40 39 39 39 39 40 41 42 44 46 47 49 51 53 56 59 62 64 66 69 71 72 74 76 77 79 80 81 80 78 75 72
39 40 41 41 42 43 44 44 43 43 42 41 40 40 39 39 40 40 42 43 45 47 49 51 53 56 58 61 64 66 69 71 73 74 75 77 78 79 79 79 77 74 70 66
39 40 41 42 42 43 42 42 42 42 42 41 40 40 40 40 41 42 43 45 47 49 51 54 56 58 61 63 66 68 71 72 73 75 77 78 79 79 78 76 73 69 65 62
39 39 40 41 41 42 42 42 42 42 42 41 41 41 41 42 43 44 46 47 49 52 54 56 59 61 63 66 68 70 72 73 75 77 78 79 79 78 76 72 67 63 60 57

GEFSCGP_500_meanwind_084.txt.gz
Wind_Speed
37 36 33 33 33 32 31 29 28 28 28 25 25 24 23 23 22 22 22 22 21 20 20 20 20 20 20 21 21 22 22 23 24 26 27 28 28 29 30 30 31 31 32 32
39 36 34 34 33 32 30 29 29 29 28 26 25 24 24 23 22 22 22 21 21 20 20 20 20 20 21 21 22 23 23 24 26 26 27 28 29 29 30 30 31 31 31 31
38 35 35 35 33 32 30 29 29 29 28 27 27 25 24 23 22 22 22 21 21 20 20 20 20 21 22 22 23 23 24 26 27 27 28 29 29 30 30 30 31 31 31 31
39 37 36 35 34 33 31 29 29 29 28 26 26 25 23 22 22 22 22 21 21 21 21 21 21 22 23 23 24 25 26 27 28 29 30 30 30 31 31 31 31 32 32 33
37 36 36 34 33 32 31 29 28 28 28 27 24 27 23 22 21 22 22 22 21 21 22 22 22 23 23 24 25 26 28 29 30 30 31 32 32 32 32 33 33 34 34 35
35 36 36 34 32 32 31 29 29 28 29 27 23 27 25 21 20 22 22 22 22 22 23 23 23 24 24 25 27 28 29 31 31 32 33 33 34 34 34 34 35 36 36 37
34 36 35 34 33 32 30 28 29 28 28 27 24 26 26 22 21 22 22 23 23 23 23 24 24 25 26 27 28 30 31 32 33 34 34 35 36 36 37 37 38 38 39 40
35 35 35 33 32 30 29 29 28 27 27 27 25 24 23 21 23 23 23 23 23 24 25 25 26 26 27 29 30 32 33 34 35 36 36 37 38 38 39 40 41 41 42 43
35 36 34 32 30 30 29 28 26 28 28 28 27 24 22 21 23 25 24 24 24 25 26 27 27 28 29 31 32 34 35 36 37 38 39 39 40 40 41 41 42 43 44 46
34 35 34 32 31 30 29 27 27 29 28 28 26 25 24 20 23 25 26 26 26 27 27 29 30 31 32 33 35 37 38 38 39 40 41 41 41 42 42 42 44 45 46 48
32 34 33 31 30 29 29 28 28 29 29 28 26 25 25 23 23 25 27 27 28 29 29 30 32 33 35 37 38 39 40 40 41 42 42 42 42 42 43 44 46 47 49 51
30 32 31 30 29 30 29 28 27 28 28 28 28 27 26 25 26 27 29 29 30 31 32 33 34 36 38 39 40 41 42 42 43 43 43 43 44 44 46 47 48 49 51 53
29 31 31 31 30 30 29 26 26 27 29 29 28 27 26 27 28 29 30 31 32 33 34 36 37 39 40 41 42 43 43 44 44 44 45 45 46 47 48 49 51 52 54 55
29 30 30 30 30 29 28 27 27 29 29 29 27 27 27 29 30 31 32 33 34 35 36 38 39 41 42 43 43 44 45 45 46 46 46 47 48 49 50 52 53 55 56 58
30 30 30 31 32 30 29 28 28 29 29 29 28 28 28 32 34 33 34 35 36 37 38 40 41 42 43 44 45 45 46 46 47 47 48 49 50 51 52 54 55 57 59 61
32 32 32 32 32 32 31 30 29 29 29 30 30 30 29 34 36 36 37 38 39 39 41 42 43 44 45 45 46 46 47 47 47 48 49 50 51 53 54 56 57 59 61 64
33 33 33 33 33 34 34 30 30 30 30 32 33 31 33 35 36 37 39 40 41 42 43 44 44 45 46 46 46 46 47 47 48 49 50 51 53 55 56 58 60 62 64 66
35 34 35 35 35 38 32 30 30 31 31 32 33 33 35 35 36 38 40 41 43 43 44 44 45 45 45 46 46 47 47 48 49 50 51 53 55 57 58 60 63 65 67 69
35 36 36 37 37 36 33 32 31 32 32 31 33 35 37 37 39 39 41 42 43 44 44 44 44 45 45 46 46 47 48 49 50 52 54 55 57 59 61 63 65 67 69 71
35 36 38 38 39 38 34 33 33 34 34 32 34 36 38 38 39 40 41 43 43 43 43 44 44 45 46 46 47 48 49 50 52 53 55 57 59 61 63 66 68 70 72 73
35 37 38 38 39 38 36 34 34 35 34 34 35 36 37 39 40 41 42 42 43 43 43 44 44 45 46 47 48 49 50 52 54 55 57 59 61 64 66 68 70 72 74 75
35 36 37 38 39 37 34 35 36 37 37 37 37 37 38 39 40 41 42 42 43 43 44 44 45 45 46 48 49 50 52 54 56 57 59 61 64 66 68 70 72 74 76 77
34 34 35 36 36 36 36 36 36 37 38 38 38 39 39 40 41 41 41 42 43 44 44 45 45 46 47 49 50 52 54 56 57 59 61 63 66 68 70 72 74 76 78 80
34 34 34 35 35 35 35 36 38 39 39 39 40 41 41 41 41 41 42 43 44 44 45 46 46 47 49 50 52 54 56 58 59 61 63 66 68 70 72 74 76 78 80 81
34 33 33 34 35 35 35 37 38 39 40 40 41 41 41 42 42 42 43 44 44 45 46 47 48 49 50 52 54 56 58 59 61 64 66 68 71 73 75 76 78 80 81 82
33 33 33 34 35 36 37 37 39 40 41 41 42 42 42 42 42 43 44 45 45 46 47 47 49 50 52 54 55 57 60 62 64 66 69 71 73 75 78 79 79 80 80 79

GEFSCGP_500_meanwind_090.txt.gz
Wind_Speed
39 40 38 37 38 38 39 40 39 39 40 41 38 35 34 35 32 30 29 29 28 27 27 26 25 24 24 24 24 24 24 25 25 26 26 27 28 28 29 30 31 31 32 32
38 38 37 39 40 40 39 39 39 39 41 42 39 36 34 35 34 31 30 29 28 27 27 26 25 25 25 25 24 24 25 25 26 26 27 28 28 29 30 31 32 32 33 33
36 33 36 38 39 40 39 39 38 39 40 42 40 36 34 35 34 32 29 29 28 28 27 26 25 25 25 24 24 25 25 26 26 27 28 29 29 30 31 32 33 33 34 34
36 34 36 37 38 38 38 38 39 39 41 41 41 39 32 33 32 31 30 29 28 28 28 26 25 25 25 25 25 25 26 26 27 27 29 29 30 31 33 34 34 35 35 36
34 33 35 36 36 38 39 38 39 40 41 41 38 40 32 31 31 30 30 28 28 27 27 26 25 25 25 25 26 26 27 27 28 29 30 31 32 33 34 35 36 37 37 38
34 34 35 35 35 37 38 38 40 41 41 40 34 38 34 28 29 30 30 29 28 27 26 26 25 26 26 26 27 27 28 29 30 30 31 32 33 35 36 37 38 39 40 40
33 33 34 34 35 36 37 37 39 40 40 39 35 38 34 28 27 29 29 28 28 27 27 26 26 26 27 27 28 29 29 30 31 32 33 34 35 37 38 39 40 40 41 42
33 32 32 32 32 34 35 37 39 40 40 38 36 36 32 28 27 28 28 27 27 27 27 26 26 27 27 28 29 30 30 31 32 34 35 36 38 39 40 41 42 42 43 44
32 32 31 32 31 33 35 36 36 38 38 38 37 35 31 27 26 27 27 27 26 26 26 26 26 27 28 29 30 30 31 33 34 36 37 38 40 41 42 43 44 45 45 45
31 32 31 31 33 34 34 34 36 37 38 37 36 33 30 26 26 25 25 25 26 26 26 26 27 28 29 30 31 32 33 35 37 38 40 41 42 43 44 45 46 46 47 47
31 32 31 32 32 32 34 34 35 37 38 37 35 31 27 26 25 24 25 25 25 26 26 27 28 29 30 31 33 34 36 37 39 40 42 43 44 45 46 47 47 47 48 49
29 31 32 31 31 33 35 35 34 36 36 36 35 31 27 27 26 26 26 26 26 26 27 28 29 30 32 33 35 36 38 39 41 42 44 45 46 47 47 48 48 49 49 50
29 30 30 31 32 32 33 32 33 34 36 36 35 31 27 28 28 28 28 28 28 28 28 29 30 32 33 35 36 38 39 41 43 44 46 47 47 48 49 49 50 50 50 51
29 29 28 27 26 28 29 30 31 34 35 34 32 29 27 28 29 30 30 30 31 31 31 32 32 33 35 37 38 40 42 43 45 46 47 48 49 49 50 50 50 51 52 52
28 27 26 26 26 28 28 29 30 32 32 32 29 29 26 28 31 32 32 32 33 33 33 34 34 35 37 39 40 42 44 45 46 47 48 49 49 50 50 51 51 52 53 54
28 27 27 28 28 29 30 29 30 31 31 31 30 28 26 30 32 33 33 33 33 34 35 36 37 38 39 40 42 44 45 46 47 48 49 49 50 51 51 52 53 54 55 56
29 28 28 28 28 31 32 28 29 30 30 31 31 27 28 31 32 33 33 34 35 36 37 37 38 40 41 43 44 45 46 47 48 48 49 50 51 51 52 53 54 55 56 57
30 29 28 28 29 33 27 26 28 29 30 31 32 30 31 32 34 34 35 36 37 37 38 39 41 42 43 44 45 46 46 47 48 49 50 50 51 52 53 54 55 56 57 58
31 30 30 30 31 31 28 27 27 30 30 30 32 32 33 34 35 35 36 36 37 38 39 41 42 43 44 45 45 46 47 47 48 49 50 51 52 53 54 55 56 57 58 59
32 32 33 32 32 32 26 26 28 31 31 27 30 32 33 34 34 34 35 36 38 39 40 41 42 43 44 45 45 46 47 47 48 49 50 51 52 53 55 56 57 58 60 61
32 32 33 32 33 32 28 27 28 31 28 28 30 32 33 33 34 34 35 37 38 39 41 42 43 44 44 45 45 46 47 48 48 49 50 51 53 54 56 57 58 60 62 63
32 33 33 33 34 30 27 30 30 29 30 30 31 31 32 33 34 35 37 38 39 40 41 42 43 44 44 45 45 46 47 48 49 50 51 52 54 56 57 58 60 62 64 66
32 32 32 33 32 30 31 31 31 31 31 31 31 32 33 33 34 35 36 37 38 39 41 42 43 43 44 45 45 46 48 49 50 51 52 54 55 57 58 60 62 64 67 70
32 32 33 34 33 32 32 32 32 32 32 33 33 33 33 33 34 35 36 37 39 40 41 41 42 43 43 45 46 47 49 50 51 52 53 55 56 58 60 62 65 68 71 74
33 33 34 34 33 33 33 33 33 34 34 33 33 33 33 34 35 37 37 38 39 40 41 42 42 43 44 45 47 49 50 51 52 53 55 56 58 60 62 65 68 72 75 80
34 33 33 33 32 34 34 34 34 34 34 34 34 35 35 36 37 38 38 39 40 41 41 42 43 44 45 47 48 50 51 52 53 54 56 58 60 63 66 69 72 76 80 83

GEFSCGP_500_meanwind_096.txt.gz
Wind_Speed
40 41 39 36 38 39 40 40 38 37 40 42 42 40 36 38 38 36 35 35 35 35 36 36 35 34 33 33 33 32 32 31 31 31 31 31 31 31 30 30 31 32 32 33
41 39 35 37 39 40 41 41 39 39 41 44 43 41 38 38 39 39 37 37 37 37 38 37 36 36 35 34 34 33 32 32 32 32 32 31 31 31 31 32 32 33 34 35
38 35 36 38 39 40 40 40 40 41 43 45 46 43 38 37 38 39 39 38 38 38 38 38 37 36 36 35 34 34 34 33 33 32 32 32 32 32 32 33 34 35 35 36
38 37 37 38 38 38 38 38 39 41 43 44 46 47 37 36 37 38 39 39 38 38 38 38 38 37 36 35 35 35 34 34 34 33 33 33 33 33 34 34 35 36 37 37
37 36 36 37 36 37 37 38 40 41 42 43 42 46 39 34 34 35 37 38 38 38 38 38 38 37 36 36 35 35 35 35 35 34 34 34 34 35 35 36 36 37 38 39
38 37 37 37 36 38 38 39 40 41 42 43 39 43 42 33 33 33 35 37 37 37 36 36 37 36 36 36 35 35 36 36 36 36 35 35 36 36 37 37 38 39 40 42
37 36 36 36 36 36 37 37 40 42 43 42 40 41 40 35 33 32 33 35 35 35 35 35 35 35 35 35 35 36 36 36 36 36 37 37 37 38 38 39 40 41 42 44
35 35 34 34 34 34 35 37 39 41 42 41 41 40 35 33 31 31 32 33 34 35 35 35 34 34 34 35 35 36 36 37 37 37 38 38 38 39 40 41 42 43 44 46
34 33 32 33 33 35 36 37 37 40 42 42 41 38 33 30 30 30 31 32 33 34 34 34 33 33 34 35 35 36 36 37 37 38 38 39 40 41 42 43 44 45 46 47
35 35 34 34 36 37 37 37 37 40 41 41 39 34 31 29 29 30 30 32 32 33 33 32 32 32 33 34 35 35 36 37 37 38 39 40 41 42 43 44 45 46 48 49
36 37 36 36 36 35 36 37 38 39 41 41 39 34 30 28 27 27 28 29 30 31 31 32 32 32 32 33 34 35 36 36 37 39 40 41 42 44 45 46 47 48 49 50
36 37 37 36 35 36 37 38 38 38 38 38 39 35 29 28 27 27 27 28 29 31 31 32 32 32 32 33 34 35 36 37 38 40 41 42 44 45 46 47 48 49 51 52
36 39 38 37 35 34 35 34 35 36 38 39 39 33 27 26 26 27 28 29 30 31 32 32 32 32 33 33 34 36 37 38 40 41 42 44 45 46 47 48 49 51 52 52
38 39 37 34 30 30 32 32 33 36 38 38 35 30 26 26 27 29 30 31 32 32 33 33 33 33 34 35 36 37 38 40 41 42 43 44 46 47 48 49 50 51 52 53
39 38 36 34 32 32 32 33 33 35 35 35 31 30 25 26 30 31 32 32 33 33 34 34 35 35 36 36 37 38 39 40 41 42 44 45 46 48 49 50 51 52 52 53
39 38 36 34 33 33 34 33 33 33 32 31 30 27 24 27 30 30 30 31 32 33 34 35 36 36 36 37 38 39 40 41 42 43 44 46 47 49 50 50 51 52 52 52
39 37 36 34 33 35 35 29 29 30 29 29 29 25 26 28 30 30 31 32 32 33 34 35 36 37 37 37 38 39 40 42 43 44 45 47 48 49 50 50 51 51 52 52
40 38 37 35 36 38 30 27 27 28 29 29 29 27 27 28 29 30 30 31 32 33 34 35 35 36 37 37 38 40 41 42 43 44 46 47 49 49 49 50 50 51 53 54
39 38 38 37 38 36 31 26 25 28 28 27 28 27 27 29 30 29 30 32 32 33 34 34 35 36 37 38 39 40 41 43 44 46 47 47 48 48 49 50 51 53 54 54
40 39 38 38 38 36 28 26 26 29 27 24 27 28 29 29 30 28 30 31 32 33 34 35 36 37 38 38 40 41 42 43 45 46 46 47 47 48 49 51 52 53 55 56
39 38 37 36 36 33 28 26 27 29 25 25 28 28 29 29 29 29 30 31 32 34 35 36 37 38 39 40 41 42 43 44 45 46 46 47 48 49 50 52 53 55 56 57
39 38 36 34 36 31 27 28 28 28 29 29 29 29 29 30 30 30 31 32 32 34 35 36 37 38 40 41 42 42 43 44 45 46 46 47 49 50 51 53 55 56 58 59
40 38 36 36 34 31 31 30 30 30 30 30 30 30 30 31 31 32 32 33 34 35 36 37 37 39 40 41 42 43 43 44 45 46 47 48 50 51 53 55 56 58 60 61
39 37 37 36 35 34 32 32 32 32 32 32 32 32 31 31 32 33 33 34 35 35 36 37 38 39 40 41 41 42 43 44 45 47 48 49 51 53 55 56 58 60 62 64
38 37 37 37 35 34 34 33 34 34 34 33 33 33 33 33 33 34 34 34 35 36 37 38 39 40 40 40 41 42 44 45 47 48 49 51 53 54 56 58 60 62 64 68
38 37 36 36 34 35 34 35 35 34 34 34 34 34 34 34 34 34 34 35 36 37 38 38 39 40 41 41 42 44 45 46 48 49 51 53 55 57 59 60 62 65 68 71

GEFSCGP_500_meanwind_102.txt.gz
Wind_Speed
45 45 42 40 40 40 41 42 41 40 42 43 43 42 40 41 42 41 40 39 39 39 39 39 38 37 37 36 36 36 36 36 36 36 35 35 34 34 33 33 34 34 34 34
45 44 39 40 41 42 42 42 41 41 43 45 44 43 40 40 41 42 41 41 41 41 41 41 40 39 38 38 37 37 37 37 37 37 36 36 35 35 34 34 34 34 34 34
44 40 39 41 41 41 41 40 40 40 42 45 46 44 40 38 39 40 41 42 42 42 41 41 41 41 40 39 38 38 37 37 37 36 36 36 35 35 35 35 35 35 34 34
44 43 42 42 41 40 40 39 40 41 42 44 45 46 40 38 38 39 41 42 41 41 42 42 42 42 41 41 40 38 38 37 37 37 36 36 36 36 36 36 36 35 35 35
44 42 41 41 39 39 39 39 39 40 42 43 43 46 41 37 36 37 40 42 42 41 41 41 41 41 41 40 39 39 38 37 37 36 36 36 37 37 36 35 35 36 36 36
45 43 42 40 39 39 38 38 39 40 41 43 40 42 41 35 34 35 37 39 40 41 40 40 40 40 40 39 38 37 37 37 36 36 36 36 36 36 35 35 35 36 36 37
46 44 42 40 39 39 38 37 38 40 41 42 39 40 39 35 33 33 34 36 38 39 39 39 39 39 38 37 37 37 36 36 36 36 36 36 36 36 36 36 36 37 37 38
44 43 40 38 37 36 36 37 38 39 40 40 39 38 34 32 31 32 33 34 36 37 38 38 38 37 37 37 36 36 36 35 35 35 35 35 35 36 36 36 37 38 39 39
42 41 38 36 35 36 37 37 36 38 40 40 39 35 30 28 31 32 32 32 33 34 35 35 36 35 35 35 35 35 35 34 34 35 35 34 35 35 36 37 39 39 40 40
41 41 39 37 37 38 37 36 37 39 40 40 38 33 28 27 28 29 30 30 30 31 32 33 34 34 34 33 33 34 34 34 34 34 34 35 35 36 37 38 39 40 40 41
43 43 41 40 39 37 37 37 37 38 39 39 37 33 27 26 26 27 28 29 29 29 30 30 31 32 32 32 32 33 33 33 33 33 34 34 35 37 38 38 39 40 41 42
42 43 44 42 39 39 39 38 37 38 37 36 36 34 28 26 27 28 29 29 29 29 29 29 29 29 30 30 31 31 32 32 33 34 35 36 36 37 37 38 39 41 43 44
42 45 46 45 43 41 40 37 37 37 37 37 36 32 27 25 26 28 28 29 29 29 29 29 28 29 29 30 31 31 32 33 33 34 34 35 36 37 38 40 42 43 44 45
42 45 45 42 39 37 37 36 36 37 38 36 33 29 27 26 27 27 28 28 28 27 28 28 29 29 30 30 31 32 32 33 34 34 35 35 37 39 40 41 42 43 44 44
43 44 43 41 39 38 37 37 37 37 36 34 30 29 24 26 28 28 28 28 27 26 27 28 29 30 30 31 32 32 33 34 34 35 35 36 38 39 40 41 42 43 44 45
41 40 40 40 39 38 38 37 37 36 34 32 31 27 23 27 29 29 28 28 27 26 27 28 29 29 30 30 31 32 33 34 34 35 36 37 39 40 41 42 42 43 44 45
41 40 39 39 38 39 40 35 34 33 32 32 31 25 25 27 28 29 28 27 26 26 27 28 28 29 29 30 31 32 33 33 34 36 37 38 39 40 41 42 43 44 45 47
44 42 40 40 39 41 35 32 32 32 32 32 30 27 26 27 28 27 27 26 26 26 27 27 28 29 30 30 31 32 33 34 34 35 36 38 39 40 41 42 44 45 46 47
45 43 42 41 40 40 36 32 31 32 30 29 29 27 26 27 27 26 26 26 26 27 27 27 28 28 29 30 31 32 33 34 35 36 36 38 39 41 42 44 45 45 46 47
45 44 43 41 41 40 34 32 31 31 29 27 28 27 27 27 27 25 25 25 26 26 26 27 28 29 29 30 31 32 34 34 35 36 37 39 40 42 43 44 45 46 47 48
46 45 44 42 40 38 34 31 30 30 27 27 28 28 27 26 25 25 25 25 26 26 27 27 28 29 30 31 32 33 34 35 36 37 38 39 41 42 43 44 45 46 48 49
44 44 42 41 41 36 32 30 28 27 28 28 28 27 27 26 26 25 25 25 26 26 27 28 28 29 30 32 33 34 34 35 36 37 39 40 41 42 43 44 46 47 49 51
45 43 41 39 36 32 30 29 28 29 29 28 28 28 27 27 26 26 26 26 27 27 28 29 30 31 32 33 33 33 34 35 37 38 39 40 41 42 44 45 47 48 50 52
43 41 40 39 36 32 31 29 29 29 29 29 29 29 28 28 27 27 27 28 28 29 29 29 30 31 32 32 33 34 35 36 36 38 39 41 42 43 44 46 48 50 52 55
41 40 39 37 35 33 31 30 29 30 30 30 30 30 29 29 29 29 29 29 29 30 30 31 31 32 32 33 34 34 35 36 38 39 40 41 43 44 46 48 50 52 55 57
40 38 37 34 32 32 31 31 32 32 32 31 30 30 30 30 29 29 29 30 30 31 31 31 32 32 33 33 34 35 36 37 39 40 41 43 44 46 48 50 52 54 57 60

GEFSCGP_500_meanwind_108.txt.gz
Wind_Speed
49 51 49 45 44 42 43 44 44 44 45 46 45 44 44 45 45 44 43 42 42 42 42 42 42 41 41 41 41 40 40 40 40 40 39 39 38 38 38 38 38 38 38 37
51 51 46 45 44 44 44 44 44 44 45 46 45 44 42 43 44 44 44 43 43 44 44 44 43 43 42 42 43 42 42 42 42 42 41 41 40 40 39 39 39 39 38 37
51 47 44 45 46 46 45 45 43 43 44 47 47 45 43 42 43 43 43 43 44 44 44 45 45 44 44 43 43 44 43 42 43 43 42 41 40 40 40 40 40 40 39 38
51 48 47 47 47 46 45 42 42 43 45 45 46 48 43 42 42 42 43 42 43 44 44 44 44 44 45 44 45 45 44 44 43 43 42 42 42 41 41 40 40 40 39 38
51 49 49 48 45 44 43 42 43 43 44 45 45 49 44 41 41 41 42 42 42 43 43 43 43 43 43 44 44 44 44 44 43 43 43 43 42 42 41 41 40 40 39 39
50 49 49 47 45 44 43 43 43 43 44 46 42 45 46 41 39 39 39 40 41 41 42 42 43 42 42 42 42 42 43 43 42 43 43 43 42 42 41 41 40 39 39 38
51 50 50 48 47 46 45 44 43 43 45 45 40 43 44 39 37 37 37 38 39 40 40 41 41 41 40 40 40 40 40 40 41 41 42 41 41 41 40 40 39 38 38 38
51 51 49 49 47 46 44 43 43 42 42 42 42 43 40 36 35 34 34 36 36 37 38 39 39 39 39 39 39 39 39 39 39 39 40 40 40 39 39 39 38 38 38 38
51 50 47 47 44 45 44 44 41 41 42 42 43 41 37 34 33 33 33 34 34 35 36 37 37 37 37 37 37 37 37 37 37 38 38 38 38 38 38 38 38 38 38 38
48 48 48 47 46 46 45 42 42 43 43 43 42 40 36 34 32 31 31 31 32 33 33 34 34 34 34 34 34 35 35 35 35 35 36 36 36 36 37 37 37 38 38 39
48 48 48 48 48 45 44 45 45 44 44 43 42 39 35 33 31 30 30 30 30 30 31 31 31 31 32 32 32 32 32 33 33 33 34 35 35 36 36 37 37 37 38 39
45 47 48 46 43 42 43 43 44 45 44 42 41 39 35 33 31 30 29 29 28 29 29 29 29 30 30 30 31 31 31 31 32 32 33 33 34 34 35 35 36 37 38 39
46 49 49 49 47 45 46 45 45 44 43 43 42 39 34 34 31 29 29 29 28 27 27 27 27 28 28 29 29 30 30 31 31 31 31 32 32 33 34 35 36 37 38 38
46 49 51 50 47 44 44 44 43 43 45 43 40 36 34 33 31 30 30 29 28 27 26 26 26 27 28 28 29 29 29 29 30 30 31 32 32 33 34 35 36 37 38 39
46 48 48 48 47 47 45 44 44 44 42 41 38 36 33 33 32 32 30 29 27 27 26 26 26 26 27 27 28 28 28 29 30 30 31 32 32 33 34 35 36 37 38 40
45 47 47 48 48 48 48 46 44 43 42 40 38 35 31 32 33 32 31 29 27 26 25 25 26 26 26 27 27 27 28 29 29 30 30 31 32 33 33 35 36 38 39 40
47 46 46 47 47 48 51 47 44 42 41 39 38 33 32 34 33 32 31 29 27 26 25 25 25 26 27 27 27 27 28 28 29 30 30 31 32 33 34 35 37 38 40 41
49 47 45 45 46 50 46 44 43 41 39 38 37 34 34 33 33 32 31 29 27 26 25 25 25 26 26 27 27 27 28 29 29 29 30 31 32 34 35 37 38 39 40 41
50 48 46 46 47 46 44 42 40 39 38 36 35 34 34 33 33 31 29 29 27 26 25 25 25 26 26 26 27 27 27 28 29 29 30 31 33 34 35 37 38 39 40 41
52 50 48 47 46 45 41 38 37 38 38 34 34 34 33 34 33 29 29 28 27 26 25 25 25 26 26 26 27 27 27 28 30 30 32 33 34 35 36 37 38 40 41 42
51 51 48 46 44 42 40 37 35 37 33 31 33 33 32 32 30 28 28 27 26 26 26 25 25 25 26 26 27 28 28 30 31 32 33 34 35 36 37 38 39 40 42 43
49 49 48 46 45 41 37 36 34 31 31 31 30 30 29 29 28 27 27 26 26 25 25 25 26 26 26 27 28 28 30 31 32 33 34 35 36 37 37 39 40 42 43 45
47 46 44 44 42 38 36 34 32 31 30 29 28 28 28 27 27 27 27 27 26 26 26 26 26 27 28 28 29 30 31 32 33 34 35 36 36 37 38 40 41 42 44 45
44 44 44 43 42 39 36 33 32 32 30 29 28 27 27 27 27 28 28 28 27 27 27 27 27 28 29 29 30 31 32 33 33 34 35 36 37 38 39 40 42 43 44 46
42 44 43 43 40 38 36 32 31 31 30 28 28 27 27 27 27 28 28 28 28 28 28 29 29 29 30 30 31 32 33 34 34 35 36 36 37 39 40 41 42 44 45 47
41 41 41 40 38 36 34 33 32 30 30 29 29 28 28 28 28 28 28 28 28 29 29 30 30 31 31 32 32 33 34 34 35 36 36 37 38 39 40 42 43 45 47 49

GEFSCGP_500_meanwind_114.txt.gz
Wind_Speed
56 58 57 53 51 49 49 50 49 48 48 50 50 49 46 47 47 45 44 43 42 41 40 40 39 38 37 36 36 35 36 35 36 36 36 36 36 37 37 38 38 38 39 38
57 57 52 50 51 51 51 51 50 49 48 50 50 50 48 47 47 45 44 43 43 42 42 42 41 40 39 38 38 38 38 38 38 38 38 38 38 38 38 39 39 40 40 39
55 50 49 51 52 52 51 50 48 48 47 49 51 51 49 47 46 45 44 43 43 42 42 42 42 42 41 40 40 40 40 40 40 40 40 40 40 39 39 39 40 41 40 40
53 50 50 52 52 51 50 47 47 47 47 48 50 52 48 46 45 44 43 43 42 41 41 42 42 42 42 42 42 42 41 41 41 41 41 40 41 40 40 41 41 41 41 40
54 52 52 52 50 49 48 45 46 46 47 48 49 52 48 45 43 42 42 42 41 41 41 41 41 41 41 41 41 41 41 41 41 41 41 41 41 41 41 41 41 41 41 41
51 51 51 49 47 47 46 45 45 46 48 51 48 50 49 42 40 39 40 40 40 40 40 40 40 39 39 39 40 40 40 40 39 39 39 40 40 40 40 41 41 41 41 41
52 52 51 50 50 50 49 48 47 48 50 52 47 48 47 37 37 38 38 39 39 39 39 39 39 39 38 38 38 38 38 38 38 38 39 39 39 40 40 41 41 41 40 40
51 52 52 52 51 51 51 51 51 50 50 48 46 46 42 37 35 35 36 36 37 37 38 37 37 37 37 37 37 37 37 37 37 37 38 38 38 38 39 39 39 39 39 39
50 50 49 49 48 50 50 50 48 47 47 47 47 44 41 38 34 33 33 33 33 34 34 34 34 34 34 34 35 35 35 35 36 36 37 37 37 37 37 38 38 38 38 38
49 49 48 47 48 49 50 48 48 48 47 47 46 43 39 35 32 31 31 30 30 30 31 31 31 32 32 32 33 33 34 34 35 35 35 35 35 35 35 36 36 36 37 37
48 49 48 49 51 50 51 51 50 49 49 47 46 42 35 33 31 30 30 29 29 29 29 29 29 30 30 31 31 32 32 32 32 32 33 33 33 33 33 34 34 35 35 36
49 50 50 49 48 48 49 49 48 49 48 47 44 40 34 32 31 30 28 28 28 28 27 27 27 28 28 29 29 30 30 30 30 31 31 31 32 32 32 33 34 34 35 35
51 52 51 50 50 50 51 50 48 46 47 46 44 40 35 33 31 29 28 27 27 27 27 26 26 26 27 27 28 28 28 29 29 29 29 30 30 30 31 32 33 33 33 34
50 53 52 52 50 48 49 49 49 49 49 46 42 37 34 33 31 29 28 27 27 26 25 24 25 26 26 26 26 27 27 28 28 28 28 29 29 30 30 31 32 32 33 34
48 52 52 50 49 47 47 46 47 48 46 44 38 36 32 31 31 30 30 29 27 25 24 24 24 25 25 25 26 26 26 26 26 27 27 28 28 29 30 31 31 32 32 33
46 49 50 51 50 49 48 46 45 44 44 43 41 38 32 32 33 33 32 29 28 26 25 24 25 25 25 25 25 25 25 26 25 26 26 27 28 28 29 30 31 32 32 33
45 46 49 50 50 50 52 47 46 44 42 42 41 34 32 34 34 33 31 30 28 26 25 25 25 25 25 25 25 25 26 26 26 26 26 27 27 28 29 30 31 32 32 33
46 45 46 49 51 52 48 45 44 43 41 40 38 35 35 33 33 34 33 31 29 26 25 25 25 25 25 25 26 26 26 26 26 26 26 27 27 28 29 30 31 32 33 34
49 45 44 46 50 50 47 45 43 42 40 39 38 36 35 34 36 36 33 31 29 27 27 26 26 26 26 26 26 26 26 26 26 26 26 27 28 28 29 30 31 33 34 35
49 47 44 44 46 48 42 41 40 40 40 37 37 36 35 36 37 32 30 31 30 29 28 27 26 26 25 25 26 26 25 26 26 26 27 27 28 29 30 31 32 33 34 35
45 46 45 42 43 44 40 40 40 39 33 32 35 35 35 35 31 28 31 31 30 29 28 27 26 25 25 25 25 26 26 26 26 26 27 28 29 30 31 32 33 34 35 36
42 46 45 43 44 41 37 38 36 33 32 32 32 33 34 33 31 31 31 30 30 29 28 27 26 25 25 25 25 26 26 26 26 27 28 29 30 31 31 33 34 35 36 37
40 43 44 43 42 38 37 34 32 33 32 31 32 32 32 33 32 32 31 30 29 29 28 27 26 25 26 26 26 26 26 27 27 28 29 30 30 31 32 33 34 35 36 37
40 42 44 45 44 40 35 34 32 32 31 30 30 30 31 30 31 31 31 30 29 28 27 27 26 26 26 26 26 27 27 28 29 29 30 31 31 32 33 34 35 36 37 38
42 42 42 43 44 41 38 34 32 31 29 29 29 29 29 29 29 29 30 30 29 29 28 27 27 27 27 27 27 28 28 29 30 30 31 31 32 32 33 34 35 36 37 38
44 42 41 41 40 39 39 37 34 31 29 29 29 29 28 28 28 28 28 29 29 28 27 27 27 27 27 28 28 28 29 29 30 30 30 31 32 33 34 35 35 36 37 38

GEFSCGP_500_meanwind_120.txt.gz
Wind_Speed
58 61 61 59 58 57 58 58 58 55 54 55 57 55 51 51 52 50 48 46 43 41 40 40 38 37 36 35 34 33 32 32 32 32 32 32 33 34 34 34 35 36 37 37
59 61 56 55 57 58 58 58 57 55 55 56 58 58 55 53 53 51 49 47 44 43 42 41 40 39 38 37 36 35 34 35 34 34 34 35 36 36 36 36 37 38 39 39
59 56 53 56 58 58 59 57 55 54 54 57 59 60 58 54 53 52 50 48 46 44 43 42 42 41 40 39 38 37 37 37 36 36 37 37 37 37 37 38 39 40 40 40
56 55 55 56 57 57 57 54 53 54 54 56 59 61 58 55 55 53 50 48 46 45 45 44 44 43 42 40 40 39 38 38 38 39 39 39 38 38 39 40 41 41 41 40
54 55 56 56 54 54 54 52 53 53 54 56 58 61 60 56 55 53 50 48 47 47 46 45 44 43 42 42 41 41 40 40 39 39 39 40 39 40 40 41 41 41 41 41
50 51 54 54 52 53 53 52 52 53 54 58 57 60 62 55 52 50 49 47 47 47 47 45 44 43 43 42 42 42 42 41 40 40 40 40 40 40 40 40 41 41 40 40
49 51 52 53 55 54 55 55 54 54 57 58 55 59 61 51 48 47 46 46 47 46 45 44 44 43 43 42 41 41 41 41 41 41 40 39 39 39 40 40 40 40 40 40
48 50 51 52 55 55 55 56 57 56 56 55 55 58 55 49 45 44 44 46 46 46 45 45 44 44 43 42 42 41 41 40 40 40 39 39 39 39 39 39 40 40 40 40
47 48 49 51 52 54 55 56 54 54 53 53 55 52 51 48 43 41 42 44 44 44 44 44 44 44 43 43 42 41 41 40 40 39 39 39 38 39 39 39 39 39 39 39
48 46 46 48 52 54 54 53 54 55 54 53 53 50 46 43 40 38 40 41 41 41 41 41 42 42 42 42 41 41 40 40 39 39 38 38 38 38 38 38 38 38 38 38
47 48 45 48 51 52 55 56 55 53 53 52 49 46 41 38 37 37 37 39 39 39 39 39 40 40 40 40 40 40 39 38 38 37 37 37 37 36 36 36 37 37 36 36
44 47 47 45 45 47 52 55 55 54 52 51 47 43 39 37 36 35 36 37 38 38 38 38 38 38 38 38 38 38 37 37 36 36 35 35 35 35 35 35 35 35 35 34
41 45 45 45 46 47 50 53 53 53 52 49 46 42 40 37 34 33 33 35 36 36 37 37 37 37 36 36 36 36 35 35 35 34 34 34 33 34 34 34 33 33 33 33
42 44 45 45 45 46 49 49 51 52 54 51 45 41 41 38 35 33 33 34 35 35 35 36 36 36 35 35 34 34 34 33 33 33 33 32 32 32 32 31 32 32 32 32
43 44 44 44 45 45 47 48 49 52 50 48 44 42 39 39 35 34 34 35 35 35 35 35 35 35 34 33 33 33 32 32 31 31 31 30 30 30 30 30 30 30 30 31
42 44 45 43 44 45 47 48 48 49 48 46 44 42 39 38 37 36 36 36 35 34 34 35 35 34 33 33 32 32 31 30 29 29 29 29 29 29 29 29 29 29 30 30
39 42 45 44 43 46 48 47 46 46 47 46 44 40 39 39 38 37 37 37 36 35 34 34 34 34 33 32 32 31 30 29 28 28 28 28 28 28 28 28 28 29 29 30
37 39 43 43 42 43 43 42 44 43 44 45 45 42 40 39 38 39 39 38 37 36 35 35 34 34 33 32 31 30 29 28 28 28 28 28 27 27 27 28 28 29 29 30
36 37 39 41 41 41 42 41 41 42 44 43 45 44 42 40 42 42 41 40 39 38 37 35 34 33 33 32 31 30 29 28 28 28 28 27 27 27 27 28 28 29 30 30
35 37 39 41 42 40 39 39 41 42 43 43 44 44 42 42 43 41 40 40 39 38 37 36 35 34 33 32 31 30 29 29 28 28 27 27 27 27 27 27 28 29 30 31
31 34 37 39 41 41 39 39 41 42 40 41 42 42 42 42 40 37 39 40 40 39 38 37 36 35 33 32 31 30 29 29 28 28 27 27 27 27 27 28 29 29 30 31
30 31 34 40 41 40 38 39 41 41 42 41 40 41 41 40 39 39 40 40 40 39 38 37 36 35 34 32 31 30 30 29 28 28 28 28 28 27 28 29 29 30 31 32
30 31 32 37 39 39 38 39 39 41 42 41 40 39 40 40 40 39 39 39 39 38 38 37 35 35 34 33 32 31 30 29 28 28 28 28 28 28 28 29 29 30 31 32
30 32 34 37 41 41 39 39 39 40 41 42 40 39 38 39 39 38 38 38 37 36 37 37 36 35 34 33 32 31 30 29 28 28 28 28 28 28 29 29 30 30 31 32
31 33 34 36 39 40 39 39 39 39 40 41 40 40 39 38 38 37 37 38 37 36 36 35 35 34 33 32 31 31 30 29 28 28 28 28 29 29 29 29 30 31 32 32
33 33 35 36 37 38 39 40 40 39 38 40 40 39 39 36 36 36 35 35 36 36 35 35 34 33 33 32 31 30 29 29 28 28 28 29 29 29 29 30 31 31 32 33

GEFSCGP_500_meanwind_126.txt.gz
Wind_Speed
52 55 58 59 59 60 60 60 60 58 58 60 60 61 59 59 58 57 55 54 52 50 48 47 45 44 43 41 39 38 37 37 36 35 34 33 33 33 33 33 32 32 32 32
51 54 54 56 58 58 59 59 58 57 57 59 61 62 62 62 60 59 57 55 54 53 51 50 48 46 44 42 41 39 38 38 37 36 35 35 35 35 34 34 34 34 34 35
49 49 51 55 58 58 59 58 58 57 56 58 61 64 63 63 62 61 60 57 56 54 53 52 50 48 46 44 42 41 40 39 38 37 37 37 36 35 35 35 36 36 37 37
46 46 50 55 57 57 57 55 55 56 57 58 59 63 64 63 63 62 61 59 57 55 54 53 52 51 49 46 45 43 41 40 39 39 38 38 37 36 36 37 38 38 38 38
43 45 49 53 55 56 54 53 54 56 57 57 58 62 63 63 63 61 60 59 57 56 54 53 52 51 50 48 47 45 43 42 41 41 40 39 38 38 38 38 39 39 39 39
41 43 47 49 50 53 53 53 54 55 56 59 57 60 63 62 60 59 58 58 57 55 54 54 53 52 51 50 48 47 45 44 43 42 41 40 39 39 39 39 39 39 39 39
39 41 44 48 49 50 52 53 53 54 56 59 56 60 63 58 56 56 56 56 56 55 55 54 53 52 52 51 49 48 47 45 44 43 42 41 40 40 40 40 40 40 39 39
35 38 42 46 48 49 52 54 55 54 54 55 57 60 59 55 53 54 55 55 55 55 55 54 53 52 51 50 49 48 47 46 44 43 42 42 41 41 41 40 40 40 39 39
34 36 40 43 45 48 51 54 54 52 49 48 53 54 54 54 51 51 52 53 54 54 54 53 52 51 51 50 49 48 46 46 44 43 43 42 42 41 41 40 40 40 39 39
33 34 37 40 42 45 47 49 52 54 52 49 47 47 51 51 48 48 49 50 51 53 53 53 52 51 50 50 49 48 47 46 45 44 43 42 42 41 40 40 40 39 39 38
32 32 33 38 42 43 44 47 50 51 52 50 47 45 44 46 46 46 46 47 49 51 52 52 50 49 49 48 48 47 47 46 45 44 43 42 42 41 40 39 39 38 38 37
31 31 31 33 39 41 42 45 48 49 50 48 46 44 42 41 43 44 44 45 46 48 50 51 50 48 48 47 47 46 46 45 43 42 42 42 41 40 40 39 38 37 37 36
30 31 31 31 36 39 40 42 45 46 46 46 45 45 41 39 39 40 42 43 44 45 47 48 48 47 47 47 47 45 45 43 43 42 42 41 40 39 38 37 37 36 36 35
29 31 33 32 32 37 39 41 42 45 46 44 43 43 41 37 37 37 38 40 42 43 44 45 46 45 45 45 45 44 42 42 41 41 40 39 38 37 36 36 35 35 35 34
29 31 33 34 33 34 36 38 40 43 44 43 40 42 40 39 37 36 36 38 40 41 42 42 43 43 42 42 42 41 41 40 40 39 39 38 37 36 36 35 35 34 35 34
28 30 32 32 33 33 34 35 38 40 42 44 42 41 41 40 39 36 35 36 38 39 40 40 41 41 41 40 40 39 39 38 38 37 37 36 35 35 34 34 34 34 34 33
25 28 30 31 33 33 34 35 35 37 40 42 44 42 42 40 38 37 36 36 37 39 39 39 39 39 39 39 38 38 37 37 36 35 35 34 34 33 33 33 33 33 32 32
24 27 30 31 32 33 31 34 35 36 38 41 44 44 42 40 40 39 39 38 38 39 40 39 39 39 39 39 38 37 37 36 35 34 34 33 33 32 32 32 32 32 31 31
24 25 27 29 31 32 30 32 35 36 38 41 43 44 44 41 42 42 40 40 41 41 41 40 39 39 39 38 38 37 36 35 34 33 33 32 32 31 31 31 31 30 30 30
25 25 26 28 29 30 30 30 33 36 38 40 42 43 44 43 44 42 42 42 41 41 41 40 39 39 39 38 37 36 35 34 33 32 32 31 31 30 30 30 30 30 30 30
24 25 26 28 30 30 29 30 33 35 37 39 41 42 43 44 43 42 43 44 42 41 42 41 40 39 38 37 35 34 33 33 32 32 31 30 30 29 29 29 29 29 29 29
23 23 26 28 31 31 30 31 33 33 36 37 39 41 42 43 43 44 44 44 43 42 42 42 41 39 37 35 35 34 33 33 32 31 30 30 29 29 29 29 28 28 28 28
24 25 26 28 29 31 33 32 34 35 35 37 38 40 41 42 43 44 44 43 43 43 43 42 41 39 37 36 35 34 34 33 31 31 30 29 29 28 28 28 28 28 28 28
25 27 28 29 29 31 34 34 35 37 36 36 37 39 40 40 41 42 43 43 43 43 42 41 40 39 38 36 34 34 33 32 31 31 30 29 28 28 27 27 27 27 28 28
25 28 30 29 29 32 34 35 36 38 38 36 36 38 39 38 39 41 41 42 41 41 41 40 39 38 37 36 34 33 32 31 31 30 30 29 28 28 28 27 27 27 28 27
26 27 30 30 30 34 35 36 37 39 40 38 37 37 38 38 38 39 38 39 39 39 40 40 39 38 37 36 35 34 32 32 31 30 29 29 28 28 27 27 27 28 28 28

GEFSCGP_500_meanwind_132.txt.gz
Wind_Speed
38 41 43 44 46 49 52 53 55 56 55 57 60 62 61 61 61 61 61 59 58 56 54 52 51 50 48 47 45 43 41 39 38 36 35 34 33 33 32 31 31 30 29 29
37 38 37 41 44 48 51 53 53 53 54 56 58 61 61 62 62 61 61 60 59 57 56 54 53 52 51 49 47 45 42 41 39 37 36 35 35 34 33 32 32 31 31 31
35 33 36 40 44 47 50 52 51 50 50 53 56 60 61 62 62 62 61 60 59 58 57 55 54 53 52 51 49 46 44 42 41 39 38 37 36 35 34 34 34 33 33 32
32 31 35 38 41 44 48 49 48 48 50 52 54 58 60 60 62 62 61 60 60 59 58 57 55 54 53 51 50 48 46 44 43 41 40 39 38 36 36 36 35 35 34 33
30 30 32 35 37 41 44 45 47 47 48 51 53 58 59 57 60 61 60 59 59 59 59 58 57 55 53 52 52 50 49 47 45 43 41 40 39 38 38 37 36 36 35 35
28 29 30 30 33 38 42 44 46 47 48 52 52 55 59 56 56 57 58 58 58 58 58 59 58 57 55 54 53 52 51 49 47 45 43 41 39 39 39 38 37 37 37 36
26 27 30 30 32 35 39 42 43 46 50 52 49 54 58 53 52 53 56 56 57 58 59 59 60 58 57 55 54 53 52 51 49 46 44 42 40 40 39 39 39 38 38 38
23 23 27 31 32 35 37 40 42 44 46 49 50 54 53 49 49 51 52 54 55 57 58 59 59 59 58 57 55 54 53 52 50 48 45 43 42 41 40 39 39 39 38 38
23 22 23 28 32 35 36 38 39 41 42 42 47 49 48 47 49 49 49 51 53 54 56 57 58 59 58 57 56 54 53 52 51 49 47 45 43 42 41 40 40 39 39 38
23 22 22 24 28 33 35 35 38 43 42 42 43 44 45 44 47 48 47 49 51 52 54 55 56 57 58 57 56 55 53 53 51 50 48 46 45 44 43 42 41 40 39 39
24 23 21 23 24 28 33 34 36 39 41 41 39 38 37 40 41 44 44 46 48 49 51 53 54 55 55 55 56 55 54 53 52 50 49 48 47 45 44 43 42 41 41 40
22 24 23 23 24 26 29 32 34 37 40 41 39 33 32 37 39 40 42 44 46 47 49 51 53 54 55 55 55 54 54 53 52 50 49 48 47 46 45 44 42 42 41 39
20 23 24 22 23 25 28 31 33 35 36 39 40 34 31 31 34 37 38 40 43 45 47 49 51 53 53 53 53 53 53 53 52 51 50 49 48 47 46 45 44 42 41 40
22 23 24 25 24 25 28 30 32 35 37 37 36 33 32 33 34 34 35 37 39 42 45 48 49 51 51 51 52 51 51 51 51 50 49 48 48 46 45 44 43 42 40 40
23 24 26 26 26 27 28 30 32 34 35 38 36 35 32 33 34 34 33 34 36 39 43 46 47 49 50 50 50 51 50 50 50 49 48 47 46 45 44 43 41 40 39 38
23 24 25 26 27 27 28 29 31 33 34 36 38 36 33 32 31 33 33 32 34 37 41 44 45 47 48 49 49 49 49 48 48 48 47 45 45 45 44 42 41 40 39 37
22 23 25 25 26 27 26 28 31 31 33 36 39 36 35 34 31 31 32 32 34 36 39 41 42 44 46 47 47 48 48 47 46 45 45 44 42 42 42 41 40 39 37 36
21 22 23 24 25 26 24 26 28 29 32 36 38 38 37 36 34 32 32 32 33 35 39 40 40 42 44 45 46 45 46 45 44 42 42 41 40 39 38 38 37 37 36 35
20 21 22 22 23 24 23 25 27 28 29 34 38 39 39 38 36 34 33 34 35 37 39 41 40 40 42 43 43 44 43 43 42 40 39 38 38 37 37 36 35 35 35 34
20 21 22 22 23 23 22 24 27 29 29 32 34 37 39 39 38 35 35 35 35 38 39 40 41 40 40 40 40 41 41 40 39 38 37 37 36 36 35 35 34 34 33 32
19 20 21 21 23 23 22 24 27 27 29 32 32 34 37 38 38 36 35 36 37 38 40 40 40 39 39 39 39 39 38 37 37 36 36 35 35 34 34 33 33 32 31 31
21 21 21 22 23 22 22 25 27 27 29 31 32 33 35 37 37 36 35 36 38 38 38 39 40 40 39 39 38 38 37 36 35 35 34 34 33 33 32 32 31 30 29 29
23 23 23 23 22 23 25 26 27 28 29 31 32 34 35 36 37 38 36 37 39 39 39 39 40 40 39 38 37 36 35 34 33 33 32 32 31 31 30 30 29 28 28 28
23 24 26 25 24 25 27 28 28 29 30 30 31 32 35 35 36 37 38 37 39 40 41 40 40 39 38 37 35 34 34 33 32 31 31 30 30 29 28 27 27 27 26 26
24 26 28 27 26 27 28 30 30 30 31 32 31 31 33 35 35 36 37 38 40 41 41 40 40 39 38 37 35 34 33 32 31 30 30 29 28 27 26 26 26 25 25 25
23 26 28 28 27 29 29 31 31 31 30 32 31 31 32 33 35 36 37 38 40 40 41 41 41 40 39 38 36 34 32 31 31 30 29 28 27 26 26 25 25 24 24 24

GEFSCGP_500_meanwind_138.txt.gz
Wind_Speed
31 31 31 33 34 35 38 40 43 44 47 51 55 56 56 57 59 61 62 63 63 60 58 57 56 54 53 51 49 47 46 44 42 41 39 37 36 36 35 34 34 33 32 31
29 28 28 30 32 34 38 40 40 41 44 49 54 56 56 57 58 60 61 63 63 62 60 59 57 56 55 53 50 49 47 45 43 41 39 38 38 37 36 35 34 33 32 31
26 25 26 28 31 33 34 37 38 39 41 46 51 55 55 56 58 59 60 62 64 63 61 59 58 56 55 54 52 50 48 46 44 42 41 41 40 38 37 35 34 34 33 32
23 23 25 26 29 32 33 33 35 37 39 43 47 53 54 54 56 59 60 61 63 62 61 60 59 57 56 55 53 51 49 47 45 44 43 41 39 37 36 36 35 35 34 33
20 21 23 25 26 30 31 32 33 35 37 41 44 49 52 53 54 57 58 59 60 61 61 60 60 58 56 55 54 52 50 49 47 45 43 41 40 38 37 37 36 35 35 34
20 21 22 22 24 27 29 30 32 34 36 40 40 45 48 50 50 52 55 57 58 59 60 59 59 59 57 56 56 53 52 50 48 46 44 42 40 39 38 37 37 36 35 35
19 19 20 21 23 24 28 29 29 32 36 38 38 42 43 43 45 48 52 55 56 57 58 59 59 59 58 57 56 55 53 51 49 47 46 43 41 40 39 37 37 36 35 34
17 16 17 18 19 21 24 27 29 31 33 34 36 40 38 39 42 46 49 53 56 57 58 59 59 58 58 57 57 56 53 51 49 48 46 45 43 41 39 38 38 37 35 35
17 16 17 17 19 20 21 24 25 27 28 30 33 36 36 37 40 44 47 50 54 56 57 58 59 58 58 57 56 55 54 52 50 48 46 46 44 42 40 39 38 37 36 36
18 17 16 16 18 19 21 22 24 25 26 27 28 31 32 34 35 41 46 48 50 53 56 57 58 58 58 57 56 55 54 53 51 49 46 45 44 43 41 40 39 37 36 36
17 18 16 16 17 19 21 22 24 26 27 27 28 29 29 31 34 37 42 46 47 49 52 55 57 58 57 57 57 56 55 53 52 50 48 46 44 43 42 41 39 38 36 36
17 18 17 16 17 19 21 23 25 27 29 30 29 28 28 30 33 36 39 44 46 47 49 51 53 55 56 55 55 55 54 54 52 51 50 48 46 45 43 41 40 39 38 37
18 18 18 17 17 18 21 23 26 27 29 32 32 28 26 29 32 35 37 40 45 46 48 49 51 53 54 54 54 54 54 53 52 51 50 49 47 45 44 42 41 40 39 38
18 19 19 19 19 20 20 22 24 27 28 31 32 30 26 27 31 34 36 38 42 44 46 47 49 51 52 53 52 53 53 52 52 52 51 50 48 46 45 44 43 42 42 40
18 19 19 20 19 20 21 21 24 26 27 29 30 30 27 27 29 33 36 38 41 42 44 46 48 50 52 52 52 51 51 52 52 51 51 49 47 46 46 46 44 44 43 41
19 20 20 20 20 22 21 21 22 25 27 28 29 28 26 28 28 30 34 36 38 40 42 44 46 49 51 52 52 51 51 51 52 51 50 49 47 46 46 46 45 44 43 42
19 20 20 19 19 21 20 21 23 23 24 27 29 28 28 29 30 31 31 33 35 37 41 43 44 46 48 50 51 51 50 51 52 52 51 50 48 47 46 46 45 44 44 43
17 18 19 18 18 18 18 21 23 24 24 26 28 29 30 29 29 30 30 31 33 34 38 41 43 45 46 47 48 49 50 51 52 51 50 50 49 47 46 46 45 43 43 42
17 18 18 17 18 18 18 20 22 24 25 26 28 29 31 30 29 29 30 31 32 33 36 40 42 44 45 45 46 47 49 50 50 50 50 49 49 48 47 46 45 43 42 41
18 18 19 19 19 19 17 19 21 24 24 28 29 31 32 31 30 28 30 31 32 34 36 38 40 41 43 43 44 45 47 48 48 48 48 47 47 47 45 43 43 42 41 40
19 19 19 20 21 20 19 19 21 22 23 26 28 31 32 32 31 29 30 31 32 34 36 37 38 40 40 41 43 44 44 45 45 45 45 44 44 43 43 42 41 41 41 40
20 21 21 22 23 20 21 21 22 23 24 25 28 31 32 32 31 31 31 32 33 35 36 36 37 38 40 40 41 41 42 43 43 43 43 43 42 42 41 41 40 39 39 38
22 22 23 23 22 22 23 23 23 24 25 26 28 30 32 32 31 31 32 33 33 33 35 37 37 38 39 40 41 41 42 42 42 42 41 41 41 40 39 39 39 38 37 36
23 24 24 23 22 23 25 25 24 25 26 27 29 31 31 31 31 32 32 33 33 34 35 37 38 38 38 39 41 41 41 41 40 40 39 39 39 38 38 37 36 35 34 34
23 25 24 23 23 25 25 26 26 26 26 27 29 32 31 30 30 32 33 34 35 35 35 36 37 37 37 39 41 41 41 40 39 38 37 37 36 36 35 35 34 33 31 31
21 24 25 23 23 25 25 26 27 27 28 28 30 32 32 31 30 30 32 34 36 37 37 36 37 37 37 38 40 40 40 39 38 38 37 35 35 35 33 32 31 31 30 29

GEFSCGP_500_meanwind_144.txt.gz
Wind_Speed
43 40 37 35 34 34 35 34 33 32 34 39 45 47 47 48 52 54 56 58 59 60 61 62 62 60 59 58 57 55 54 51 49 48 46 44 42 40 39 39 39 38 37 35
41 36 34 33 32 32 32 33 32 30 32 35 38 42 43 45 48 51 54 56 58 59 61 62 62 61 61 59 58 56 55 53 50 48 46 44 43 41 40 39 39 38 37 36
37 34 32 31 29 30 31 31 31 29 30 32 36 38 39 41 45 49 52 55 57 58 60 61 61 63 62 60 59 57 55 54 52 49 48 47 45 43 41 39 38 37 36 36
36 32 30 30 28 28 28 27 28 27 28 29 31 35 36 38 42 47 51 54 56 57 59 60 61 62 62 60 59 57 56 54 53 51 50 48 45 42 40 38 38 38 37 37
34 31 29 27 26 26 26 26 26 27 27 28 28 33 32 34 38 43 48 52 54 55 57 59 60 61 62 61 59 58 57 55 54 52 50 49 46 43 42 41 40 39 38 37
31 29 27 26 25 24 24 25 25 26 26 26 24 29 29 30 34 40 45 49 52 54 55 58 60 61 62 62 61 59 58 56 54 53 51 49 47 45 43 42 41 39 39 37
29 26 25 24 22 21 22 22 22 22 23 23 22 25 25 27 31 37 43 46 49 52 55 57 58 59 62 63 62 60 59 58 55 53 51 50 48 46 43 42 41 40 39 38
29 25 23 22 20 19 18 18 19 21 22 22 21 22 23 24 28 33 40 45 48 50 53 55 57 58 60 62 62 60 60 59 57 54 51 49 48 47 44 43 41 40 39 39
31 26 22 20 18 17 17 16 18 20 21 21 21 20 20 22 26 31 37 43 47 48 51 53 55 57 59 60 62 61 59 59 58 56 53 51 49 47 45 44 42 41 40 40
31 27 22 20 18 17 16 16 17 19 21 21 20 19 18 19 21 27 33 39 44 46 49 51 53 56 58 58 60 61 60 58 57 56 54 52 51 48 46 45 43 42 41 41
32 29 24 21 19 18 18 17 17 18 20 21 20 17 16 17 19 23 30 36 41 44 47 51 53 55 56 58 58 60 60 59 57 56 55 53 52 50 48 47 44 43 42 41
32 29 25 22 21 20 19 18 18 19 20 21 21 17 17 17 18 21 26 33 39 42 45 48 52 54 56 58 59 59 60 58 56 55 54 53 52 52 49 47 45 44 42 41
32 30 27 24 23 23 22 20 20 22 22 22 22 19 17 18 19 21 24 30 36 40 43 45 49 52 54 56 57 59 59 58 57 55 54 53 52 52 50 48 46 45 43 42
32 29 28 26 24 25 24 24 23 24 24 24 23 21 18 18 19 20 24 29 34 38 41 43 46 49 53 55 56 57 58 58 57 56 55 53 53 52 51 49 47 45 44 43
31 30 28 26 25 26 26 25 26 26 26 26 23 22 20 20 20 21 23 28 32 36 39 42 46 48 50 54 56 57 57 57 57 57 55 54 52 52 52 51 48 46 45 43
30 29 28 25 24 25 26 25 26 26 27 26 25 24 23 22 22 22 24 27 31 35 37 40 44 48 50 52 55 56 56 56 56 56 54 53 52 52 52 51 49 47 45 45
30 29 27 25 23 24 23 22 23 25 26 27 26 25 24 24 24 24 25 27 31 34 36 38 42 46 49 50 53 54 55 56 56 55 54 53 52 52 52 51 49 48 46 44
30 29 27 25 23 23 21 21 22 23 24 25 25 25 26 25 25 24 26 28 30 33 35 37 40 44 47 48 50 52 54 55 55 54 54 54 53 52 51 51 49 48 46 45
29 28 26 25 24 22 20 20 21 22 23 25 26 26 26 26 25 25 27 29 30 32 34 36 39 43 46 47 49 50 51 53 55 54 54 53 53 53 52 51 50 48 47 46
29 27 26 25 25 23 21 22 22 22 22 23 25 25 26 26 26 26 28 28 30 32 34 36 38 42 45 46 47 49 50 52 53 54 54 53 53 53 52 51 50 50 48 46
28 28 27 26 26 24 22 23 23 23 22 22 23 24 25 26 26 27 29 29 30 32 34 35 37 40 43 45 46 48 49 50 51 52 53 53 52 52 52 51 50 49 48 47
29 28 27 27 28 25 25 24 24 25 23 23 23 24 25 25 26 28 29 30 30 32 33 35 36 38 41 43 45 46 47 49 49 50 51 51 51 51 51 51 50 48 47 47
28 28 29 28 27 26 27 27 26 26 25 24 24 24 25 25 25 26 28 30 31 32 33 34 35 37 39 41 43 45 46 47 48 48 49 49 49 49 49 49 49 48 47 46
28 28 28 28 26 26 27 27 27 27 26 25 25 25 25 25 25 25 26 28 30 31 33 34 36 36 37 38 40 43 44 45 46 47 47 48 48 46 46 47 47 46 45 44
27 27 27 27 25 25 25 26 27 27 27 26 25 25 25 25 25 25 25 27 29 31 32 34 36 37 37 37 39 40 42 43 45 45 46 46 46 46 44 44 44 44 43 41
24 26 27 25 24 24 23 24 25 26 26 26 26 25 25 25 24 25 25 27 28 29 32 33 35 36 37 37 38 39 40 42 43 44 44 45 45 44 43 43 43 42 41 40

GEFSCGP_500_meanwind_150.txt.gz
Wind_Speed
47 46 44 43 40 36 34 35 33 30 32 34 33 31 28 30 34 37 39 42 45 47 51 54 57 61 63 64 65 65 64 64 63 62 61 58 56 54 52 51 50 49 47 46
46 45 44 42 38 35 33 34 32 29 29 31 30 27 26 26 29 33 36 38 41 44 48 52 55 58 61 64 64 64 64 64 64 62 60 58 56 55 53 51 50 49 48 47
46 45 44 41 36 33 31 31 30 28 26 27 27 24 24 24 27 30 33 36 39 41 45 50 53 56 58 61 64 64 64 64 63 62 61 59 57 55 54 52 50 49 48 47
46 45 42 39 34 32 29 28 27 26 26 25 23 22 20 21 25 28 30 34 37 38 42 47 52 55 56 59 62 63 63 64 63 62 60 59 58 55 53 52 50 49 48 47
46 43 40 36 33 30 28 27 26 25 25 23 21 21 19 19 22 25 28 32 35 37 40 45 50 54 55 57 59 61 64 64 63 62 60 60 58 55 53 53 52 49 48 47
45 43 39 35 31 28 27 26 26 25 24 22 19 19 18 17 20 23 25 30 33 35 38 43 48 53 54 56 58 59 62 64 63 63 61 60 59 57 54 52 52 50 48 47
44 41 39 36 31 28 26 25 25 25 23 21 19 17 16 15 18 22 24 27 32 35 37 43 47 51 54 55 57 57 59 62 63 63 61 61 60 57 55 52 51 50 48 46
45 41 39 35 31 27 25 24 24 24 22 21 18 16 15 14 15 20 24 25 30 34 37 42 45 49 54 55 55 57 59 60 62 62 60 60 60 58 54 52 51 50 48 47
45 42 38 35 31 27 25 23 23 23 22 21 20 17 14 14 14 16 21 25 27 31 35 40 44 48 52 55 54 55 57 58 61 62 61 60 59 58 55 52 51 50 49 48
44 42 38 34 31 27 25 24 23 22 23 22 20 17 16 13 14 15 18 23 27 30 33 38 43 47 51 53 53 54 56 58 59 61 61 60 59 58 55 51 50 50 50 48
44 42 38 34 31 28 25 23 22 22 23 23 23 19 17 15 15 16 17 20 24 29 32 36 42 46 49 52 52 54 55 57 59 61 62 60 59 57 54 52 51 50 49 49
43 41 38 35 32 28 26 24 23 23 23 24 25 22 18 16 15 16 18 19 22 27 32 35 40 44 47 50 51 52 54 57 60 61 61 61 59 58 55 52 50 51 50 49
43 41 39 36 32 29 26 24 23 24 25 26 26 23 20 17 16 17 17 19 21 26 31 35 40 44 45 47 48 50 52 54 57 60 61 61 60 59 56 53 51 51 51 49
42 40 38 36 33 29 27 25 23 24 26 26 26 25 21 19 18 18 18 19 21 24 30 34 39 44 45 45 47 47 50 53 54 57 60 60 60 59 57 54 52 50 50 50
42 40 37 35 34 30 28 26 24 24 25 26 25 24 21 20 19 19 19 20 21 24 29 33 38 43 45 46 46 46 48 52 54 55 56 57 58 59 59 56 53 51 50 50
42 40 37 34 33 31 28 25 24 23 23 24 24 22 21 21 21 21 21 21 21 24 28 32 36 41 44 45 46 46 48 51 53 53 53 53 54 56 57 56 55 52 50 49
42 40 38 35 32 31 28 23 23 22 22 22 22 20 21 21 21 23 23 22 22 23 27 31 35 38 41 43 45 47 48 49 50 52 53 53 54 54 56 56 54 51 50 50
41 39 38 36 33 31 28 25 24 24 23 23 23 21 20 21 22 22 24 24 23 24 26 29 34 38 39 41 44 46 48 49 49 51 54 54 53 53 53 54 53 51 50 50
40 38 37 36 34 33 28 26 26 25 23 23 23 22 21 22 21 21 23 24 25 26 27 29 32 36 39 40 43 44 46 48 49 50 52 53 52 52 52 53 52 52 50 49
39 37 36 35 34 33 29 27 26 25 24 23 24 23 23 22 21 21 23 24 24 26 28 30 32 34 38 40 42 44 45 46 48 49 49 51 51 51 51 51 49 48 48 47
37 36 35 35 34 32 29 28 26 25 24 24 23 23 23 22 22 22 24 25 25 25 27 29 31 34 37 39 40 42 45 45 45 47 48 48 47 47 48 49 48 46 46 46
37 36 35 35 34 31 30 29 27 26 25 25 24 24 23 22 23 23 23 25 26 25 27 29 30 33 36 38 39 41 44 45 45 45 46 46 45 46 46 47 47 45 43 43
36 35 35 35 32 31 30 29 28 27 26 26 25 24 24 22 22 23 23 24 25 26 27 29 30 32 36 38 40 42 42 44 45 44 45 46 46 46 45 46 46 45 42 40
35 34 34 34 31 30 30 29 27 26 26 25 25 24 24 22 22 22 23 24 25 26 27 29 30 32 35 38 40 42 43 42 43 44 45 45 46 45 45 45 45 43 41 39
34 34 34 34 32 30 28 27 26 25 25 24 24 23 23 23 22 22 22 23 25 26 26 27 30 32 34 37 39 42 43 43 43 44 44 45 45 45 44 44 44 42 41 40
33 34 34 33 32 30 26 25 25 25 24 23 22 21 22 21 21 21 22 22 23 25 26 27 29 31 33 37 38 41 43 43 43 43 43 43 44 44 44 44 43 42 40 39

GEFSCGP_500_meanwind_156.txt.gz
Wind_Speed
42 43 43 44 45 45 45 43 41 39 38 37 36 35 34 35 37 39 38 37 36 38 40 41 44 47 49 51 53 55 57 58 61 62 62 62 63 64 62 62 60 57 55 54
43 44 43 44 44 44 43 42 40 37 34 35 34 33 32 33 35 35 35 35 35 35 36 37 40 43 45 48 51 53 55 58 60 61 61 61 61 62 61 62 61 59 56 54
44 44 44 43 43 44 41 41 40 38 35 33 34 32 31 32 32 32 32 32 32 33 33 33 37 41 43 45 49 52 52 55 59 61 62 61 62 63 62 61 61 59 57 55
43 43 43 43 43 44 42 40 38 36 34 32 33 35 31 32 30 30 29 28 28 30 31 31 34 37 40 44 47 50 52 53 57 59 61 63 62 63 62 62 61 61 58 55
43 43 43 43 43 43 42 40 37 34 32 32 31 34 32 33 30 29 27 26 25 26 27 29 31 34 38 42 46 48 49 52 56 59 59 61 61 61 63 63 61 59 59 56
43 43 43 42 41 41 41 40 37 34 33 31 31 33 33 32 30 28 25 24 23 24 25 25 27 32 35 39 44 46 48 51 54 57 59 59 59 60 61 61 60 59 57 56
43 43 43 43 41 40 41 41 39 36 34 31 31 33 32 30 29 28 24 23 24 24 25 24 26 29 33 36 41 44 47 50 52 54 57 58 58 58 60 60 59 59 58 56
44 43 43 43 43 42 41 40 38 38 37 33 30 31 30 29 29 28 25 23 23 24 25 25 26 28 31 34 40 43 46 49 51 52 54 56 57 58 60 61 59 59 58 56
44 42 42 41 41 41 40 38 38 38 38 36 33 32 30 29 27 26 25 24 24 23 24 26 27 27 31 34 37 42 46 47 48 50 52 55 56 56 57 58 58 58 57 57
44 43 41 41 41 40 39 38 37 37 38 38 35 33 30 28 27 26 25 25 25 24 24 24 27 28 28 33 37 41 44 47 47 48 49 51 52 56 56 55 58 58 57 56
44 44 41 41 41 40 39 38 38 38 37 38 38 34 31 30 28 26 25 24 25 24 23 24 25 27 29 31 35 40 42 46 49 49 49 48 50 54 55 54 55 55 55 55
44 44 42 41 41 41 39 39 38 38 37 37 38 36 31 30 29 28 26 25 24 24 23 25 25 26 29 32 35 39 40 44 48 50 49 47 48 50 53 54 53 54 54 53
44 44 44 43 43 42 41 39 39 38 38 37 37 35 31 30 29 29 28 27 26 24 23 24 25 25 27 32 35 38 39 43 46 49 48 47 49 50 52 53 52 53 53 52
45 44 43 43 42 42 41 40 39 38 38 38 36 35 31 30 29 27 27 27 26 25 24 24 25 26 27 29 33 36 38 42 45 47 47 47 48 50 52 51 51 51 52 52
45 45 44 43 42 42 41 40 39 39 38 38 36 34 31 29 28 27 26 26 26 25 25 25 26 27 28 28 30 33 37 40 43 45 47 48 47 48 49 51 50 50 50 50
46 46 45 44 43 43 42 40 39 38 38 37 35 32 30 29 28 28 26 25 24 24 25 26 27 28 29 30 31 33 35 37 40 44 46 47 46 47 49 50 51 50 50 49
47 47 47 45 44 44 42 40 40 39 38 36 35 32 30 28 27 28 26 25 24 23 24 26 27 29 29 31 33 35 34 34 38 43 45 46 46 46 48 49 50 51 50 49
47 47 47 47 46 44 42 42 41 40 37 35 34 32 30 28 27 26 25 25 24 24 24 25 26 28 29 31 33 36 36 35 37 41 46 46 44 45 48 49 50 49 49 48
46 46 47 47 48 47 43 42 40 39 36 34 34 32 31 29 27 26 26 25 25 24 24 25 26 28 28 30 32 34 35 36 37 40 43 45 44 44 46 47 49 50 49 47
47 46 46 47 48 48 45 43 41 39 37 34 34 33 31 30 29 26 26 26 26 25 25 25 26 28 29 29 32 33 34 35 36 40 42 43 42 43 45 46 46 47 48 47
46 46 46 46 47 48 45 42 40 39 37 36 35 33 31 31 30 27 26 26 26 26 25 26 27 29 30 30 31 33 34 35 37 41 42 42 41 43 44 45 45 46 47 47
46 46 45 46 46 46 43 41 39 38 38 37 36 34 32 31 29 29 27 27 26 27 27 27 28 29 30 30 32 33 34 35 36 40 41 41 41 43 44 45 45 45 46 46
46 45 46 46 45 43 42 40 39 38 37 36 35 34 32 31 29 28 28 27 27 27 27 28 28 29 29 30 31 33 34 34 35 38 40 41 41 43 44 44 44 45 44 44
46 46 46 46 43 41 40 39 38 37 37 36 35 33 31 30 29 27 26 26 26 26 26 27 28 29 29 29 30 31 33 35 36 38 40 40 40 42 43 44 44 43 44 44
45 45 45 45 42 41 39 38 37 37 36 35 33 32 31 30 28 26 24 24 24 24 24 26 27 29 29 28 28 30 32 34 36 38 39 41 39 40 42 43 44 43 42 43
43 44 44 43 41 41 38 37 37 36 35 34 33 31 29 29 27 25 23 22 22 22 22 24 26 27 27 27 27 29 31 33 35 37 38 39 40 41 42 43 43 42 42 42

GEFSCGP_500_meanwind_162.txt.gz
Wind_Speed
30 31 32 34 35 36 37 38 39 39 40 41 41 41 39 36 36 37 37 37 39 39 40 40 42 43 46 47 49 51 52 56 58 58 58 59 60 63 64 63 62 61 61 61
31 32 33 35 36 37 38 39 39 38 39 40 40 39 36 34 34 35 35 35 36 35 35 36 38 40 42 43 45 48 50 53 55 56 57 57 59 61 63 63 62 61 61 61
32 33 35 36 37 37 38 40 40 40 39 39 40 37 34 33 33 34 34 34 33 33 33 34 36 37 39 40 42 44 48 49 51 54 57 57 58 60 62 63 62 61 61 62
34 34 35 36 37 38 38 39 40 41 41 40 40 38 32 32 33 33 33 33 32 32 32 32 33 34 35 37 39 41 43 46 47 51 54 56 57 58 60 62 61 61 61 62
35 35 36 37 37 38 40 40 40 41 40 39 37 38 34 33 33 32 32 31 30 31 31 30 32 33 34 34 36 38 39 43 45 48 51 55 56 56 58 61 62 59 59 61
35 36 37 37 38 39 40 40 40 40 39 38 37 37 35 34 33 33 32 31 30 29 30 30 30 31 31 31 32 35 38 40 43 45 48 51 54 55 56 59 60 58 58 59
35 36 36 37 37 38 40 41 41 41 40 38 38 37 35 35 34 33 32 31 31 30 29 28 27 27 29 29 30 31 34 37 42 44 46 50 52 53 54 56 56 56 57 58
37 36 36 37 38 39 40 41 41 42 41 39 37 36 35 34 33 33 32 32 31 30 29 28 27 28 28 28 29 30 32 36 39 41 45 48 49 51 53 55 55 54 53 55
37 36 37 37 38 39 40 40 41 42 42 41 39 38 34 33 33 32 32 32 31 30 30 29 27 28 28 29 29 29 31 35 37 39 42 46 47 48 51 53 52 51 51 54
36 37 37 37 37 38 40 40 41 42 43 44 42 39 36 35 33 32 32 32 32 30 30 29 27 27 26 28 29 28 30 33 35 36 39 44 45 46 50 53 51 51 49 51
37 37 37 38 38 38 39 39 40 41 42 44 45 40 37 36 34 33 34 34 33 32 31 29 27 26 26 27 27 27 28 31 34 35 38 42 43 45 49 51 52 51 48 50
38 38 38 38 38 39 39 40 40 41 42 43 45 41 37 36 35 35 34 33 33 32 30 28 27 26 25 25 26 26 27 30 33 35 37 41 42 44 46 49 50 49 48 49
38 39 39 38 39 40 40 40 41 42 43 42 43 41 37 36 35 35 34 33 32 32 30 27 26 26 25 24 24 24 27 29 31 34 35 38 41 43 44 47 47 47 48 48
39 39 39 39 39 40 40 40 40 41 42 42 41 40 37 36 35 34 33 32 31 31 29 27 26 26 25 24 24 25 27 28 30 32 34 34 38 41 42 44 46 47 47 46
40 40 40 39 39 40 40 40 39 40 41 42 41 40 38 36 35 34 33 32 31 30 28 26 26 26 25 24 24 25 26 27 29 33 35 34 34 39 40 41 43 45 46 46
40 42 41 40 40 41 41 39 39 40 40 41 41 39 37 36 35 34 33 32 31 30 28 26 25 25 24 24 23 24 25 26 27 31 34 36 36 37 38 40 42 44 44 45
41 42 43 42 41 42 41 39 39 40 41 41 41 39 37 35 35 34 33 32 31 29 28 26 25 24 24 24 24 25 25 27 28 30 33 35 36 37 38 40 41 43 44 45
42 43 44 45 44 43 41 41 41 41 40 40 41 39 38 36 35 34 33 32 31 29 27 26 24 24 24 26 26 26 26 27 29 31 33 36 37 37 38 40 42 43 43 43
42 43 45 46 47 46 42 42 42 41 39 39 39 39 39 37 35 33 32 32 32 29 27 26 24 24 25 27 27 27 26 27 28 29 32 35 36 37 38 40 42 42 41 42
43 44 45 47 47 47 44 43 43 42 40 39 39 39 38 37 35 32 32 32 31 29 27 26 25 24 24 26 27 27 28 27 27 28 31 33 35 36 37 39 41 41 40 40
44 45 45 46 47 47 44 43 43 42 41 41 40 39 39 37 36 34 33 31 30 28 28 27 26 24 25 26 27 27 28 28 28 29 31 33 34 35 37 38 39 41 40 41
45 45 45 46 47 45 43 43 42 42 41 41 40 40 39 37 35 34 33 31 30 29 28 28 27 26 26 27 27 27 28 28 28 29 31 33 33 34 35 37 38 40 40 40
45 45 46 46 45 43 42 42 42 41 41 40 40 40 39 37 35 34 33 32 30 29 28 27 26 26 26 26 27 27 28 28 28 29 31 32 33 34 35 36 37 38 39 40
45 45 45 45 42 41 41 42 41 41 41 40 40 40 39 37 35 34 33 32 30 29 27 25 25 24 24 26 27 27 27 28 27 28 30 32 34 35 36 36 36 38 38 39
44 44 44 43 41 40 40 41 41 41 41 40 40 40 38 36 35 34 32 30 29 28 26 24 24 23 23 24 26 27 27 27 26 27 28 30 33 34 34 35 35 36 37 37
41 42 42 42 41 42 41 40 41 41 40 40 40 39 37 35 34 33 31 29 28 27 25 23 23 22 22 23 25 26 26 26 26 27 28 30 32 33 34 35 36 36 36 37

GEFSCGP_500_meanwind_168.txt.gz
Wind_Speed
27 28 28 29 29 30 31 32 33 33 34 35 35 36 36 37 38 39 40 40 40 41 42 43 44 45 46 48 50 51 52 53 54 56 58 59 60 62 63 63 62 63 63 63
28 29 29 30 30 31 33 34 34 34 34 36 36 36 36 37 38 39 40 40 40 40 40 40 41 42 42 45 48 49 50 51 52 54 57 59 59 59 60 61 61 61 62 62
29 29 30 30 31 32 34 35 35 35 35 35 37 36 36 37 38 39 39 40 40 40 39 39 39 39 40 42 45 47 48 50 51 52 55 57 57 56 57 58 59 60 60 61
30 30 31 31 32 33 34 35 36 36 36 36 37 37 36 38 39 40 40 40 40 39 39 38 39 38 38 39 42 45 46 48 49 50 52 53 54 53 53 55 57 57 58 59
31 31 31 32 33 35 35 36 37 37 37 37 37 38 37 40 40 40 41 40 40 39 38 38 38 37 37 38 40 42 43 44 45 46 48 50 51 51 50 52 54 56 57 57
32 32 32 33 34 35 36 37 38 37 37 37 37 39 39 41 41 41 41 41 40 39 38 39 38 37 36 37 38 40 40 41 42 43 44 46 49 50 49 50 53 55 56 56
32 32 33 34 34 35 36 37 39 39 39 38 38 40 39 41 41 42 42 42 42 41 40 39 38 36 36 35 37 40 41 40 39 40 41 43 46 48 48 49 51 53 55 55
33 33 34 34 34 35 36 37 38 40 41 40 39 40 40 41 42 43 43 43 42 41 40 39 38 37 37 35 36 38 39 38 37 38 39 41 43 45 47 47 48 51 53 54
34 34 35 35 35 35 36 37 39 41 42 42 41 41 40 41 42 42 42 42 42 42 40 38 37 37 37 37 37 37 36 36 36 36 36 37 39 41 44 46 47 49 51 54
34 35 36 36 35 36 36 38 40 41 43 44 43 42 42 43 42 42 41 41 41 41 40 38 37 37 36 36 36 35 35 36 35 34 34 35 36 39 41 43 45 47 50 52
35 35 36 36 36 36 37 38 40 41 42 45 46 41 43 43 43 43 42 42 41 41 40 38 37 38 36 35 35 35 35 33 31 31 32 32 34 35 36 38 42 44 48 51
36 36 36 36 36 37 38 39 40 41 42 43 45 43 42 43 44 45 44 42 41 41 40 39 39 39 37 35 34 33 32 31 29 28 29 31 32 33 33 35 40 41 44 47
37 37 37 37 37 38 38 39 40 41 42 43 44 43 43 44 44 45 44 43 42 41 41 39 39 39 37 35 33 32 31 30 27 26 27 29 30 30 30 33 37 38 41 44
38 38 38 38 38 38 38 39 40 41 42 44 44 44 41 42 43 44 43 43 42 42 41 40 39 38 37 34 32 31 29 28 25 25 26 27 28 28 29 31 33 35 38 42
39 39 38 38 38 38 39 39 40 41 42 44 44 44 43 43 44 44 43 43 42 41 41 40 39 37 35 33 30 30 28 26 23 24 25 25 27 27 28 30 31 34 37 40
39 40 39 38 38 39 40 39 40 41 42 43 44 44 43 44 45 45 44 43 43 42 40 39 38 37 35 32 29 29 27 24 22 22 23 25 26 27 28 28 30 33 36 38
40 41 41 40 39 41 41 39 40 41 42 43 44 45 45 45 45 45 44 43 43 42 41 40 38 37 34 31 28 27 25 23 22 21 23 24 25 26 27 29 30 32 34 36
41 42 43 43 43 43 42 42 41 42 43 44 45 45 45 45 45 45 45 44 43 42 41 39 38 36 33 30 28 27 25 24 23 21 22 23 24 24 25 27 29 30 32 34
41 43 44 45 46 46 43 43 42 43 43 44 45 45 46 46 44 43 44 44 43 42 41 39 38 35 31 29 27 26 24 24 24 23 22 23 22 23 25 27 30 31 32 31
43 44 45 47 48 48 46 45 44 45 45 44 45 45 45 46 45 42 42 43 42 42 41 39 37 35 31 28 27 26 24 24 24 23 23 23 23 24 26 26 29 32 32 32
45 45 45 47 48 48 47 46 45 46 47 47 46 46 46 46 45 44 43 43 42 42 40 38 37 35 32 29 28 27 25 23 23 23 22 22 23 24 25 26 29 30 31 32
46 46 46 46 48 48 47 47 46 47 47 47 46 46 46 45 45 44 43 43 43 41 40 38 36 34 32 29 28 27 26 25 24 23 23 23 24 25 26 26 28 29 29 30
46 46 46 47 47 47 47 47 47 47 47 46 46 46 46 45 44 44 43 43 42 41 39 37 36 34 30 28 27 26 26 26 25 24 23 23 23 24 25 26 28 29 30 31
46 46 46 47 46 46 47 47 47 47 47 46 45 45 45 45 44 43 42 42 41 40 38 36 35 33 30 28 27 27 26 25 24 23 24 24 24 24 25 26 27 29 30 30
46 47 47 47 46 46 46 46 46 45 45 45 44 44 45 44 43 43 42 42 40 38 36 35 34 32 29 29 28 27 26 25 23 22 23 24 24 24 26 27 28 28 29 31
46 46 46 46 45 46 45 45 45 44 44 44 44 44 44 44 43 43 42 41 40 38 35 34 33 31 29 28 27 26 25 24 22 22 23 24 24 24 25 27 28 28 28 30

GEFSCGP_500_meanwind_174.txt.gz
Wind_Speed
20 20 21 21 22 23 24 24 24 24 25 26 26 27 28 29 31 31 32 33 34 34 35 37 39 40 41 43 44 44 46 48 51 52 53 54 56 58 59 60 61 62 64 65
21 21 21 22 23 23 24 25 25 26 26 27 26 26 27 28 29 31 31 31 32 34 34 35 37 39 41 41 42 42 43 45 48 50 51 52 54 55 57 59 60 61 62 64
22 22 23 23 24 24 25 26 27 27 27 27 28 27 28 29 30 30 31 31 32 34 34 34 35 38 39 40 41 42 42 43 46 48 50 52 54 56 56 57 58 59 60 62
23 24 24 24 25 26 26 27 28 28 28 28 28 29 29 30 30 30 31 32 34 34 34 35 36 38 39 40 41 42 42 44 45 46 50 52 53 54 54 55 56 58 59 60
24 24 25 25 26 27 28 28 29 29 29 29 29 30 30 30 30 31 32 33 35 35 35 36 36 37 39 40 41 42 43 44 45 46 47 49 51 52 52 53 54 56 58 59
25 26 26 26 27 28 29 29 30 29 29 29 29 31 32 32 31 32 32 33 34 35 36 36 37 38 39 40 40 41 43 43 44 46 47 48 50 50 50 51 52 53 56 58
26 26 27 28 28 28 29 30 31 31 31 31 30 31 32 33 33 33 34 34 35 36 37 38 39 39 41 41 40 40 41 42 43 44 46 48 48 48 48 48 50 51 53 55
28 28 28 28 29 29 29 30 30 32 33 33 32 32 33 34 35 36 36 37 37 37 38 40 41 41 41 41 40 40 40 41 43 44 45 46 46 46 47 47 49 50 50 52
29 29 29 29 29 30 30 30 31 33 35 35 34 34 34 35 36 36 37 37 38 38 39 41 41 41 42 42 41 41 41 41 41 42 44 44 44 44 44 44 46 47 48 50
31 31 30 30 30 30 31 32 32 33 36 38 36 35 36 37 37 37 38 39 39 39 40 41 41 41 43 42 42 42 42 41 41 42 43 42 41 41 41 41 41 43 45 46
32 32 32 32 31 31 32 32 33 35 36 38 39 37 38 38 39 39 39 39 39 40 41 42 41 42 43 42 42 42 41 40 40 40 40 39 38 38 37 37 39 40 42 43
33 34 33 33 33 33 33 33 34 35 36 37 39 37 37 38 39 40 40 40 41 40 41 42 42 43 43 43 42 42 40 39 38 37 36 36 35 35 35 35 36 37 38 40
34 35 35 35 34 33 33 33 35 36 36 37 38 37 38 39 40 41 41 41 41 41 41 42 42 43 43 43 42 41 38 37 36 35 34 34 34 34 34 34 35 35 36 37
35 35 35 35 35 35 34 34 35 37 37 38 38 38 37 40 41 41 41 41 42 42 42 42 43 43 43 42 41 39 37 35 33 33 32 32 32 32 32 33 32 33 34 36
36 36 35 34 35 35 35 35 36 37 38 38 38 38 39 40 41 41 41 41 41 41 42 43 43 43 42 41 39 38 37 33 32 31 31 31 30 30 30 30 30 30 31 32
37 37 36 35 35 36 36 36 37 38 38 38 39 39 40 41 42 41 41 41 42 42 42 42 43 42 42 40 38 37 36 33 31 31 31 30 29 28 28 28 28 30 31 30
38 38 38 37 37 38 38 36 37 37 38 39 40 40 41 42 41 42 42 43 43 43 42 42 43 42 41 41 38 37 36 33 32 32 30 29 28 27 25 25 26 27 29 29
38 38 39 39 38 39 38 37 37 38 38 40 40 41 43 43 42 43 44 44 43 43 43 43 43 41 41 40 38 36 35 33 32 31 29 27 26 24 23 24 25 26 26 27
38 38 38 39 40 40 38 38 38 39 39 40 42 43 44 43 42 43 43 43 43 43 43 43 42 42 41 39 37 35 34 33 31 28 26 25 24 23 22 22 22 23 25 25
38 37 39 40 42 41 39 38 39 41 41 41 43 44 45 44 44 43 43 42 42 42 43 43 42 41 40 38 37 36 33 31 29 27 25 24 23 22 21 21 21 22 23 25
39 39 40 41 42 42 40 40 41 42 43 44 45 45 45 45 45 44 44 43 43 43 42 42 41 40 39 38 37 35 31 28 27 26 26 25 24 22 21 21 21 21 22 24
41 41 41 41 43 42 42 42 43 43 44 45 45 45 45 45 44 44 44 43 42 42 41 41 40 39 38 37 36 33 30 28 27 26 25 24 24 24 23 22 21 21 21 22
42 42 43 43 43 43 43 44 44 45 44 45 45 45 45 45 44 44 43 43 42 41 40 39 39 39 37 36 35 32 31 29 27 26 25 24 23 24 23 22 22 21 21 23
43 43 44 44 44 44 44 44 44 44 44 45 45 45 45 44 44 44 43 42 41 40 39 39 39 39 37 36 34 32 31 28 26 25 24 23 22 22 21 21 20 20 20 21
43 43 44 44 43 44 43 43 43 44 44 44 45 45 45 44 44 44 43 42 41 40 39 39 39 38 36 34 32 31 29 27 25 24 23 22 20 20 20 20 20 19 19 19
44 44 45 44 44 45 44 43 43 44 43 44 45 45 44 44 43 42 42 41 39 39 38 38 38 36 34 33 31 30 28 27 25 23 22 21 19 19 18 18 19 19 18 18

GEFSCGP_500_meanwind_180.txt.gz
Wind_Speed
22 22 21 22 22 23 23 24 24 24 25 26 26 26 26 27 28 29 31 32 33 33 34 35 36 37 37 39 40 41 42 43 44 45 47 48 49 51 52 53 54 55 56 57
23 23 22 23 23 24 24 25 25 26 26 28 28 27 27 28 29 30 31 32 33 33 34 35 36 36 37 38 39 40 41 42 43 44 45 46 47 48 50 51 52 54 55 56
25 24 24 24 24 25 26 26 27 28 28 29 30 29 28 29 30 31 32 32 32 33 34 34 35 36 36 37 37 38 40 41 42 43 43 44 45 47 49 51 53 54 55 56
26 25 25 25 25 26 27 28 29 30 30 30 31 32 29 30 30 31 31 32 32 33 34 34 35 36 36 37 37 38 40 41 42 42 43 45 46 47 49 51 52 54 56 57
28 27 26 26 27 27 28 28 30 31 31 31 31 34 31 31 30 30 31 32 32 33 34 35 36 36 37 38 38 39 40 41 42 42 44 44 46 47 49 50 51 53 55 56
29 28 28 28 28 29 29 30 31 32 32 32 31 34 33 32 32 32 32 32 33 34 35 36 37 37 38 39 39 40 41 41 43 43 43 44 45 46 48 49 50 52 54 55
30 30 30 29 29 29 30 30 32 33 33 33 33 34 33 34 34 33 34 34 34 36 36 36 38 38 39 39 40 41 42 43 43 44 44 45 46 47 48 49 50 51 52 54
32 31 31 31 30 30 30 31 31 33 35 35 35 35 34 34 35 35 35 35 35 37 37 38 38 39 40 40 41 42 42 43 44 44 45 46 46 47 48 49 49 49 50 51
34 34 33 32 32 31 31 31 32 34 36 37 37 36 35 34 35 36 36 37 37 38 38 38 39 40 40 41 41 42 42 43 45 46 47 47 47 47 47 47 47 48 49 51
36 36 35 34 34 34 34 33 33 34 37 38 38 36 36 36 36 36 37 38 39 38 39 39 40 40 41 41 42 43 43 44 45 46 47 47 47 47 46 46 47 47 49 49
37 38 37 36 35 35 34 34 35 36 37 38 39 38 37 37 38 38 38 39 39 39 39 40 40 41 42 42 44 44 45 45 46 47 47 47 47 46 45 45 45 46 47 47
37 38 39 38 37 36 36 36 36 37 37 38 39 38 37 37 38 38 39 39 39 39 39 40 41 42 43 44 45 46 46 46 47 48 47 46 46 44 44 44 44 44 45 45
38 39 39 39 39 38 37 36 36 37 38 38 39 38 37 37 38 38 39 39 39 39 39 40 41 42 43 44 46 46 46 46 47 47 46 45 44 43 43 42 42 42 42 42
39 40 40 39 40 39 38 37 37 38 38 39 38 37 36 38 39 39 39 39 40 40 41 41 42 43 44 45 46 46 46 46 47 47 46 45 43 42 42 41 41 40 40 40
40 40 40 40 40 40 40 38 38 38 38 40 38 37 36 37 38 39 40 40 40 40 41 42 43 44 45 46 46 46 46 46 47 47 46 44 42 41 40 40 39 39 38 38
41 41 41 41 40 40 40 39 39 39 39 39 39 37 36 37 39 39 39 39 39 40 41 43 44 45 46 47 46 45 46 46 47 46 44 42 40 39 38 37 37 37 36 35
41 41 42 41 40 41 41 38 38 38 38 39 39 37 37 38 39 39 40 40 40 41 43 43 45 45 46 46 45 45 46 47 46 45 42 40 38 37 35 34 34 34 33 32
42 42 42 42 41 43 39 37 37 38 37 38 38 38 39 39 39 40 40 41 41 42 43 43 44 45 46 45 45 46 45 46 45 43 40 38 36 34 33 33 32 31 30 28
42 42 42 43 43 43 39 38 38 39 38 37 38 38 39 39 39 39 39 40 41 42 43 43 44 45 45 45 45 45 45 44 44 41 38 35 34 32 31 30 29 29 27 25
43 43 44 44 45 44 40 38 39 40 40 38 38 39 40 41 41 40 40 41 42 43 44 44 44 45 45 45 44 44 43 42 41 39 36 34 32 31 30 29 28 27 25 23
44 44 44 44 44 44 41 40 40 40 40 39 40 40 40 41 42 43 43 42 43 43 44 45 45 44 44 44 44 42 41 40 38 37 34 32 31 30 28 28 27 25 24 22
43 44 44 44 45 43 40 40 40 41 41 41 41 41 41 42 42 43 43 43 43 44 44 45 44 43 43 43 42 41 40 38 35 34 32 31 29 28 28 26 24 23 22 22
42 42 42 42 42 41 40 40 40 41 41 41 41 41 42 42 43 43 43 43 43 44 44 43 42 41 41 42 41 39 37 36 34 33 31 29 27 26 26 24 22 21 21 20
39 40 40 40 40 39 40 40 40 41 41 41 41 42 42 43 43 43 43 43 43 43 42 41 40 40 40 40 39 37 36 35 33 32 31 30 27 25 24 23 21 20 19 18
38 39 39 39 38 38 39 40 40 41 41 41 42 43 43 43 43 43 43 42 41 41 41 40 40 40 40 39 38 36 36 35 34 33 32 30 27 26 24 22 21 20 19 18
38 39 40 39 38 40 40 40 40 41 42 43 43 43 43 44 44 43 42 42 41 40 40 40 40 40 39 38 37 36 36 36 35 33 31 29 27 25 23 21 19 17 16 14

GEFSCGP_500_meanwind_186.txt.gz
Wind_Speed
26 26 24 24 24 25 24 24 23 23 24 24 24 25 26 26 27 27 28 28 28 29 30 32 33 34 35 35 36 36 37 38 39 40 42 43 44 46 48 49 51 53 54 54
28 27 26 26 26 26 26 25 24 25 25 26 25 25 26 26 27 28 29 29 29 30 31 32 33 34 34 34 34 35 35 36 38 38 40 42 42 43 45 46 48 50 52 53
30 28 28 28 27 27 27 26 26 26 26 27 27 26 26 27 28 28 29 29 30 31 31 32 33 33 33 34 34 35 35 36 37 38 39 40 41 42 44 46 47 49 51 51
31 30 30 29 28 28 28 27 27 28 28 28 28 27 25 27 28 29 29 29 30 31 31 32 33 33 33 33 34 35 35 36 37 38 40 41 43 43 44 46 47 48 49 50
32 31 30 30 29 29 29 28 29 29 30 29 28 29 26 27 27 28 29 29 30 31 32 32 33 34 34 34 34 35 35 36 37 39 42 43 43 44 45 46 46 47 48 48
33 32 32 31 30 31 30 30 30 31 31 31 29 30 29 27 28 29 30 30 31 31 32 33 33 34 35 35 35 35 35 37 38 39 41 43 43 43 44 45 46 47 47 47
33 32 32 31 31 31 31 31 31 32 32 32 31 31 30 29 29 30 31 31 32 33 34 34 34 35 35 36 36 37 37 38 38 40 42 43 43 44 44 45 45 46 46 47
33 33 33 32 32 31 31 32 32 33 33 33 32 32 30 30 31 31 31 32 33 34 34 35 36 36 36 36 36 38 38 39 40 41 42 43 44 45 45 45 45 46 47 48
35 34 34 33 33 33 33 33 32 34 35 35 34 33 31 31 31 31 32 33 33 33 34 35 35 35 36 36 37 38 39 40 41 41 42 43 44 45 45 46 47 47 46 46
36 36 35 34 34 34 33 33 32 34 35 36 36 33 32 31 31 32 33 33 33 33 34 35 34 34 35 36 37 38 39 40 41 43 43 44 45 46 46 46 47 48 47 46
36 37 37 36 35 34 34 34 34 35 36 36 37 34 33 32 32 33 33 33 33 34 35 35 35 35 36 37 38 39 40 41 42 42 43 44 44 45 45 46 47 47 47 46
36 37 37 37 36 36 36 35 35 36 36 36 37 35 33 33 33 33 34 34 34 35 35 35 36 36 37 38 38 39 40 41 42 43 44 45 44 44 45 45 45 45 46 46
37 38 38 38 37 37 36 36 36 36 37 37 37 35 34 34 34 34 35 35 35 35 35 35 36 36 38 39 39 40 41 41 42 43 44 44 44 44 44 45 45 45 45 45
38 39 39 38 37 36 35 35 35 36 36 37 36 34 33 34 34 35 36 35 35 36 36 36 37 38 39 39 40 41 42 43 43 44 44 43 43 43 44 43 43 43 43 43
39 39 39 38 38 37 36 35 35 36 36 37 35 34 33 34 35 35 36 36 36 36 36 37 38 39 39 40 41 42 42 43 44 43 43 42 42 42 42 42 42 43 43 43
39 40 40 39 38 39 39 37 36 36 36 36 35 34 32 34 35 35 35 36 36 36 36 37 38 39 40 41 41 42 42 42 42 42 42 41 41 42 42 42 42 43 42 42
40 39 40 40 38 40 39 35 35 36 35 35 35 33 33 34 35 36 36 36 37 37 37 37 38 39 39 40 41 42 42 42 42 42 41 41 41 42 42 42 43 42 41 41
40 39 39 39 39 42 38 35 35 36 35 35 35 34 35 35 35 35 36 37 37 37 38 38 38 38 39 40 41 41 42 42 42 41 40 41 41 41 42 41 41 40 39 39
40 40 39 39 40 41 37 35 35 36 36 35 35 34 35 35 35 34 35 36 37 38 38 38 39 38 39 40 40 40 41 41 41 40 40 40 41 41 40 40 39 38 37 36
40 40 40 40 41 40 36 35 36 37 37 34 35 34 34 35 35 33 34 36 37 38 38 38 38 38 38 39 39 40 40 39 39 38 39 39 40 39 39 38 37 35 34 33
39 39 40 40 40 39 36 35 36 37 36 35 35 34 34 34 34 34 35 36 37 37 37 38 38 38 38 39 38 38 38 37 37 37 37 38 38 37 37 36 35 33 33 31
36 37 38 39 40 38 35 36 36 36 35 35 35 34 34 34 34 35 35 36 36 36 37 37 37 37 38 38 37 37 36 36 35 36 36 36 35 35 34 34 32 32 31 29
35 35 36 37 38 36 36 36 36 36 35 34 34 34 34 34 35 35 35 35 36 36 36 36 36 36 37 36 36 36 35 34 34 34 34 33 32 32 31 31 30 30 29 26
35 36 38 37 36 36 36 36 35 35 36 35 34 33 34 35 35 35 35 36 36 36 36 36 36 36 36 36 36 35 34 34 33 33 32 32 31 31 30 29 29 28 26 24
32 35 36 36 35 36 36 36 36 37 37 36 35 35 35 36 36 36 36 37 37 37 36 36 36 36 35 35 35 34 33 33 32 31 31 30 30 29 29 28 27 25 24 23
30 32 34 33 32 33 34 35 36 37 37 36 36 36 36 36 36 36 37 37 37 37 36 36 36 35 34 34 33 33 33 32 32 30 30 29 29 29 29 28 25 24 23 22

GEFSCGP_500_meanwind_192.txt.gz
Wind_Speed
34 34 32 30 30 31 31 31 30 29 30 30 30 29 29 29 28 28 28 28 28 28 29 30 31 32 33 33 34 35 36 37 37 38 39 40 42 42 43 44 44 46 48 49
35 34 32 32 32 32 32 32 31 31 31 32 31 31 30 30 29 29 29 29 29 29 30 31 31 33 33 33 34 34 35 36 37 38 39 41 41 41 41 42 43 45 46 47
36 34 34 34 34 33 33 33 32 32 32 33 33 32 30 30 30 29 29 29 30 30 31 32 32 33 33 34 34 34 35 36 37 38 39 40 40 41 41 42 43 43 44 46
37 36 35 35 35 34 34 33 33 33 34 34 34 34 31 30 30 30 30 30 31 31 32 33 33 33 33 34 34 35 35 37 38 39 39 39 40 41 42 42 43 45 44 45
38 37 36 36 35 35 35 34 34 34 35 35 34 35 32 31 30 30 30 31 32 32 33 34 34 34 34 34 34 35 36 37 38 39 40 40 41 41 42 43 44 45 45 46
38 38 38 37 36 36 36 36 36 36 37 37 35 36 34 31 30 31 32 32 32 33 33 34 34 34 34 35 35 36 37 37 38 39 40 41 41 42 43 44 44 45 46 46
38 38 38 38 37 37 37 37 37 38 39 38 36 36 35 32 31 32 32 32 33 33 33 34 34 34 35 35 36 37 37 38 39 40 41 41 42 42 43 44 45 45 46 46
38 38 38 38 38 38 37 37 37 39 39 38 37 37 34 33 32 32 32 33 33 33 34 34 34 35 35 36 36 37 38 38 39 41 41 42 42 43 44 45 45 45 45 46
38 38 38 38 38 38 38 37 37 38 40 39 39 37 35 33 32 32 32 33 32 32 33 34 34 35 36 37 37 37 38 38 39 41 42 43 43 43 44 45 45 45 46 47
39 40 39 38 38 38 38 37 37 38 39 40 39 37 34 32 32 32 32 32 32 32 33 33 34 34 35 36 38 38 38 39 40 42 43 43 44 44 45 45 45 46 47 48
38 39 40 39 39 38 38 38 38 38 39 39 39 36 33 32 31 31 31 32 32 32 32 33 34 35 35 36 37 38 38 40 41 42 43 44 44 45 45 45 46 47 47 47
37 39 40 39 39 39 39 38 38 38 38 38 38 36 33 32 32 32 32 32 32 32 32 33 34 35 35 36 37 38 39 40 41 41 42 44 44 44 44 45 45 46 47 47
38 39 40 40 40 39 39 38 39 39 39 38 37 35 33 32 32 33 33 32 33 33 33 34 34 35 36 37 38 39 40 40 41 42 43 43 43 43 44 44 45 47 47 46
41 41 40 40 39 39 38 38 39 39 39 38 37 34 32 33 33 33 33 33 33 34 34 35 35 36 37 38 39 39 40 40 41 42 42 41 42 43 43 43 44 45 45 45
42 42 41 40 40 39 39 38 38 38 38 38 36 35 33 33 34 34 35 35 35 35 35 36 36 37 38 39 39 39 40 41 42 41 40 40 40 42 42 43 44 44 44 44
41 42 41 41 41 41 41 39 38 38 38 37 37 35 33 34 35 35 35 36 36 36 36 37 37 38 38 39 39 39 40 41 41 40 39 39 39 40 40 41 43 43 43 42
40 41 42 42 41 42 42 39 39 39 38 38 38 35 34 35 35 35 35 36 36 36 37 38 38 38 38 38 38 38 39 40 39 38 38 38 38 38 39 40 41 41 41 41
38 39 41 42 41 42 39 39 39 39 38 38 38 37 37 37 36 36 37 37 37 37 38 38 38 38 38 38 38 38 39 39 39 38 37 38 38 38 39 39 40 40 40 40
37 37 39 40 41 41 39 38 38 39 39 38 38 38 38 38 37 37 37 38 38 38 38 38 38 38 38 39 39 38 38 38 38 38 38 38 38 38 38 39 40 39 40 40
35 36 37 38 40 40 37 36 37 38 39 38 38 38 38 37 37 36 36 37 37 37 38 38 37 37 38 38 38 38 38 38 38 37 37 38 38 38 38 38 39 38 38 37
33 34 36 37 39 39 37 36 35 36 36 36 37 38 38 38 37 37 37 37 37 37 37 37 38 38 37 38 38 38 38 38 38 37 37 37 37 37 36 37 37 37 37 36
31 33 34 35 37 36 36 36 36 35 34 35 36 36 37 37 37 37 38 38 37 37 37 37 38 37 37 37 37 37 38 38 37 36 36 35 35 35 36 36 36 36 36 34
30 31 33 34 33 33 34 36 36 36 36 36 35 35 36 36 37 37 37 37 37 37 37 37 37 36 36 36 37 37 37 37 35 34 34 34 33 34 34 35 34 34 34 34
29 30 32 32 32 31 32 33 34 35 35 35 35 34 35 34 35 35 35 35 36 36 35 35 35 35 35 36 36 36 35 35 34 34 34 33 32 32 33 33 33 33 33 33
28 29 30 30 30 30 31 32 33 34 34 34 34 34 34 35 35 34 34 34 34 34 33 33 33 34 34 35 36 36 35 35 34 33 33 32 32 31 32 32 32 33 33 32
26 27 28 28 28 29 30 31 31 32 32 33 33 33 32 33 34 33 34 34 34 34 33 33 34 34 35 35 36 36 35 35 33 32 31 31 31 30 30 31 31 32 32 31

GEFSCGP_500_meanwind_198.txt.gz
Wind_Speed
36 37 36 35 35 35 36 35 34 33 33 33 33 32 31 31 30 29 29 29 29 29 29 29 29 29 30 30 31 32 32 33 33 34 35 36 36 37 38 39 39 40 41 43
37 37 36 36 36 36 36 36 35 34 34 34 34 33 33 32 32 31 31 30 30 30 30 30 30 30 30 31 32 32 33 33 33 34 35 36 37 37 38 39 40 40 41 42
39 38 37 37 36 36 36 36 35 35 35 35 35 35 34 33 33 32 32 31 31 31 31 31 31 31 31 31 32 33 33 33 34 35 35 36 37 38 39 39 39 40 41 42
39 39 38 38 37 37 37 36 35 35 36 35 36 36 34 33 33 33 32 32 32 32 32 31 31 31 31 32 32 33 34 34 35 35 36 36 37 38 38 39 40 41 41 41
38 38 39 38 37 37 36 36 36 36 36 37 36 37 34 33 32 32 32 32 32 32 32 32 32 32 32 33 33 34 35 35 36 36 37 37 38 38 39 40 40 40 41 41
38 39 39 38 37 37 37 37 37 37 37 38 36 37 35 33 31 31 32 33 32 32 32 32 32 33 33 33 34 34 35 35 36 37 37 38 38 39 40 40 40 40 41 41
38 38 38 38 38 38 37 37 37 38 39 39 36 37 35 32 31 31 32 32 32 33 33 33 33 33 33 33 34 34 35 35 36 37 38 38 39 40 40 40 40 41 41 42
37 38 37 38 38 37 37 37 37 38 38 38 37 37 34 32 31 31 32 32 33 33 33 33 33 33 33 33 34 34 35 35 36 37 37 38 39 40 40 41 41 41 42 43
37 38 37 37 37 37 37 38 37 37 38 38 38 37 34 32 31 31 31 32 32 33 33 33 33 33 33 33 34 34 35 36 36 36 37 38 39 40 41 42 42 43 43 43
36 37 37 37 38 38 38 37 36 37 37 38 38 36 33 32 31 31 31 31 31 32 33 32 32 32 33 33 34 35 36 35 36 36 37 39 40 41 42 42 42 43 44 44
35 37 37 37 38 37 37 37 37 38 38 37 37 35 32 31 31 31 31 31 31 32 32 32 32 33 33 33 34 35 35 36 36 37 38 39 41 42 42 43 44 44 45 45
35 36 36 36 37 37 37 37 37 38 38 38 36 35 32 32 32 32 31 31 31 31 32 32 32 32 33 33 33 34 35 36 37 38 39 39 40 42 42 43 43 43 44 44
35 36 36 37 38 38 38 37 37 37 37 37 35 34 32 32 31 31 31 31 31 31 31 31 32 32 33 32 33 34 35 36 37 38 39 40 41 41 41 42 42 42 43 43
35 37 36 36 36 36 37 37 37 37 37 37 36 34 32 32 32 32 32 32 31 31 31 32 32 32 32 32 33 34 35 37 38 39 39 40 40 41 40 40 41 42 42 42
36 37 37 36 35 36 36 36 37 37 37 37 35 34 33 33 33 32 32 32 32 31 32 32 32 31 32 33 34 35 36 37 38 39 40 40 40 40 40 40 40 41 41 42
35 37 38 37 36 36 37 37 37 37 37 36 36 35 33 33 34 34 33 33 32 31 31 32 32 32 33 34 34 35 36 37 38 39 39 39 39 39 39 39 40 40 41 41
33 34 36 37 37 37 38 37 37 37 36 36 35 33 33 33 33 33 33 33 33 32 32 33 33 33 34 34 34 35 36 37 37 37 37 38 38 39 39 39 39 40 40 40
32 32 33 34 35 37 37 36 36 36 36 35 34 33 33 33 33 33 32 33 32 33 33 33 34 34 34 35 35 35 36 36 36 36 36 37 38 38 38 38 38 39 39 39
30 31 32 33 34 35 35 34 34 35 35 35 35 35 34 34 34 33 33 32 32 32 33 34 34 34 35 36 36 36 35 35 35 36 36 37 37 37 37 37 37 37 37 37
27 29 30 31 33 34 33 33 33 34 34 34 35 35 36 35 35 33 33 33 33 33 33 33 33 34 35 35 35 35 34 34 34 34 35 35 36 36 36 36 36 36 36 35
24 26 27 28 29 30 30 30 32 33 33 33 33 33 35 35 35 34 34 34 33 33 33 32 32 33 34 35 35 34 34 34 34 35 35 35 35 35 35 35 34 34 34 34
22 24 26 27 28 27 28 29 30 31 32 32 32 31 32 33 34 34 34 34 34 33 33 33 33 33 34 34 34 34 34 34 34 34 34 34 34 35 34 34 34 34 34 32
22 23 24 26 26 26 27 28 29 29 29 30 31 30 30 30 31 32 32 33 33 33 33 33 33 34 34 34 33 34 34 34 34 34 33 33 33 33 32 33 33 33 32 31
23 23 23 24 24 25 26 26 27 27 28 28 29 28 28 28 28 29 30 30 31 32 33 33 33 34 33 33 33 33 34 34 33 33 33 33 32 31 31 31 30 30 29 28
22 23 23 23 24 25 25 25 25 26 27 27 27 28 28 28 28 28 29 29 30 31 32 32 33 33 32 32 32 32 32 33 33 33 33 33 32 31 30 29 28 28 27 27
21 22 23 23 24 25 24 24 24 25 25 26 26 27 28 28 27 28 28 28 28 29 30 30 31 31 31 31 30 30 30 31 31 31 31 30 29 29 28 27 26 26 26 26

GEFSCGP_500_meanwind_204.txt.gz
Wind_Speed
39 40 39 38 38 39 39 39 38 38 37 38 39 38 36 36 36 35 34 33 33 32 32 32 31 31 31 30 30 30 30 30 30 31 31 32 33 33 34 35 36 37 37 38
39 39 38 39 39 39 39 39 39 38 38 38 39 39 37 36 35 35 35 34 33 33 32 31 31 31 31 31 30 30 30 31 31 32 33 33 34 35 35 36 37 37 38 38
39 38 39 39 39 39 40 39 39 38 38 39 39 39 37 36 36 35 35 34 33 33 32 32 31 32 32 31 31 31 31 32 32 33 34 34 35 36 36 37 38 38 39 39
38 38 39 39 39 39 40 40 40 39 40 40 39 40 37 36 36 35 34 34 34 34 33 33 32 32 32 32 32 32 33 33 34 34 34 34 35 36 36 37 38 39 39 40
37 37 38 39 39 39 39 39 40 40 40 41 40 41 38 37 36 35 34 34 34 35 35 34 33 33 33 33 33 34 34 34 34 35 35 35 36 36 36 37 38 38 39 40
37 37 38 38 38 38 37 38 39 40 41 42 40 41 40 37 36 35 35 34 34 34 35 35 34 34 34 34 34 34 35 35 35 35 36 36 36 37 37 37 38 38 39 40
36 36 37 38 38 39 38 38 38 39 41 42 39 41 41 37 36 35 35 34 35 35 35 35 34 34 34 34 34 35 35 35 35 35 36 36 37 37 37 38 38 39 39 40
35 37 36 37 37 38 39 38 38 38 39 39 39 41 40 37 36 35 35 35 35 35 34 34 35 34 34 34 34 35 35 35 35 36 36 36 36 37 38 39 39 40 41 41
36 37 37 37 37 37 37 38 37 37 39 39 39 40 39 38 36 35 35 35 35 35 34 35 35 35 35 34 34 34 35 35 35 35 36 36 37 38 38 39 40 41 42 42
36 37 36 36 37 38 38 37 36 37 37 38 39 38 38 37 35 34 34 35 34 34 35 35 34 35 35 35 34 35 35 35 35 35 36 36 37 38 39 40 41 41 41 41
34 36 36 36 37 37 38 38 38 37 37 37 37 37 37 36 35 34 34 35 34 33 34 34 34 34 35 35 35 35 36 36 36 36 36 37 38 39 40 40 41 41 40 41
33 35 35 35 35 34 35 36 37 37 37 36 36 35 33 33 33 33 33 33 33 33 33 33 33 34 34 35 35 36 36 36 36 37 38 38 39 39 40 40 40 40 41 41
33 34 35 34 34 35 36 36 36 37 37 37 36 36 34 33 32 32 32 33 33 34 33 33 33 33 34 34 35 35 36 36 37 37 38 39 39 40 40 40 40 41 42 42
34 34 35 34 34 34 35 36 36 37 37 37 37 35 35 34 33 32 32 32 33 33 33 33 32 33 34 34 34 35 36 37 37 38 39 39 40 40 40 40 41 41 42 43
33 34 34 34 34 35 36 35 36 37 37 37 36 36 36 35 34 33 33 32 33 33 33 32 32 33 33 34 34 35 36 37 37 38 39 39 39 40 40 40 41 41 42 43
30 31 33 34 34 35 36 36 36 37 36 36 36 35 35 36 35 35 34 33 33 33 33 33 33 33 33 33 34 35 36 36 37 37 38 38 39 39 40 40 41 42 43 44
28 29 30 32 33 34 35 34 35 36 35 35 35 34 34 35 35 35 35 34 33 33 33 32 33 33 33 33 34 35 35 36 37 37 38 38 38 38 39 40 40 41 42 43
29 30 30 31 32 34 32 33 34 35 36 36 35 35 35 36 35 35 35 35 34 33 32 32 33 33 33 33 33 34 34 35 36 36 37 37 38 38 39 39 40 40 41 41
28 29 30 30 31 32 32 32 32 33 34 36 36 35 35 35 35 35 35 35 35 34 34 33 33 33 33 33 33 33 34 35 35 36 36 36 37 37 38 38 38 39 39 39
26 27 27 28 29 30 30 31 32 32 33 34 36 35 35 35 35 34 35 36 35 35 34 34 33 33 33 32 33 33 33 34 35 35 35 36 36 36 36 36 37 38 39 39
23 24 25 26 27 28 29 29 30 32 31 32 34 34 34 35 34 33 34 34 34 34 34 34 33 33 33 33 33 33 33 33 33 33 34 35 35 36 36 36 36 37 36 36
22 23 24 25 25 26 26 27 27 28 29 30 31 32 33 33 33 32 32 33 33 33 33 33 33 33 33 32 32 32 32 32 32 32 33 33 34 34 35 35 35 35 35 34
23 23 23 23 24 24 24 25 26 26 27 28 29 29 31 31 32 32 32 32 33 33 32 32 32 32 32 32 32 32 32 31 31 32 32 33 33 33 33 34 34 34 34 33
22 23 23 23 22 23 24 24 25 25 25 26 27 28 28 28 30 31 31 31 32 33 33 33 33 32 33 33 33 32 32 32 32 31 31 32 32 32 33 33 33 33 32 31
20 22 23 24 23 24 24 24 24 25 25 26 26 26 26 27 28 29 30 30 31 32 32 33 33 33 32 32 32 32 32 31 31 31 31 31 31 32 32 32 31 30 30 29
21 21 23 23 24 24 24 24 24 24 24 25 25 25 26 26 26 27 28 29 29 29 30 30 31 32 32 32 32 31 31 31 31 30 31 31 31 31 31 30 29 29 28 28

GEFSCGP_500_meanwind_210.txt.gz
Wind_Speed
38 39 40 39 39 39 40 41 41 40 40 40 40 40 38 38 38 36 36 36 35 34 34 33 33 32 32 32 32 31 31 31 31 31 31 32 32 32 32 32 32 32 32 32
38 38 38 39 39 39 40 40 40 40 40 41 41 40 39 38 37 37 36 36 35 35 34 34 33 32 32 31 31 31 31 31 31 31 32 32 33 33 33 33 33 33 33 34
37 37 38 39 39 39 39 39 39 40 40 41 41 41 39 38 38 38 37 36 36 35 35 34 34 33 32 32 31 31 31 31 31 31 32 33 33 33 33 34 34 34 35 35
36 37 38 39 39 39 38 38 38 39 41 41 41 41 40 39 38 38 37 36 36 36 35 35 34 33 32 32 32 31 31 31 31 31 32 32 33 33 33 34 35 35 36 36
35 36 38 39 38 38 37 36 37 38 40 41 41 42 40 39 38 37 37 36 36 36 35 34 34 33 32 31 31 31 31 31 31 32 32 33 33 33 34 35 35 36 37 37
34 35 37 38 38 38 36 35 36 37 39 41 40 41 40 38 37 37 37 36 36 36 35 34 34 34 33 32 32 32 31 31 32 32 33 33 33 34 35 36 36 37 37 38
34 35 36 38 38 38 37 36 36 37 39 41 39 41 39 37 37 36 36 36 36 36 36 35 35 34 34 33 33 33 32 32 32 33 33 34 34 35 35 36 37 37 37 38
33 34 35 37 38 38 37 37 37 37 38 38 38 39 38 36 36 36 36 36 36 36 36 36 35 34 34 34 34 33 33 33 33 33 34 34 35 36 36 36 37 37 38 39
32 33 34 35 36 36 37 37 37 37 38 37 38 38 37 35 35 35 35 35 35 35 35 35 35 35 34 34 34 34 34 34 34 34 35 35 36 36 36 36 37 37 38 39
31 32 32 33 34 35 36 35 36 37 37 37 37 37 37 35 33 34 34 34 34 35 35 35 35 35 34 34 35 35 35 35 35 35 35 36 36 36 37 37 37 38 38 39
29 30 30 31 33 34 36 36 36 36 36 36 36 36 35 34 33 33 33 33 33 33 34 34 34 34 34 34 34 34 35 35 35 35 36 36 36 37 37 37 38 38 38 39
29 29 29 29 30 32 34 35 36 37 37 36 36 36 33 33 33 33 33 33 33 33 33 33 34 34 34 34 34 34 35 35 35 35 36 36 37 37 37 38 38 39 39 40
28 29 30 30 31 32 33 34 35 36 36 36 35 35 34 33 33 33 33 33 33 33 33 33 33 34 34 33 34 34 34 34 35 35 36 36 37 37 38 38 39 39 40 40
28 30 31 30 30 31 32 33 35 37 37 35 34 33 33 33 32 32 33 33 32 33 33 33 33 33 34 33 33 33 34 34 34 35 35 36 36 37 37 38 39 39 39 39
28 29 29 30 30 30 31 32 34 35 36 36 33 33 32 33 32 32 32 32 32 32 32 33 32 32 32 33 33 33 32 33 34 34 35 35 36 36 37 37 38 38 38 39
25 27 27 28 28 30 31 31 32 34 35 35 34 33 32 32 32 32 32 32 32 32 31 32 32 32 32 32 32 32 32 33 34 35 35 35 35 35 36 36 36 37 37 37
24 24 25 26 27 28 29 29 31 33 35 35 34 32 32 32 32 32 32 32 32 32 32 31 32 32 32 31 31 31 32 32 33 34 35 35 34 35 35 35 35 36 36 37
24 24 24 25 26 27 27 27 28 30 32 34 34 33 32 32 32 32 32 31 31 32 32 33 32 32 31 31 31 31 31 32 32 33 34 34 34 34 35 35 35 35 37 38
25 25 25 25 25 26 27 26 26 28 30 32 32 32 32 32 32 32 33 32 31 32 33 34 33 32 32 31 30 30 31 31 31 32 33 33 34 34 34 34 35 35 36 37
26 25 26 26 26 26 25 25 25 27 28 29 31 31 31 32 32 31 33 33 32 32 34 35 34 33 32 32 31 30 31 31 31 31 32 33 34 34 34 35 35 35 36 37
25 26 26 26 27 26 25 25 26 27 27 27 29 30 30 31 31 32 33 33 33 33 33 34 34 34 33 32 32 32 31 31 31 32 32 33 34 34 35 35 36 36 37 38
23 24 25 25 25 24 24 25 26 26 27 27 28 29 30 31 31 32 32 33 33 33 33 33 34 34 34 33 33 33 33 32 32 32 33 33 33 34 35 35 36 36 36 37
21 22 22 22 22 21 23 24 24 25 26 26 27 28 29 30 31 31 31 32 33 33 33 33 33 33 34 34 33 33 33 33 33 33 33 32 33 33 33 34 35 35 35 35
19 20 20 21 22 23 23 24 23 23 24 25 25 26 27 28 28 28 29 30 31 32 32 32 32 33 33 33 33 33 33 33 33 33 33 33 32 32 33 33 34 33 33 33
19 19 20 21 21 22 23 23 23 22 23 23 24 24 25 25 26 27 27 28 29 30 30 31 32 32 32 32 33 33 33 33 33 33 33 33 33 32 32 32 31 31 31 31
19 19 19 19 19 20 20 21 22 22 22 22 23 23 24 24 25 25 26 27 28 28 28 29 30 31 31 32 32 32 33 33 33 33 33 33 32 32 31 30 29 29 29 29

GEFSCGP_500_meanwind_216.txt.gz
Wind_Speed
38 40 40 39 41 41 41 41 40 39 39 41 41 40 39 40 41 40 40 39 39 39 39 38 37 37 36 35 34 34 34 34 34 34 34 34 33 33 33 33 33 33 33 33
38 40 38 39 40 41 41 41 40 40 40 41 41 40 40 40 40 41 40 40 39 39 39 38 38 37 36 35 35 35 34 34 34 34 34 34 33 33 33 33 33 33 33 33
37 38 38 39 40 41 41 41 40 39 40 41 41 41 40 40 40 41 41 40 40 39 39 39 38 38 37 36 36 36 35 34 34 34 34 34 33 33 33 33 33 33 34 34
35 37 38 39 39 40 40 40 41 40 40 40 41 42 40 40 40 40 40 39 39 39 39 39 39 38 37 37 36 36 36 35 34 34 34 34 33 33 33 33 33 34 35 35
34 36 37 39 38 39 39 40 40 41 41 41 41 42 40 40 40 39 39 39 39 39 39 39 39 38 38 38 37 36 36 35 35 34 33 33 33 33 33 34 34 34 35 35
33 34 36 37 38 38 39 39 39 40 41 43 41 41 40 39 38 38 38 39 39 39 39 39 39 39 38 38 38 37 36 35 35 34 34 33 33 33 34 34 34 35 35 36
30 33 34 36 37 38 38 39 38 40 42 43 40 41 39 37 36 37 38 38 38 38 38 38 38 38 38 38 37 36 36 35 35 35 34 33 33 33 34 34 35 36 36 36
28 30 32 34 36 37 37 38 38 39 41 41 41 41 39 38 37 36 36 38 38 38 37 37 37 37 38 38 37 36 35 35 35 35 34 34 33 34 34 35 36 36 36 36
27 28 29 31 33 35 35 36 36 37 40 40 41 41 39 38 37 36 35 36 37 37 37 37 37 37 37 38 37 36 36 36 35 35 35 34 34 34 35 36 36 36 36 36
26 26 27 29 31 34 34 34 35 36 38 39 40 39 38 37 36 36 36 35 36 37 37 37 37 37 37 37 37 36 36 36 35 35 35 35 35 35 35 35 35 35 36 36
26 27 27 28 30 31 34 35 35 35 36 37 38 38 36 35 35 35 35 35 35 36 37 37 37 37 37 37 37 37 36 36 36 36 36 36 36 35 35 34 34 34 35 35
25 27 28 28 29 30 31 34 35 35 35 35 36 35 34 34 33 33 34 34 34 35 36 36 36 37 37 37 37 37 37 37 37 37 36 36 35 35 35 34 34 34 35 35
25 26 28 29 30 31 32 32 34 36 36 35 35 34 32 32 32 32 32 33 34 34 35 35 36 37 37 38 38 37 37 37 37 37 37 36 36 35 35 36 36 35 35 36
25 26 27 29 29 30 31 32 33 34 35 35 34 32 31 31 31 32 33 33 34 34 34 35 35 36 37 37 38 37 37 37 37 37 37 36 36 36 36 36 36 36 36 36
25 25 25 27 27 29 30 31 32 34 34 34 33 33 31 31 31 31 32 33 34 35 35 35 35 36 36 37 38 37 37 37 37 37 36 36 36 36 36 36 36 36 36 36
24 24 24 25 26 27 29 30 31 33 34 34 34 33 31 31 32 31 32 33 33 34 35 36 35 35 36 37 37 37 37 37 37 37 36 36 36 36 36 37 37 37 37 37
23 23 23 24 24 26 27 28 30 31 32 33 33 31 31 30 31 31 31 32 33 33 35 36 36 35 35 36 36 36 37 37 37 37 36 36 37 37 37 36 36 36 37 37
21 21 23 24 25 26 26 27 28 29 30 31 31 30 30 29 30 32 32 32 33 33 34 35 35 35 35 35 35 36 36 36 36 36 37 37 37 37 37 37 37 37 37 38
22 22 23 25 26 25 25 27 28 28 28 30 30 30 30 30 31 31 31 32 32 33 34 35 35 35 35 35 35 35 35 36 36 36 36 37 36 36 36 36 37 37 38 38
23 24 25 26 26 25 24 25 27 28 28 28 29 29 30 30 30 30 31 31 31 32 33 34 34 35 36 35 35 35 34 35 35 35 36 36 36 36 36 36 37 37 38 38
22 23 25 26 26 26 25 25 26 27 27 27 27 28 29 30 30 30 31 31 32 32 33 33 33 34 34 35 35 35 34 34 35 35 36 36 36 36 36 36 36 37 37 38
21 23 24 24 25 25 24 25 25 25 25 26 26 27 28 29 30 31 31 32 32 33 32 33 33 33 34 34 34 34 34 34 34 35 35 35 35 35 35 36 36 36 37 37
19 21 22 23 23 23 24 24 25 25 25 26 26 27 28 28 30 31 31 32 32 33 33 33 33 33 33 34 34 34 34 34 34 34 34 34 34 34 35 35 36 36 37 37
18 19 21 22 22 22 23 23 25 26 26 26 26 27 27 27 29 30 31 32 32 32 33 33 34 34 33 34 34 35 34 34 34 34 34 33 33 34 34 34 35 35 36 36
17 18 20 21 21 21 22 22 23 25 26 26 26 26 26 26 26 27 29 31 32 32 32 32 34 35 34 34 34 34 35 35 34 34 34 34 34 33 34 34 34 34 34 34
17 17 18 18 19 21 21 21 22 23 25 25 25 25 25 25 25 26 27 29 30 31 31 31 32 33 34 34 34 34 34 35 34 34 34 34 34 34 34 34 34 33 33 32

GEFSCGP_500_meanwind_222.txt.gz
Wind_Speed
35 37 38 37 38 38 39 40 40 41 42 43 43 41 41 41 41 41 41 41 41 40 41 41 40 40 40 39 39 39 38 37 37 36 36 36 35 34 34 34 33 33 33 33
35 36 36 37 39 39 39 40 40 40 42 43 43 42 41 42 42 41 41 41 41 41 41 41 41 40 40 39 39 39 38 38 37 37 36 35 35 34 34 33 32 33 33 33
33 33 34 36 37 39 40 40 40 40 41 42 43 43 42 41 42 42 42 42 41 40 40 40 41 41 40 39 39 39 38 38 38 37 36 35 35 34 34 33 33 32 33 33
31 31 32 33 35 37 38 39 39 40 41 42 42 43 43 42 41 41 41 41 41 40 40 40 40 40 40 40 39 39 39 39 38 38 37 35 35 34 34 33 32 32 32 32
29 29 30 31 32 33 36 37 37 39 41 42 42 43 42 42 41 40 40 40 40 40 39 39 39 39 40 40 40 39 39 38 38 37 36 35 35 34 34 33 32 32 31 31
27 28 28 27 28 31 32 34 35 37 40 42 42 43 42 41 39 39 39 39 39 39 39 39 39 39 39 39 39 39 39 38 38 37 36 35 35 34 34 33 33 33 32 32
26 26 26 27 28 29 30 31 32 35 38 41 41 42 42 40 39 38 38 38 38 39 39 38 39 39 39 39 39 39 39 38 38 38 37 36 35 35 34 33 33 33 33 32
25 26 26 26 27 28 29 31 32 33 36 38 40 41 40 39 38 37 37 38 38 38 38 38 38 38 39 38 38 38 39 38 37 38 37 36 35 35 34 34 33 33 32 32
25 26 25 26 27 28 28 29 31 33 34 35 37 39 39 38 37 37 37 37 37 37 38 38 39 38 38 38 38 38 38 38 37 37 38 37 36 35 35 34 33 33 33 33
23 25 25 26 27 29 29 28 28 31 32 34 35 36 37 36 36 36 36 36 36 36 37 38 38 38 38 38 37 37 38 38 38 37 38 38 37 36 35 34 34 34 34 34
21 23 25 25 28 28 29 30 29 31 32 33 34 35 35 35 35 35 35 36 36 36 36 37 38 38 38 38 38 38 38 38 38 38 37 37 37 36 36 35 35 35 35 35
21 22 23 25 26 28 29 29 29 30 31 33 34 34 33 33 34 35 35 35 35 35 35 36 37 37 38 38 38 38 37 37 38 38 38 37 37 37 36 35 36 35 35 36
22 22 22 24 25 26 28 29 29 29 30 31 32 33 33 33 33 33 34 34 34 35 35 35 36 37 37 37 37 37 37 37 38 38 38 38 37 37 36 36 36 36 36 36
21 23 23 23 24 25 26 28 29 29 30 29 30 30 31 32 32 33 33 33 34 34 34 34 35 36 36 36 37 37 37 38 38 38 38 38 38 37 37 37 37 37 37 36
21 22 23 23 23 24 25 26 27 29 29 30 28 29 29 30 30 31 33 33 33 33 35 35 35 35 37 37 37 37 37 38 38 38 39 39 39 38 38 38 38 38 37 37
21 21 22 23 23 23 24 24 26 28 28 28 28 28 28 29 29 29 30 32 32 32 33 35 35 35 36 36 36 36 37 37 38 38 39 39 39 39 39 38 39 38 38 38
19 20 21 22 22 23 24 24 25 27 27 27 27 27 29 29 29 28 29 30 31 33 33 33 34 35 35 36 36 36 36 37 37 38 38 39 39 39 39 38 38 39 39 39
17 18 20 21 22 23 23 23 24 26 27 28 27 27 29 29 29 29 29 29 30 32 33 33 33 34 35 35 36 36 36 36 37 38 38 38 38 38 39 38 38 38 38 38
16 16 18 20 21 23 22 22 23 25 25 26 26 26 28 29 30 30 29 29 30 31 32 32 33 33 34 35 35 35 35 35 36 37 37 38 38 38 38 38 38 38 38 38
17 16 17 18 20 21 21 22 23 24 24 25 25 25 26 28 29 29 29 28 29 31 31 31 32 33 34 35 35 35 35 35 35 36 37 37 37 38 38 38 38 38 38 38
18 18 18 18 19 20 20 21 22 23 23 24 24 24 25 26 28 29 29 29 29 31 31 31 32 33 34 35 35 35 34 34 34 35 35 36 37 37 38 38 38 38 38 38
18 19 19 19 19 18 19 20 21 22 23 24 24 24 24 25 27 29 29 29 28 29 31 31 32 32 33 34 35 35 34 34 34 33 34 35 36 36 36 37 37 37 37 38
16 17 18 18 17 17 18 20 20 21 22 23 24 23 23 24 25 27 28 28 29 29 30 31 31 32 32 33 33 34 34 33 33 33 33 33 35 35 36 36 36 36 36 36
14 16 17 17 17 17 18 19 20 21 21 22 22 23 23 23 24 26 27 28 29 29 29 29 30 30 31 32 32 33 33 33 32 32 32 33 33 34 35 35 35 35 35 35
13 14 16 18 18 18 19 19 19 20 21 22 22 23 23 23 24 25 26 26 27 28 28 29 29 30 31 31 31 31 31 32 32 32 32 32 32 33 33 34 34 34 35 35
14 14 15 16 17 18 18 19 19 19 20 21 22 22 23 23 24 25 26 26 26 26 27 28 29 29 29 30 30 30 31 31 31 32 32 32 32 32 32 33 33 33 33 33

GEFSCGP_500_meanwind_228.txt.gz
Wind_Speed
31 35 37 36 36 36 37 38 38 38 40 42 42 42 43 43 43 42 43 44 43 43 43 42 41 41 41 41 41 41 41 40 39 39 38 37 36 36 36 36 35 36 35 35
30 33 33 35 36 36 37 36 36 37 38 40 41 42 43 44 43 43 43 44 43 43 43 42 41 41 41 41 41 41 41 41 40 39 38 38 37 37 36 35 35 35 35 35
29 29 31 33 34 35 36 35 35 36 36 38 40 42 44 44 43 43 43 44 43 43 42 42 42 41 40 40 40 41 41 41 40 39 39 38 37 37 36 35 35 35 35 35
26 27 29 31 33 33 32 33 33 36 36 38 40 41 41 42 42 42 43 43 43 43 43 42 42 41 41 40 40 41 40 40 39 39 39 38 38 37 36 36 35 35 35 34
24 25 27 29 31 32 32 31 32 33 35 37 39 41 40 42 43 42 42 42 43 43 43 42 42 41 42 41 41 40 41 40 40 39 39 39 38 37 36 36 36 35 35 34
23 23 25 26 28 30 30 30 30 32 33 36 38 39 40 41 42 42 42 42 43 43 43 43 43 42 42 42 42 40 41 41 40 40 39 39 39 38 37 36 36 36 35 35
22 23 24 26 28 29 28 28 28 29 31 34 35 38 39 39 40 40 41 42 41 41 42 42 42 42 42 42 42 41 40 40 40 40 40 39 39 39 37 36 37 37 36 36
21 23 23 25 27 28 27 28 28 27 29 31 33 36 37 37 38 39 40 40 41 40 40 41 41 42 41 41 41 41 41 41 41 40 39 38 38 38 39 38 37 37 37 36
21 22 23 24 25 27 28 29 29 28 28 29 31 34 35 36 37 38 39 39 40 40 40 40 40 41 41 41 41 40 40 40 40 39 39 38 38 39 39 38 38 37 37 37
20 21 23 24 24 26 27 28 29 29 28 29 31 33 34 34 35 36 38 39 38 38 39 39 40 40 40 40 40 40 40 39 40 39 39 38 39 39 39 39 38 38 37 37
19 22 23 24 26 26 27 27 27 27 27 28 30 31 32 33 33 34 36 37 37 37 37 38 39 39 39 39 39 40 39 39 39 39 39 39 39 39 40 40 39 38 37 36
19 21 22 24 26 26 26 27 27 27 26 27 28 29 29 30 32 33 35 36 37 37 37 37 37 38 39 39 39 39 40 39 39 39 39 39 39 39 40 40 39 39 38 37
19 20 22 24 25 27 27 27 28 27 27 26 26 27 27 28 29 32 33 34 35 35 36 37 37 37 38 39 39 39 40 40 39 39 39 39 39 39 39 39 39 39 38 37
18 19 21 23 24 25 26 26 27 27 27 26 26 27 27 28 29 30 31 33 33 34 35 35 36 37 38 39 39 39 39 40 40 39 39 39 39 39 39 39 39 39 39 38
18 20 21 22 23 25 25 26 26 27 27 27 26 27 27 27 28 30 31 32 33 34 34 34 35 36 38 39 39 39 39 40 39 39 39 38 38 38 38 38 38 38 38 38
18 19 21 22 23 24 24 26 26 26 26 27 27 27 27 28 28 29 30 32 32 33 33 33 34 35 36 37 37 38 39 39 39 38 38 38 38 38 38 38 38 38 38 38
18 18 20 21 22 23 24 24 24 24 25 26 28 27 28 28 28 28 29 31 31 32 33 33 33 34 34 34 35 36 37 37 37 37 37 37 38 38 39 39 38 38 38 38
17 18 19 20 22 24 23 23 23 24 24 25 26 27 28 29 29 30 30 30 31 32 33 33 33 33 33 34 34 35 36 37 37 37 37 37 37 37 37 37 37 37 37 38
17 18 19 19 20 21 22 23 23 24 25 26 27 27 27 28 29 29 30 29 30 32 33 33 33 33 33 34 34 34 35 36 36 36 36 36 36 36 37 37 37 36 37 37
16 18 19 20 21 21 23 24 24 25 26 26 27 27 27 27 28 28 29 29 29 31 32 33 32 32 33 34 34 34 34 34 34 34 34 34 35 35 35 36 36 36 36 36
17 17 18 20 22 22 23 23 24 25 25 26 25 26 26 27 27 27 28 29 29 29 30 31 32 32 32 33 34 33 33 33 33 33 33 34 34 34 35 35 35 35 35 35
16 17 18 20 21 22 22 23 23 23 24 25 26 26 26 26 27 28 27 28 29 29 29 30 31 32 31 32 32 32 32 32 33 33 34 34 34 34 34 34 34 35 35 35
16 17 18 20 20 21 22 23 23 22 23 23 24 25 25 25 26 27 27 28 29 29 30 30 30 31 31 31 31 31 31 32 32 33 33 32 32 33 33 33 34 34 34 35
17 17 18 18 19 21 22 23 24 24 24 24 23 24 25 25 25 25 26 27 28 28 29 30 30 30 30 32 32 32 31 31 32 32 32 32 32 32 32 32 33 33 34 34
18 18 18 18 18 19 21 22 22 23 23 23 23 24 24 25 26 26 26 27 28 28 28 29 30 30 30 30 31 32 32 31 31 32 32 32 32 32 31 31 31 32 33 33
19 19 19 18 17 18 18 19 20 21 22 22 23 23 23 24 24 24 25 26 26 27 28 28 29 29 29 29 30 30 30 31 31 32 32 32 31 31 31 31 31 32 32 33

GEFSCGP_500_meanwind_234.txt.gz
Wind_Speed
27 30 31 32 34 35 36 36 37 38 39 40 41 40 42 42 43 43 44 44 44 43 42 42 42 41 41 41 41 41 41 41 41 41 40 40 39 39 39 38 37 37 36 35
26 28 28 31 33 35 36 36 34 35 36 39 40 39 40 41 42 42 44 45 45 43 42 42 42 41 41 41 41 40 41 41 41 40 40 40 39 39 39 38 38 37 37 36
25 25 26 29 31 33 34 34 33 33 34 36 38 40 40 40 42 42 44 44 44 44 43 42 42 42 41 40 40 40 41 40 40 40 40 40 39 39 39 39 38 38 37 36
22 24 25 27 29 32 33 33 32 33 34 35 37 39 39 39 40 41 42 43 42 42 43 42 42 42 41 41 40 40 40 40 40 41 41 40 39 39 39 39 39 39 38 37
20 22 24 26 27 29 31 32 31 31 32 34 36 38 38 39 39 39 40 41 41 41 41 41 41 41 41 41 41 40 40 40 40 40 41 41 39 38 39 39 39 38 37 37
18 21 23 24 25 26 28 30 31 30 31 32 32 35 36 38 37 37 38 39 40 41 41 41 41 41 41 41 40 40 40 39 39 39 40 41 40 38 38 39 38 38 37 37
16 19 21 22 24 25 25 26 28 29 31 31 30 33 34 34 35 35 37 38 39 40 41 41 41 41 40 40 40 40 40 40 39 39 39 40 40 40 39 39 39 38 38 38
15 17 20 22 24 23 24 25 27 28 29 30 30 32 33 32 33 34 36 38 39 39 40 41 41 40 40 39 40 40 41 41 40 40 40 40 40 40 40 39 39 38 39 38
15 17 19 21 23 24 25 25 26 26 27 28 28 29 31 31 32 33 35 37 38 39 40 40 40 40 39 39 40 40 40 41 40 40 40 40 40 39 38 38 38 38 38 37
14 16 18 19 23 24 24 25 26 26 26 27 28 28 29 30 31 32 33 35 37 38 39 41 41 40 40 40 40 41 41 41 41 40 40 40 40 40 39 38 37 37 37 37
14 16 17 19 21 23 24 26 27 26 26 26 28 27 26 27 28 30 31 32 34 35 37 39 39 40 40 40 41 41 41 41 42 41 40 39 40 40 38 38 38 38 37 37
13 16 17 18 20 22 24 25 26 26 26 26 27 26 25 26 27 28 30 31 32 33 34 36 37 38 39 40 41 41 41 41 41 41 40 40 40 40 39 38 38 37 37 37
15 15 17 18 20 22 24 25 26 26 27 26 25 24 23 24 25 27 28 29 30 31 33 34 36 36 37 38 40 41 40 40 40 40 40 40 40 39 39 38 38 37 36 36
15 16 17 18 20 21 22 24 26 27 27 27 26 25 24 24 25 27 27 28 30 31 31 32 34 35 36 36 38 39 40 40 39 39 39 39 39 39 38 38 38 38 38 37
17 16 17 17 19 21 21 22 25 26 26 26 25 26 26 26 26 27 27 27 28 29 30 31 33 35 35 35 36 37 38 39 39 39 39 39 39 39 38 38 38 39 39 39
17 17 17 17 18 20 21 22 23 24 25 24 23 23 24 25 26 27 28 28 28 28 29 30 31 33 35 35 35 35 36 37 38 39 39 39 39 39 39 39 39 40 40 39
16 17 17 17 18 19 20 21 22 22 24 24 24 24 24 25 26 26 27 28 28 28 28 29 30 32 34 35 35 35 35 36 37 38 39 40 40 39 39 38 39 39 39 39
16 17 17 17 18 18 19 20 21 22 22 22 23 24 25 25 25 27 26 27 27 27 27 28 29 31 32 34 35 35 36 36 36 37 37 38 38 38 38 38 37 38 38 38
14 17 18 18 18 18 18 20 21 21 21 21 21 22 23 25 25 26 27 27 28 28 28 28 29 30 31 33 34 35 35 35 36 37 36 37 37 37 37 38 37 37 37 37
14 15 17 18 18 17 17 19 21 22 22 21 21 22 23 24 25 25 26 27 28 29 29 28 29 29 30 31 33 33 34 34 35 35 36 36 36 36 36 37 36 36 36 36
13 14 16 17 18 17 18 19 20 22 21 21 22 22 23 24 25 26 26 27 28 28 29 29 29 30 30 30 31 32 32 33 34 35 35 35 35 35 35 35 36 36 36 36
14 15 15 16 17 17 18 19 20 20 21 21 21 22 23 24 25 25 26 27 28 28 29 30 30 31 31 30 31 31 32 33 33 34 34 34 34 34 34 34 34 35 35 35
16 17 17 17 17 18 18 19 19 19 20 20 21 22 23 24 24 24 25 26 27 28 29 30 30 30 31 31 32 32 32 32 32 33 33 33 34 33 33 33 34 34 34 34
15 16 17 17 18 18 19 19 19 19 20 20 21 22 23 23 24 25 25 26 26 26 27 29 30 30 30 31 31 32 32 31 31 32 32 33 33 33 33 33 33 34 34 35
15 16 16 17 17 18 18 19 19 19 20 20 20 21 22 22 22 23 24 24 25 26 27 28 29 30 30 31 31 31 32 32 31 31 32 32 32 32 32 32 32 32 33 33
15 15 16 16 16 17 17 18 18 18 19 19 19 20 21 22 22 22 22 23 24 25 25 27 29 30 31 31 31 31 31 31 31 31 31 31 31 31 31 31 32 32 32 32